<?xml version="1.0" encoding="UTF-8" standalone="no" ?>
<gpx xmlns="http://www.topografix.com/GPX/1/1" xmlns:xsi="http://www.w3.org/2001/XMLSchema-instance" xsi:schemaLocation="http://www.topografix.com/GPX/1/1 http://www.topografix.com/GPX/1/1/gpx.xsd" version="1.1" creator="VisuGPX - https://www.visugpx.com">
  <metadata>
    <name>rando la rochelle 9 km</name>
    <desc><![CDATA[photo de la rando dispo en suivant le lien [url]http://rando.pedestre.33.over-blog.com/2019/09/rando-la-rochelle-9-km.html[/url]]]></desc>
  </metadata>
  <trk>
    <name><![CDATA[rando la rochelle 9 km]]></name>
    <trkseg>
      <trkpt lat="46.14958" lon="-1.14974">
        <ele>6.4</ele>
        <time>2019-09-02T08:03:28Z</time>
      </trkpt>
      <trkpt lat="46.14961" lon="-1.14976">
        <ele>6.5</ele>
        <time>2019-09-02T08:03:35Z</time>
      </trkpt>
      <trkpt lat="46.14965" lon="-1.14978">
        <ele>6.6</ele>
        <time>2019-09-02T08:03:38Z</time>
      </trkpt>
      <trkpt lat="46.14968" lon="-1.1498">
        <ele>6.6</ele>
        <time>2019-09-02T08:03:42Z</time>
      </trkpt>
      <trkpt lat="46.14971" lon="-1.14981">
        <ele>6.6</ele>
        <time>2019-09-02T08:03:44Z</time>
      </trkpt>
      <trkpt lat="46.14975" lon="-1.1498">
        <ele>6.6</ele>
        <time>2019-09-02T08:03:47Z</time>
      </trkpt>
      <trkpt lat="46.14978" lon="-1.14981">
        <ele>6.6</ele>
        <time>2019-09-02T08:03:50Z</time>
      </trkpt>
      <trkpt lat="46.14981" lon="-1.14981">
        <ele>6.7</ele>
        <time>2019-09-02T08:03:52Z</time>
      </trkpt>
      <trkpt lat="46.14984" lon="-1.14982">
        <ele>6.7</ele>
        <time>2019-09-02T08:03:55Z</time>
      </trkpt>
      <trkpt lat="46.14988" lon="-1.14979">
        <ele>6.7</ele>
        <time>2019-09-02T08:03:59Z</time>
      </trkpt>
      <trkpt lat="46.14991" lon="-1.14979">
        <ele>6.8</ele>
        <time>2019-09-02T08:04:02Z</time>
      </trkpt>
      <trkpt lat="46.14994" lon="-1.14978">
        <ele>6.8</ele>
        <time>2019-09-02T08:04:05Z</time>
      </trkpt>
      <trkpt lat="46.14997" lon="-1.14979">
        <ele>6.8</ele>
        <time>2019-09-02T08:04:07Z</time>
      </trkpt>
      <trkpt lat="46.15" lon="-1.14981">
        <ele>6.9</ele>
        <time>2019-09-02T08:04:10Z</time>
      </trkpt>
      <trkpt lat="46.15004" lon="-1.14981">
        <ele>6.9</ele>
        <time>2019-09-02T08:04:13Z</time>
      </trkpt>
      <trkpt lat="46.15008" lon="-1.14981">
        <ele>6.9</ele>
        <time>2019-09-02T08:04:16Z</time>
      </trkpt>
      <trkpt lat="46.15011" lon="-1.14982">
        <ele>6.9</ele>
        <time>2019-09-02T08:04:20Z</time>
      </trkpt>
      <trkpt lat="46.15014" lon="-1.14981">
        <ele>6.9</ele>
        <time>2019-09-02T08:04:22Z</time>
      </trkpt>
      <trkpt lat="46.15018" lon="-1.14981">
        <ele>6.9</ele>
        <time>2019-09-02T08:04:24Z</time>
      </trkpt>
      <trkpt lat="46.15021" lon="-1.1498">
        <ele>6.8</ele>
        <time>2019-09-02T08:04:26Z</time>
      </trkpt>
      <trkpt lat="46.15025" lon="-1.14981">
        <ele>6.8</ele>
        <time>2019-09-02T08:04:29Z</time>
      </trkpt>
      <trkpt lat="46.15028" lon="-1.1498">
        <ele>6.8</ele>
        <time>2019-09-02T08:04:32Z</time>
      </trkpt>
      <trkpt lat="46.15031" lon="-1.1498">
        <ele>6.8</ele>
        <time>2019-09-02T08:04:35Z</time>
      </trkpt>
      <trkpt lat="46.15034" lon="-1.14979">
        <ele>6.8</ele>
        <time>2019-09-02T08:04:38Z</time>
      </trkpt>
      <trkpt lat="46.15037" lon="-1.14978">
        <ele>6.8</ele>
        <time>2019-09-02T08:04:40Z</time>
      </trkpt>
      <trkpt lat="46.15039" lon="-1.14976">
        <ele>6.7</ele>
        <time>2019-09-02T08:04:42Z</time>
      </trkpt>
      <trkpt lat="46.15043" lon="-1.14975">
        <ele>6.7</ele>
        <time>2019-09-02T08:04:45Z</time>
      </trkpt>
      <trkpt lat="46.15047" lon="-1.14973">
        <ele>6.7</ele>
        <time>2019-09-02T08:04:48Z</time>
      </trkpt>
      <trkpt lat="46.1505" lon="-1.14972">
        <ele>6.8</ele>
        <time>2019-09-02T08:04:50Z</time>
      </trkpt>
      <trkpt lat="46.15053" lon="-1.14971">
        <ele>6.8</ele>
        <time>2019-09-02T08:04:53Z</time>
      </trkpt>
      <trkpt lat="46.15056" lon="-1.14968">
        <ele>6.8</ele>
        <time>2019-09-02T08:04:56Z</time>
      </trkpt>
      <trkpt lat="46.15059" lon="-1.14968">
        <ele>6.9</ele>
        <time>2019-09-02T08:04:58Z</time>
      </trkpt>
      <trkpt lat="46.15062" lon="-1.14966">
        <ele>6.9</ele>
        <time>2019-09-02T08:05:01Z</time>
      </trkpt>
      <trkpt lat="46.15065" lon="-1.14967">
        <ele>6.9</ele>
        <time>2019-09-02T08:05:03Z</time>
      </trkpt>
      <trkpt lat="46.15068" lon="-1.14967">
        <ele>6.9</ele>
        <time>2019-09-02T08:05:06Z</time>
      </trkpt>
      <trkpt lat="46.15071" lon="-1.14966">
        <ele>7</ele>
        <time>2019-09-02T08:05:08Z</time>
      </trkpt>
      <trkpt lat="46.15075" lon="-1.14967">
        <ele>7</ele>
        <time>2019-09-02T08:05:11Z</time>
      </trkpt>
      <trkpt lat="46.15079" lon="-1.14966">
        <ele>7</ele>
        <time>2019-09-02T08:05:14Z</time>
      </trkpt>
      <trkpt lat="46.15082" lon="-1.14965">
        <ele>7</ele>
        <time>2019-09-02T08:05:17Z</time>
      </trkpt>
      <trkpt lat="46.15086" lon="-1.14965">
        <ele>7.1</ele>
        <time>2019-09-02T08:05:22Z</time>
      </trkpt>
      <trkpt lat="46.15089" lon="-1.14965">
        <ele>7.1</ele>
        <time>2019-09-02T08:05:24Z</time>
      </trkpt>
      <trkpt lat="46.15093" lon="-1.14966">
        <ele>7.1</ele>
        <time>2019-09-02T08:05:27Z</time>
      </trkpt>
      <trkpt lat="46.15096" lon="-1.14966">
        <ele>7.1</ele>
        <time>2019-09-02T08:05:29Z</time>
      </trkpt>
      <trkpt lat="46.15099" lon="-1.14966">
        <ele>7.1</ele>
        <time>2019-09-02T08:05:32Z</time>
      </trkpt>
      <trkpt lat="46.15102" lon="-1.14965">
        <ele>7.1</ele>
        <time>2019-09-02T08:05:34Z</time>
      </trkpt>
      <trkpt lat="46.15105" lon="-1.14965">
        <ele>7.1</ele>
        <time>2019-09-02T08:05:37Z</time>
      </trkpt>
      <trkpt lat="46.15109" lon="-1.14966">
        <ele>7.2</ele>
        <time>2019-09-02T08:05:41Z</time>
      </trkpt>
      <trkpt lat="46.15113" lon="-1.14967">
        <ele>7.2</ele>
        <time>2019-09-02T08:05:44Z</time>
      </trkpt>
      <trkpt lat="46.15116" lon="-1.14967">
        <ele>7.2</ele>
        <time>2019-09-02T08:05:47Z</time>
      </trkpt>
      <trkpt lat="46.15119" lon="-1.14967">
        <ele>7.2</ele>
        <time>2019-09-02T08:05:50Z</time>
      </trkpt>
      <trkpt lat="46.15123" lon="-1.14966">
        <ele>7.2</ele>
        <time>2019-09-02T08:05:53Z</time>
      </trkpt>
      <trkpt lat="46.15126" lon="-1.14966">
        <ele>7.2</ele>
        <time>2019-09-02T08:05:55Z</time>
      </trkpt>
      <trkpt lat="46.15129" lon="-1.14967">
        <ele>7.2</ele>
        <time>2019-09-02T08:05:58Z</time>
      </trkpt>
      <trkpt lat="46.15133" lon="-1.14967">
        <ele>7.2</ele>
        <time>2019-09-02T08:06:01Z</time>
      </trkpt>
      <trkpt lat="46.15137" lon="-1.14967">
        <ele>7.2</ele>
        <time>2019-09-02T08:06:04Z</time>
      </trkpt>
      <trkpt lat="46.15141" lon="-1.14968">
        <ele>7.2</ele>
        <time>2019-09-02T08:06:07Z</time>
      </trkpt>
      <trkpt lat="46.15145" lon="-1.14967">
        <ele>7.2</ele>
        <time>2019-09-02T08:06:10Z</time>
      </trkpt>
      <trkpt lat="46.15149" lon="-1.14966">
        <ele>7.2</ele>
        <time>2019-09-02T08:06:13Z</time>
      </trkpt>
      <trkpt lat="46.15152" lon="-1.14966">
        <ele>7.2</ele>
        <time>2019-09-02T08:06:16Z</time>
      </trkpt>
      <trkpt lat="46.15157" lon="-1.14966">
        <ele>7.2</ele>
        <time>2019-09-02T08:06:19Z</time>
      </trkpt>
      <trkpt lat="46.15159" lon="-1.14968">
        <ele>7.1</ele>
        <time>2019-09-02T08:06:21Z</time>
      </trkpt>
      <trkpt lat="46.15162" lon="-1.14971">
        <ele>7.1</ele>
        <time>2019-09-02T08:06:24Z</time>
      </trkpt>
      <trkpt lat="46.15165" lon="-1.14971">
        <ele>7.1</ele>
        <time>2019-09-02T08:06:27Z</time>
      </trkpt>
      <trkpt lat="46.15169" lon="-1.1497">
        <ele>7.1</ele>
        <time>2019-09-02T08:06:30Z</time>
      </trkpt>
      <trkpt lat="46.15172" lon="-1.14969">
        <ele>7</ele>
        <time>2019-09-02T08:06:33Z</time>
      </trkpt>
      <trkpt lat="46.15175" lon="-1.14969">
        <ele>7</ele>
        <time>2019-09-02T08:06:35Z</time>
      </trkpt>
      <trkpt lat="46.15179" lon="-1.14969">
        <ele>7</ele>
        <time>2019-09-02T08:06:38Z</time>
      </trkpt>
      <trkpt lat="46.15182" lon="-1.14971">
        <ele>7</ele>
        <time>2019-09-02T08:06:41Z</time>
      </trkpt>
      <trkpt lat="46.15185" lon="-1.14971">
        <ele>7</ele>
        <time>2019-09-02T08:06:43Z</time>
      </trkpt>
      <trkpt lat="46.15188" lon="-1.14971">
        <ele>7</ele>
        <time>2019-09-02T08:06:46Z</time>
      </trkpt>
      <trkpt lat="46.15191" lon="-1.14971">
        <ele>7</ele>
        <time>2019-09-02T08:06:48Z</time>
      </trkpt>
      <trkpt lat="46.15194" lon="-1.14971">
        <ele>7.1</ele>
        <time>2019-09-02T08:06:51Z</time>
      </trkpt>
      <trkpt lat="46.15197" lon="-1.14971">
        <ele>7.1</ele>
        <time>2019-09-02T08:06:53Z</time>
      </trkpt>
      <trkpt lat="46.15201" lon="-1.1497">
        <ele>7.1</ele>
        <time>2019-09-02T08:06:56Z</time>
      </trkpt>
      <trkpt lat="46.15204" lon="-1.14971">
        <ele>7.1</ele>
        <time>2019-09-02T08:06:59Z</time>
      </trkpt>
      <trkpt lat="46.15208" lon="-1.1497">
        <ele>7.1</ele>
        <time>2019-09-02T08:07:02Z</time>
      </trkpt>
      <trkpt lat="46.1521" lon="-1.14971">
        <ele>7.2</ele>
        <time>2019-09-02T08:07:04Z</time>
      </trkpt>
      <trkpt lat="46.15214" lon="-1.14971">
        <ele>7.2</ele>
        <time>2019-09-02T08:07:07Z</time>
      </trkpt>
      <trkpt lat="46.15217" lon="-1.14971">
        <ele>7.2</ele>
        <time>2019-09-02T08:07:11Z</time>
      </trkpt>
      <trkpt lat="46.15221" lon="-1.14971">
        <ele>7.1</ele>
        <time>2019-09-02T08:07:14Z</time>
      </trkpt>
      <trkpt lat="46.15223" lon="-1.1497">
        <ele>7.1</ele>
        <time>2019-09-02T08:07:16Z</time>
      </trkpt>
      <trkpt lat="46.15227" lon="-1.1497">
        <ele>7.1</ele>
        <time>2019-09-02T08:07:19Z</time>
      </trkpt>
      <trkpt lat="46.15231" lon="-1.1497">
        <ele>7.1</ele>
        <time>2019-09-02T08:07:22Z</time>
      </trkpt>
      <trkpt lat="46.15234" lon="-1.14969">
        <ele>7.1</ele>
        <time>2019-09-02T08:07:25Z</time>
      </trkpt>
      <trkpt lat="46.15237" lon="-1.1497">
        <ele>7.1</ele>
        <time>2019-09-02T08:07:27Z</time>
      </trkpt>
      <trkpt lat="46.1524" lon="-1.1497">
        <ele>7.1</ele>
        <time>2019-09-02T08:07:29Z</time>
      </trkpt>
      <trkpt lat="46.15243" lon="-1.14971">
        <ele>7.1</ele>
        <time>2019-09-02T08:07:32Z</time>
      </trkpt>
      <trkpt lat="46.15247" lon="-1.14972">
        <ele>7.1</ele>
        <time>2019-09-02T08:07:35Z</time>
      </trkpt>
      <trkpt lat="46.15249" lon="-1.14972">
        <ele>7.1</ele>
        <time>2019-09-02T08:07:38Z</time>
      </trkpt>
      <trkpt lat="46.15253" lon="-1.14971">
        <ele>7.1</ele>
        <time>2019-09-02T08:07:41Z</time>
      </trkpt>
      <trkpt lat="46.15256" lon="-1.14971">
        <ele>7.2</ele>
        <time>2019-09-02T08:07:44Z</time>
      </trkpt>
      <trkpt lat="46.15259" lon="-1.14972">
        <ele>7.2</ele>
        <time>2019-09-02T08:07:47Z</time>
      </trkpt>
      <trkpt lat="46.15262" lon="-1.14972">
        <ele>7.3</ele>
        <time>2019-09-02T08:07:49Z</time>
      </trkpt>
      <trkpt lat="46.15265" lon="-1.14972">
        <ele>7.3</ele>
        <time>2019-09-02T08:07:52Z</time>
      </trkpt>
      <trkpt lat="46.15266" lon="-1.14976">
        <ele>7.4</ele>
        <time>2019-09-02T08:07:55Z</time>
      </trkpt>
      <trkpt lat="46.15268" lon="-1.14981">
        <ele>7.4</ele>
        <time>2019-09-02T08:07:58Z</time>
      </trkpt>
      <trkpt lat="46.15269" lon="-1.14984">
        <ele>7.4</ele>
        <time>2019-09-02T08:08:00Z</time>
      </trkpt>
      <trkpt lat="46.1527" lon="-1.14988">
        <ele>7.4</ele>
        <time>2019-09-02T08:08:03Z</time>
      </trkpt>
      <trkpt lat="46.15274" lon="-1.1499">
        <ele>7.4</ele>
        <time>2019-09-02T08:08:07Z</time>
      </trkpt>
      <trkpt lat="46.15276" lon="-1.14992">
        <ele>7.4</ele>
        <time>2019-09-02T08:08:09Z</time>
      </trkpt>
      <trkpt lat="46.15279" lon="-1.14993">
        <ele>7.1</ele>
        <time>2019-09-02T08:08:12Z</time>
      </trkpt>
      <trkpt lat="46.15281" lon="-1.14997">
        <ele>7.1</ele>
        <time>2019-09-02T08:08:14Z</time>
      </trkpt>
      <trkpt lat="46.15283" lon="-1.14999">
        <ele>7.1</ele>
        <time>2019-09-02T08:08:16Z</time>
      </trkpt>
      <trkpt lat="46.15286" lon="-1.15">
        <ele>7.2</ele>
        <time>2019-09-02T08:08:19Z</time>
      </trkpt>
      <trkpt lat="46.1529" lon="-1.15001">
        <ele>5.5</ele>
        <time>2019-09-02T08:08:22Z</time>
      </trkpt>
      <trkpt lat="46.15293" lon="-1.15003">
        <ele>5.3</ele>
        <time>2019-09-02T08:08:24Z</time>
      </trkpt>
      <trkpt lat="46.15294" lon="-1.15006">
        <ele>5.2</ele>
        <time>2019-09-02T08:08:26Z</time>
      </trkpt>
      <trkpt lat="46.15296" lon="-1.1501">
        <ele>5.1</ele>
        <time>2019-09-02T08:08:29Z</time>
      </trkpt>
      <trkpt lat="46.15298" lon="-1.15015">
        <ele>5</ele>
        <time>2019-09-02T08:08:32Z</time>
      </trkpt>
      <trkpt lat="46.153" lon="-1.15019">
        <ele>4.9</ele>
        <time>2019-09-02T08:08:35Z</time>
      </trkpt>
      <trkpt lat="46.15301" lon="-1.15023">
        <ele>4.8</ele>
        <time>2019-09-02T08:08:40Z</time>
      </trkpt>
      <trkpt lat="46.15304" lon="-1.15026">
        <ele>4.8</ele>
        <time>2019-09-02T08:08:44Z</time>
      </trkpt>
      <trkpt lat="46.15307" lon="-1.15028">
        <ele>4.7</ele>
        <time>2019-09-02T08:08:49Z</time>
      </trkpt>
      <trkpt lat="46.15309" lon="-1.15025">
        <ele>4.7</ele>
        <time>2019-09-02T08:09:07Z</time>
      </trkpt>
      <trkpt lat="46.1531" lon="-1.15021">
        <ele>4.6</ele>
        <time>2019-09-02T08:09:22Z</time>
      </trkpt>
      <trkpt lat="46.15307" lon="-1.15019">
        <ele>4.6</ele>
        <time>2019-09-02T08:09:49Z</time>
      </trkpt>
      <trkpt lat="46.15304" lon="-1.1502">
        <ele>4.6</ele>
        <time>2019-09-02T08:09:54Z</time>
      </trkpt>
      <trkpt lat="46.15301" lon="-1.1502">
        <ele>4.5</ele>
        <time>2019-09-02T08:09:58Z</time>
      </trkpt>
      <trkpt lat="46.15298" lon="-1.15018">
        <ele>4.5</ele>
        <time>2019-09-02T08:10:04Z</time>
      </trkpt>
      <trkpt lat="46.15298" lon="-1.15014">
        <ele>4.5</ele>
        <time>2019-09-02T08:10:06Z</time>
      </trkpt>
      <trkpt lat="46.15301" lon="-1.1501">
        <ele>4.5</ele>
        <time>2019-09-02T08:10:09Z</time>
      </trkpt>
      <trkpt lat="46.15303" lon="-1.15009">
        <ele>4.4</ele>
        <time>2019-09-02T08:10:11Z</time>
      </trkpt>
      <trkpt lat="46.15306" lon="-1.15009">
        <ele>4.4</ele>
        <time>2019-09-02T08:10:13Z</time>
      </trkpt>
      <trkpt lat="46.1531" lon="-1.15009">
        <ele>4.4</ele>
        <time>2019-09-02T08:10:16Z</time>
      </trkpt>
      <trkpt lat="46.15313" lon="-1.15009">
        <ele>4.4</ele>
        <time>2019-09-02T08:10:19Z</time>
      </trkpt>
      <trkpt lat="46.15317" lon="-1.15007">
        <ele>4.3</ele>
        <time>2019-09-02T08:10:22Z</time>
      </trkpt>
      <trkpt lat="46.15319" lon="-1.15007">
        <ele>4.3</ele>
        <time>2019-09-02T08:10:24Z</time>
      </trkpt>
      <trkpt lat="46.15323" lon="-1.15005">
        <ele>4.3</ele>
        <time>2019-09-02T08:10:27Z</time>
      </trkpt>
      <trkpt lat="46.15326" lon="-1.15004">
        <ele>4.2</ele>
        <time>2019-09-02T08:10:30Z</time>
      </trkpt>
      <trkpt lat="46.15329" lon="-1.15003">
        <ele>4.2</ele>
        <time>2019-09-02T08:10:33Z</time>
      </trkpt>
      <trkpt lat="46.15333" lon="-1.15002">
        <ele>4.2</ele>
        <time>2019-09-02T08:10:36Z</time>
      </trkpt>
      <trkpt lat="46.15335" lon="-1.15002">
        <ele>4.2</ele>
        <time>2019-09-02T08:10:38Z</time>
      </trkpt>
      <trkpt lat="46.15339" lon="-1.15004">
        <ele>4.1</ele>
        <time>2019-09-02T08:10:41Z</time>
      </trkpt>
      <trkpt lat="46.15342" lon="-1.15002">
        <ele>4.1</ele>
        <time>2019-09-02T08:10:44Z</time>
      </trkpt>
      <trkpt lat="46.15345" lon="-1.15003">
        <ele>4.1</ele>
        <time>2019-09-02T08:10:47Z</time>
      </trkpt>
      <trkpt lat="46.15348" lon="-1.15002">
        <ele>4.1</ele>
        <time>2019-09-02T08:10:50Z</time>
      </trkpt>
      <trkpt lat="46.15352" lon="-1.15002">
        <ele>4</ele>
        <time>2019-09-02T08:10:53Z</time>
      </trkpt>
      <trkpt lat="46.15355" lon="-1.15004">
        <ele>4</ele>
        <time>2019-09-02T08:10:55Z</time>
      </trkpt>
      <trkpt lat="46.15359" lon="-1.15006">
        <ele>4</ele>
        <time>2019-09-02T08:10:58Z</time>
      </trkpt>
      <trkpt lat="46.15362" lon="-1.15009">
        <ele>3.9</ele>
        <time>2019-09-02T08:11:01Z</time>
      </trkpt>
      <trkpt lat="46.15365" lon="-1.15012">
        <ele>3.9</ele>
        <time>2019-09-02T08:11:04Z</time>
      </trkpt>
      <trkpt lat="46.15368" lon="-1.15012">
        <ele>3.9</ele>
        <time>2019-09-02T08:11:08Z</time>
      </trkpt>
      <trkpt lat="46.15371" lon="-1.15011">
        <ele>3.9</ele>
        <time>2019-09-02T08:11:11Z</time>
      </trkpt>
      <trkpt lat="46.15374" lon="-1.15012">
        <ele>3.8</ele>
        <time>2019-09-02T08:11:13Z</time>
      </trkpt>
      <trkpt lat="46.15377" lon="-1.15012">
        <ele>3.8</ele>
        <time>2019-09-02T08:11:16Z</time>
      </trkpt>
      <trkpt lat="46.1538" lon="-1.15012">
        <ele>3.8</ele>
        <time>2019-09-02T08:11:19Z</time>
      </trkpt>
      <trkpt lat="46.15383" lon="-1.1501">
        <ele>3.8</ele>
        <time>2019-09-02T08:11:22Z</time>
      </trkpt>
      <trkpt lat="46.15385" lon="-1.15007">
        <ele>3.7</ele>
        <time>2019-09-02T08:11:25Z</time>
      </trkpt>
      <trkpt lat="46.15388" lon="-1.15005">
        <ele>3.8</ele>
        <time>2019-09-02T08:11:28Z</time>
      </trkpt>
      <trkpt lat="46.15391" lon="-1.15002">
        <ele>3.8</ele>
        <time>2019-09-02T08:11:32Z</time>
      </trkpt>
      <trkpt lat="46.15393" lon="-1.14998">
        <ele>3.8</ele>
        <time>2019-09-02T08:11:35Z</time>
      </trkpt>
      <trkpt lat="46.15396" lon="-1.14995">
        <ele>3.9</ele>
        <time>2019-09-02T08:11:38Z</time>
      </trkpt>
      <trkpt lat="46.15398" lon="-1.14991">
        <ele>3.8</ele>
        <time>2019-09-02T08:11:41Z</time>
      </trkpt>
      <trkpt lat="46.154" lon="-1.14987">
        <ele>3.8</ele>
        <time>2019-09-02T08:11:44Z</time>
      </trkpt>
      <trkpt lat="46.15402" lon="-1.14983">
        <ele>3.7</ele>
        <time>2019-09-02T08:11:47Z</time>
      </trkpt>
      <trkpt lat="46.15404" lon="-1.1498">
        <ele>3.7</ele>
        <time>2019-09-02T08:11:50Z</time>
      </trkpt>
      <trkpt lat="46.15407" lon="-1.14979">
        <ele>3.6</ele>
        <time>2019-09-02T08:11:53Z</time>
      </trkpt>
      <trkpt lat="46.1541" lon="-1.14976">
        <ele>3.6</ele>
        <time>2019-09-02T08:11:56Z</time>
      </trkpt>
      <trkpt lat="46.15413" lon="-1.14974">
        <ele>3.6</ele>
        <time>2019-09-02T08:11:59Z</time>
      </trkpt>
      <trkpt lat="46.15416" lon="-1.14975">
        <ele>3.6</ele>
        <time>2019-09-02T08:12:02Z</time>
      </trkpt>
      <trkpt lat="46.15419" lon="-1.14974">
        <ele>3.6</ele>
        <time>2019-09-02T08:12:05Z</time>
      </trkpt>
      <trkpt lat="46.15422" lon="-1.14977">
        <ele>3.6</ele>
        <time>2019-09-02T08:12:09Z</time>
      </trkpt>
      <trkpt lat="46.15424" lon="-1.14973">
        <ele>3.6</ele>
        <time>2019-09-02T08:12:17Z</time>
      </trkpt>
      <trkpt lat="46.15425" lon="-1.14969">
        <ele>3.6</ele>
        <time>2019-09-02T08:12:20Z</time>
      </trkpt>
      <trkpt lat="46.15426" lon="-1.14964">
        <ele>3.5</ele>
        <time>2019-09-02T08:12:23Z</time>
      </trkpt>
      <trkpt lat="46.15428" lon="-1.1496">
        <ele>3.5</ele>
        <time>2019-09-02T08:12:26Z</time>
      </trkpt>
      <trkpt lat="46.15431" lon="-1.14957">
        <ele>3.5</ele>
        <time>2019-09-02T08:12:29Z</time>
      </trkpt>
      <trkpt lat="46.15434" lon="-1.14955">
        <ele>3.5</ele>
        <time>2019-09-02T08:12:32Z</time>
      </trkpt>
      <trkpt lat="46.15436" lon="-1.14955">
        <ele>3.5</ele>
        <time>2019-09-02T08:12:34Z</time>
      </trkpt>
      <trkpt lat="46.15439" lon="-1.14957">
        <ele>3.5</ele>
        <time>2019-09-02T08:12:36Z</time>
      </trkpt>
      <trkpt lat="46.15442" lon="-1.14958">
        <ele>3.5</ele>
        <time>2019-09-02T08:12:39Z</time>
      </trkpt>
      <trkpt lat="46.15444" lon="-1.14957">
        <ele>3.5</ele>
        <time>2019-09-02T08:12:45Z</time>
      </trkpt>
      <trkpt lat="46.15448" lon="-1.14958">
        <ele>3.5</ele>
        <time>2019-09-02T08:12:48Z</time>
      </trkpt>
      <trkpt lat="46.15451" lon="-1.14959">
        <ele>3.5</ele>
        <time>2019-09-02T08:12:51Z</time>
      </trkpt>
      <trkpt lat="46.15454" lon="-1.14959">
        <ele>3.5</ele>
        <time>2019-09-02T08:12:54Z</time>
      </trkpt>
      <trkpt lat="46.15457" lon="-1.14959">
        <ele>3.5</ele>
        <time>2019-09-02T08:12:57Z</time>
      </trkpt>
      <trkpt lat="46.15461" lon="-1.1496">
        <ele>3.4</ele>
        <time>2019-09-02T08:13:00Z</time>
      </trkpt>
      <trkpt lat="46.15464" lon="-1.1496">
        <ele>3.4</ele>
        <time>2019-09-02T08:13:03Z</time>
      </trkpt>
      <trkpt lat="46.15467" lon="-1.14962">
        <ele>3.4</ele>
        <time>2019-09-02T08:13:06Z</time>
      </trkpt>
      <trkpt lat="46.15471" lon="-1.14962">
        <ele>3.4</ele>
        <time>2019-09-02T08:13:09Z</time>
      </trkpt>
      <trkpt lat="46.15474" lon="-1.14963">
        <ele>3.4</ele>
        <time>2019-09-02T08:13:12Z</time>
      </trkpt>
      <trkpt lat="46.15476" lon="-1.14966">
        <ele>3.4</ele>
        <time>2019-09-02T08:13:15Z</time>
      </trkpt>
      <trkpt lat="46.15477" lon="-1.14971">
        <ele>3.3</ele>
        <time>2019-09-02T08:13:18Z</time>
      </trkpt>
      <trkpt lat="46.15478" lon="-1.14976">
        <ele>3.3</ele>
        <time>2019-09-02T08:13:21Z</time>
      </trkpt>
      <trkpt lat="46.15479" lon="-1.14971">
        <ele>3.3</ele>
        <time>2019-09-02T08:13:30Z</time>
      </trkpt>
      <trkpt lat="46.1548" lon="-1.14965">
        <ele>3.3</ele>
        <time>2019-09-02T08:13:34Z</time>
      </trkpt>
      <trkpt lat="46.1548" lon="-1.14961">
        <ele>3.3</ele>
        <time>2019-09-02T08:13:37Z</time>
      </trkpt>
      <trkpt lat="46.15482" lon="-1.14957">
        <ele>3.2</ele>
        <time>2019-09-02T08:13:41Z</time>
      </trkpt>
      <trkpt lat="46.15484" lon="-1.14953">
        <ele>3.2</ele>
        <time>2019-09-02T08:13:46Z</time>
      </trkpt>
      <trkpt lat="46.15487" lon="-1.14956">
        <ele>3.2</ele>
        <time>2019-09-02T08:13:55Z</time>
      </trkpt>
      <trkpt lat="46.15518" lon="-1.14979">
        <ele>3.5</ele>
        <time>2019-09-02T08:28:33Z</time>
      </trkpt>
      <trkpt lat="46.15515" lon="-1.14977">
        <ele>3.5</ele>
        <time>2019-09-02T08:28:34Z</time>
      </trkpt>
      <trkpt lat="46.15514" lon="-1.14981">
        <ele>3.6</ele>
        <time>2019-09-02T08:28:37Z</time>
      </trkpt>
      <trkpt lat="46.15517" lon="-1.1498">
        <ele>3.6</ele>
        <time>2019-09-02T08:28:39Z</time>
      </trkpt>
      <trkpt lat="46.15516" lon="-1.14974">
        <ele>3.6</ele>
        <time>2019-09-02T08:28:46Z</time>
      </trkpt>
      <trkpt lat="46.15516" lon="-1.14969">
        <ele>3.6</ele>
        <time>2019-09-02T08:29:13Z</time>
      </trkpt>
      <trkpt lat="46.15517" lon="-1.14965">
        <ele>3.6</ele>
        <time>2019-09-02T08:29:26Z</time>
      </trkpt>
      <trkpt lat="46.15517" lon="-1.1496">
        <ele>3.6</ele>
        <time>2019-09-02T08:29:29Z</time>
      </trkpt>
      <trkpt lat="46.15515" lon="-1.14957">
        <ele>3.6</ele>
        <time>2019-09-02T08:29:48Z</time>
      </trkpt>
      <trkpt lat="46.15518" lon="-1.14956">
        <ele>3.6</ele>
        <time>2019-09-02T08:30:16Z</time>
      </trkpt>
      <trkpt lat="46.15519" lon="-1.14952">
        <ele>3.6</ele>
        <time>2019-09-02T08:30:28Z</time>
      </trkpt>
      <trkpt lat="46.15517" lon="-1.14947">
        <ele>3.6</ele>
        <time>2019-09-02T08:30:31Z</time>
      </trkpt>
      <trkpt lat="46.15515" lon="-1.14949">
        <ele>3.7</ele>
        <time>2019-09-02T08:30:34Z</time>
      </trkpt>
      <trkpt lat="46.15514" lon="-1.14953">
        <ele>3.7</ele>
        <time>2019-09-02T08:30:36Z</time>
      </trkpt>
      <trkpt lat="46.15517" lon="-1.14954">
        <ele>3.7</ele>
        <time>2019-09-02T08:30:42Z</time>
      </trkpt>
      <trkpt lat="46.15519" lon="-1.14955">
        <ele>3.7</ele>
        <time>2019-09-02T08:30:46Z</time>
      </trkpt>
      <trkpt lat="46.15522" lon="-1.14957">
        <ele>3.7</ele>
        <time>2019-09-02T08:30:49Z</time>
      </trkpt>
      <trkpt lat="46.15525" lon="-1.1496">
        <ele>3.7</ele>
        <time>2019-09-02T08:30:51Z</time>
      </trkpt>
      <trkpt lat="46.15528" lon="-1.14961">
        <ele>3.7</ele>
        <time>2019-09-02T08:30:54Z</time>
      </trkpt>
      <trkpt lat="46.15531" lon="-1.14962">
        <ele>3.7</ele>
        <time>2019-09-02T08:30:57Z</time>
      </trkpt>
      <trkpt lat="46.15535" lon="-1.14964">
        <ele>3.8</ele>
        <time>2019-09-02T08:31:00Z</time>
      </trkpt>
      <trkpt lat="46.15538" lon="-1.14964">
        <ele>3.9</ele>
        <time>2019-09-02T08:31:03Z</time>
      </trkpt>
      <trkpt lat="46.15541" lon="-1.14965">
        <ele>3.9</ele>
        <time>2019-09-02T08:31:06Z</time>
      </trkpt>
      <trkpt lat="46.15544" lon="-1.14965">
        <ele>4</ele>
        <time>2019-09-02T08:31:08Z</time>
      </trkpt>
      <trkpt lat="46.15548" lon="-1.14965">
        <ele>4.1</ele>
        <time>2019-09-02T08:31:12Z</time>
      </trkpt>
      <trkpt lat="46.15552" lon="-1.14964">
        <ele>4.1</ele>
        <time>2019-09-02T08:31:15Z</time>
      </trkpt>
      <trkpt lat="46.15555" lon="-1.14965">
        <ele>4.2</ele>
        <time>2019-09-02T08:31:18Z</time>
      </trkpt>
      <trkpt lat="46.15559" lon="-1.14965">
        <ele>4.3</ele>
        <time>2019-09-02T08:31:21Z</time>
      </trkpt>
      <trkpt lat="46.15563" lon="-1.14966">
        <ele>4.3</ele>
        <time>2019-09-02T08:31:25Z</time>
      </trkpt>
      <trkpt lat="46.15568" lon="-1.14965">
        <ele>4.4</ele>
        <time>2019-09-02T08:31:30Z</time>
      </trkpt>
      <trkpt lat="46.15571" lon="-1.14965">
        <ele>4.4</ele>
        <time>2019-09-02T08:31:33Z</time>
      </trkpt>
      <trkpt lat="46.15574" lon="-1.14965">
        <ele>4.4</ele>
        <time>2019-09-02T08:31:36Z</time>
      </trkpt>
      <trkpt lat="46.15577" lon="-1.14967">
        <ele>4.4</ele>
        <time>2019-09-02T08:31:38Z</time>
      </trkpt>
      <trkpt lat="46.15581" lon="-1.14968">
        <ele>4.5</ele>
        <time>2019-09-02T08:31:42Z</time>
      </trkpt>
      <trkpt lat="46.15585" lon="-1.14969">
        <ele>4.5</ele>
        <time>2019-09-02T08:31:45Z</time>
      </trkpt>
      <trkpt lat="46.15588" lon="-1.14969">
        <ele>4.6</ele>
        <time>2019-09-02T08:31:48Z</time>
      </trkpt>
      <trkpt lat="46.15592" lon="-1.14968">
        <ele>4.5</ele>
        <time>2019-09-02T08:31:54Z</time>
      </trkpt>
      <trkpt lat="46.15596" lon="-1.1497">
        <ele>4.5</ele>
        <time>2019-09-02T08:32:00Z</time>
      </trkpt>
      <trkpt lat="46.15599" lon="-1.14973">
        <ele>4.5</ele>
        <time>2019-09-02T08:32:03Z</time>
      </trkpt>
      <trkpt lat="46.15602" lon="-1.14973">
        <ele>4.5</ele>
        <time>2019-09-02T08:32:06Z</time>
      </trkpt>
      <trkpt lat="46.15607" lon="-1.14973">
        <ele>4.5</ele>
        <time>2019-09-02T08:32:12Z</time>
      </trkpt>
      <trkpt lat="46.15611" lon="-1.14974">
        <ele>4.5</ele>
        <time>2019-09-02T08:32:18Z</time>
      </trkpt>
      <trkpt lat="46.15614" lon="-1.14974">
        <ele>4.6</ele>
        <time>2019-09-02T08:32:21Z</time>
      </trkpt>
      <trkpt lat="46.15617" lon="-1.14976">
        <ele>4.6</ele>
        <time>2019-09-02T08:32:24Z</time>
      </trkpt>
      <trkpt lat="46.1562" lon="-1.14976">
        <ele>4.6</ele>
        <time>2019-09-02T08:32:27Z</time>
      </trkpt>
      <trkpt lat="46.15622" lon="-1.1498">
        <ele>4.6</ele>
        <time>2019-09-02T08:32:30Z</time>
      </trkpt>
      <trkpt lat="46.15625" lon="-1.14979">
        <ele>4.7</ele>
        <time>2019-09-02T08:32:39Z</time>
      </trkpt>
      <trkpt lat="46.15629" lon="-1.14978">
        <ele>4.7</ele>
        <time>2019-09-02T08:32:43Z</time>
      </trkpt>
      <trkpt lat="46.15633" lon="-1.14979">
        <ele>4.7</ele>
        <time>2019-09-02T08:32:48Z</time>
      </trkpt>
      <trkpt lat="46.15636" lon="-1.14979">
        <ele>4.8</ele>
        <time>2019-09-02T08:32:52Z</time>
      </trkpt>
      <trkpt lat="46.1564" lon="-1.14977">
        <ele>4.8</ele>
        <time>2019-09-02T08:32:55Z</time>
      </trkpt>
      <trkpt lat="46.15643" lon="-1.14977">
        <ele>4.8</ele>
        <time>2019-09-02T08:32:59Z</time>
      </trkpt>
      <trkpt lat="46.15646" lon="-1.14977">
        <ele>4.9</ele>
        <time>2019-09-02T08:33:20Z</time>
      </trkpt>
      <trkpt lat="46.1565" lon="-1.14977">
        <ele>4.9</ele>
        <time>2019-09-02T08:33:24Z</time>
      </trkpt>
      <trkpt lat="46.15653" lon="-1.14978">
        <ele>5</ele>
        <time>2019-09-02T08:33:27Z</time>
      </trkpt>
      <trkpt lat="46.15656" lon="-1.14978">
        <ele>5</ele>
        <time>2019-09-02T08:33:29Z</time>
      </trkpt>
      <trkpt lat="46.15659" lon="-1.14978">
        <ele>5</ele>
        <time>2019-09-02T08:33:32Z</time>
      </trkpt>
      <trkpt lat="46.15662" lon="-1.14976">
        <ele>5</ele>
        <time>2019-09-02T08:33:34Z</time>
      </trkpt>
      <trkpt lat="46.15666" lon="-1.14977">
        <ele>5.1</ele>
        <time>2019-09-02T08:33:37Z</time>
      </trkpt>
      <trkpt lat="46.15669" lon="-1.14977">
        <ele>5.1</ele>
        <time>2019-09-02T08:33:41Z</time>
      </trkpt>
      <trkpt lat="46.15673" lon="-1.14977">
        <ele>5.1</ele>
        <time>2019-09-02T08:33:44Z</time>
      </trkpt>
      <trkpt lat="46.15676" lon="-1.14979">
        <ele>5.1</ele>
        <time>2019-09-02T08:33:46Z</time>
      </trkpt>
      <trkpt lat="46.15679" lon="-1.14979">
        <ele>5.2</ele>
        <time>2019-09-02T08:33:49Z</time>
      </trkpt>
      <trkpt lat="46.15683" lon="-1.14982">
        <ele>5.2</ele>
        <time>2019-09-02T08:33:52Z</time>
      </trkpt>
      <trkpt lat="46.15685" lon="-1.14984">
        <ele>5.2</ele>
        <time>2019-09-02T08:33:54Z</time>
      </trkpt>
      <trkpt lat="46.15688" lon="-1.14987">
        <ele>5.2</ele>
        <time>2019-09-02T08:33:57Z</time>
      </trkpt>
      <trkpt lat="46.15691" lon="-1.1499">
        <ele>5.2</ele>
        <time>2019-09-02T08:34:01Z</time>
      </trkpt>
      <trkpt lat="46.15694" lon="-1.14993">
        <ele>5.3</ele>
        <time>2019-09-02T08:34:04Z</time>
      </trkpt>
      <trkpt lat="46.15697" lon="-1.14995">
        <ele>5.3</ele>
        <time>2019-09-02T08:34:07Z</time>
      </trkpt>
      <trkpt lat="46.157" lon="-1.14996">
        <ele>5.3</ele>
        <time>2019-09-02T08:34:09Z</time>
      </trkpt>
      <trkpt lat="46.15704" lon="-1.14999">
        <ele>5.3</ele>
        <time>2019-09-02T08:34:12Z</time>
      </trkpt>
      <trkpt lat="46.15708" lon="-1.15001">
        <ele>5.4</ele>
        <time>2019-09-02T08:34:15Z</time>
      </trkpt>
      <trkpt lat="46.1571" lon="-1.15004">
        <ele>5.3</ele>
        <time>2019-09-02T08:34:17Z</time>
      </trkpt>
      <trkpt lat="46.15712" lon="-1.15008">
        <ele>5.2</ele>
        <time>2019-09-02T08:34:20Z</time>
      </trkpt>
      <trkpt lat="46.15714" lon="-1.15012">
        <ele>5.1</ele>
        <time>2019-09-02T08:34:24Z</time>
      </trkpt>
      <trkpt lat="46.15715" lon="-1.15017">
        <ele>5</ele>
        <time>2019-09-02T08:34:28Z</time>
      </trkpt>
      <trkpt lat="46.15714" lon="-1.15021">
        <ele>4.9</ele>
        <time>2019-09-02T08:34:45Z</time>
      </trkpt>
      <trkpt lat="46.15711" lon="-1.15021">
        <ele>4.8</ele>
        <time>2019-09-02T08:35:01Z</time>
      </trkpt>
      <trkpt lat="46.15709" lon="-1.15024">
        <ele>4.7</ele>
        <time>2019-09-02T08:35:04Z</time>
      </trkpt>
      <trkpt lat="46.15709" lon="-1.15028">
        <ele>4.6</ele>
        <time>2019-09-02T08:35:06Z</time>
      </trkpt>
      <trkpt lat="46.15708" lon="-1.15033">
        <ele>4.5</ele>
        <time>2019-09-02T08:35:09Z</time>
      </trkpt>
      <trkpt lat="46.15707" lon="-1.15037">
        <ele>4.4</ele>
        <time>2019-09-02T08:35:12Z</time>
      </trkpt>
      <trkpt lat="46.15707" lon="-1.15042">
        <ele>4.3</ele>
        <time>2019-09-02T08:35:15Z</time>
      </trkpt>
      <trkpt lat="46.15707" lon="-1.15047">
        <ele>4.2</ele>
        <time>2019-09-02T08:35:19Z</time>
      </trkpt>
      <trkpt lat="46.15705" lon="-1.1505">
        <ele>4.1</ele>
        <time>2019-09-02T08:35:26Z</time>
      </trkpt>
      <trkpt lat="46.15706" lon="-1.15055">
        <ele>4</ele>
        <time>2019-09-02T08:35:52Z</time>
      </trkpt>
      <trkpt lat="46.15706" lon="-1.15059">
        <ele>3.9</ele>
        <time>2019-09-02T08:35:55Z</time>
      </trkpt>
      <trkpt lat="46.15707" lon="-1.15064">
        <ele>3.8</ele>
        <time>2019-09-02T08:35:59Z</time>
      </trkpt>
      <trkpt lat="46.15706" lon="-1.15069">
        <ele>3.6</ele>
        <time>2019-09-02T08:36:03Z</time>
      </trkpt>
      <trkpt lat="46.15707" lon="-1.15073">
        <ele>3.5</ele>
        <time>2019-09-02T08:36:06Z</time>
      </trkpt>
      <trkpt lat="46.15707" lon="-1.15077">
        <ele>3.4</ele>
        <time>2019-09-02T08:36:08Z</time>
      </trkpt>
      <trkpt lat="46.1571" lon="-1.15078">
        <ele>3.2</ele>
        <time>2019-09-02T08:36:13Z</time>
      </trkpt>
      <trkpt lat="46.1571" lon="-1.15082">
        <ele>3.1</ele>
        <time>2019-09-02T08:36:21Z</time>
      </trkpt>
      <trkpt lat="46.1571" lon="-1.15088">
        <ele>3</ele>
        <time>2019-09-02T08:36:24Z</time>
      </trkpt>
      <trkpt lat="46.15711" lon="-1.15092">
        <ele>2.9</ele>
        <time>2019-09-02T08:36:27Z</time>
      </trkpt>
      <trkpt lat="46.1571" lon="-1.15097">
        <ele>2.7</ele>
        <time>2019-09-02T08:36:30Z</time>
      </trkpt>
      <trkpt lat="46.1571" lon="-1.15103">
        <ele>2.4</ele>
        <time>2019-09-02T08:36:34Z</time>
      </trkpt>
      <trkpt lat="46.1571" lon="-1.15107">
        <ele>2.2</ele>
        <time>2019-09-02T08:36:37Z</time>
      </trkpt>
      <trkpt lat="46.15709" lon="-1.15112">
        <ele>2.1</ele>
        <time>2019-09-02T08:36:40Z</time>
      </trkpt>
      <trkpt lat="46.15709" lon="-1.15117">
        <ele>1.9</ele>
        <time>2019-09-02T08:36:44Z</time>
      </trkpt>
      <trkpt lat="46.15709" lon="-1.15122">
        <ele>1.7</ele>
        <time>2019-09-02T08:36:48Z</time>
      </trkpt>
      <trkpt lat="46.15709" lon="-1.15127">
        <ele>1.5</ele>
        <time>2019-09-02T08:36:52Z</time>
      </trkpt>
      <trkpt lat="46.1571" lon="-1.15131">
        <ele>1.4</ele>
        <time>2019-09-02T08:36:55Z</time>
      </trkpt>
      <trkpt lat="46.15709" lon="-1.15134">
        <ele>1</ele>
        <time>2019-09-02T08:37:04Z</time>
      </trkpt>
      <trkpt lat="46.1571" lon="-1.15138">
        <ele>1</ele>
        <time>2019-09-02T08:37:08Z</time>
      </trkpt>
      <trkpt lat="46.15711" lon="-1.15142">
        <ele>1</ele>
        <time>2019-09-02T08:37:11Z</time>
      </trkpt>
      <trkpt lat="46.1571" lon="-1.15147">
        <ele>1</ele>
        <time>2019-09-02T08:37:16Z</time>
      </trkpt>
      <trkpt lat="46.15709" lon="-1.15151">
        <ele>1</ele>
        <time>2019-09-02T08:37:29Z</time>
      </trkpt>
      <trkpt lat="46.15707" lon="-1.15155">
        <ele>1</ele>
        <time>2019-09-02T08:37:34Z</time>
      </trkpt>
      <trkpt lat="46.15705" lon="-1.15155">
        <ele>1</ele>
        <time>2019-09-02T08:39:28Z</time>
      </trkpt>
      <trkpt lat="46.15703" lon="-1.15159">
        <ele>1</ele>
        <time>2019-09-02T08:39:31Z</time>
      </trkpt>
      <trkpt lat="46.157" lon="-1.15161">
        <ele>1</ele>
        <time>2019-09-02T08:39:34Z</time>
      </trkpt>
      <trkpt lat="46.15697" lon="-1.15163">
        <ele>1</ele>
        <time>2019-09-02T08:39:37Z</time>
      </trkpt>
      <trkpt lat="46.15694" lon="-1.15167">
        <ele>1</ele>
        <time>2019-09-02T08:39:40Z</time>
      </trkpt>
      <trkpt lat="46.15691" lon="-1.15167">
        <ele>1</ele>
        <time>2019-09-02T08:39:43Z</time>
      </trkpt>
      <trkpt lat="46.15688" lon="-1.15169">
        <ele>1</ele>
        <time>2019-09-02T08:39:46Z</time>
      </trkpt>
      <trkpt lat="46.15684" lon="-1.15171">
        <ele>1</ele>
        <time>2019-09-02T08:39:50Z</time>
      </trkpt>
      <trkpt lat="46.15681" lon="-1.15174">
        <ele>1</ele>
        <time>2019-09-02T08:39:53Z</time>
      </trkpt>
      <trkpt lat="46.15678" lon="-1.15176">
        <ele>1</ele>
        <time>2019-09-02T08:39:56Z</time>
      </trkpt>
      <trkpt lat="46.15675" lon="-1.15179">
        <ele>1</ele>
        <time>2019-09-02T08:39:59Z</time>
      </trkpt>
      <trkpt lat="46.15672" lon="-1.1518">
        <ele>1</ele>
        <time>2019-09-02T08:40:01Z</time>
      </trkpt>
      <trkpt lat="46.15669" lon="-1.15181">
        <ele>1</ele>
        <time>2019-09-02T08:40:04Z</time>
      </trkpt>
      <trkpt lat="46.15666" lon="-1.15181">
        <ele>0.9</ele>
        <time>2019-09-02T08:40:06Z</time>
      </trkpt>
      <trkpt lat="46.15663" lon="-1.15181">
        <ele>0.9</ele>
        <time>2019-09-02T08:40:09Z</time>
      </trkpt>
      <trkpt lat="46.15659" lon="-1.15182">
        <ele>0.8</ele>
        <time>2019-09-02T08:40:12Z</time>
      </trkpt>
      <trkpt lat="46.15656" lon="-1.15183">
        <ele>0.8</ele>
        <time>2019-09-02T08:40:15Z</time>
      </trkpt>
      <trkpt lat="46.15653" lon="-1.15184">
        <ele>0.8</ele>
        <time>2019-09-02T08:40:18Z</time>
      </trkpt>
      <trkpt lat="46.15651" lon="-1.15184">
        <ele>0.8</ele>
        <time>2019-09-02T08:40:21Z</time>
      </trkpt>
      <trkpt lat="46.15621" lon="-1.15216">
        <ele>0.6</ele>
        <time>2019-09-02T08:43:09Z</time>
      </trkpt>
      <trkpt lat="46.15623" lon="-1.1522">
        <ele>0.6</ele>
        <time>2019-09-02T08:43:16Z</time>
      </trkpt>
      <trkpt lat="46.15623" lon="-1.15224">
        <ele>0.6</ele>
        <time>2019-09-02T08:43:20Z</time>
      </trkpt>
      <trkpt lat="46.15627" lon="-1.15226">
        <ele>0.6</ele>
        <time>2019-09-02T08:43:24Z</time>
      </trkpt>
      <trkpt lat="46.15624" lon="-1.15228">
        <ele>0.6</ele>
        <time>2019-09-02T08:43:41Z</time>
      </trkpt>
      <trkpt lat="46.15621" lon="-1.15229">
        <ele>0.5</ele>
        <time>2019-09-02T08:43:44Z</time>
      </trkpt>
      <trkpt lat="46.15617" lon="-1.15231">
        <ele>0.5</ele>
        <time>2019-09-02T08:43:47Z</time>
      </trkpt>
      <trkpt lat="46.15614" lon="-1.15231">
        <ele>0.5</ele>
        <time>2019-09-02T08:43:50Z</time>
      </trkpt>
      <trkpt lat="46.15611" lon="-1.15231">
        <ele>0.5</ele>
        <time>2019-09-02T08:43:53Z</time>
      </trkpt>
      <trkpt lat="46.15608" lon="-1.15231">
        <ele>0.5</ele>
        <time>2019-09-02T08:43:57Z</time>
      </trkpt>
      <trkpt lat="46.15605" lon="-1.15233">
        <ele>0.4</ele>
        <time>2019-09-02T08:44:02Z</time>
      </trkpt>
      <trkpt lat="46.15602" lon="-1.15236">
        <ele>0.4</ele>
        <time>2019-09-02T08:44:09Z</time>
      </trkpt>
      <trkpt lat="46.15601" lon="-1.1524">
        <ele>0.4</ele>
        <time>2019-09-02T08:44:14Z</time>
      </trkpt>
      <trkpt lat="46.15598" lon="-1.15243">
        <ele>0.4</ele>
        <time>2019-09-02T08:44:18Z</time>
      </trkpt>
      <trkpt lat="46.15597" lon="-1.15246">
        <ele>0.4</ele>
        <time>2019-09-02T08:44:22Z</time>
      </trkpt>
      <trkpt lat="46.15594" lon="-1.15249">
        <ele>0.4</ele>
        <time>2019-09-02T08:44:32Z</time>
      </trkpt>
      <trkpt lat="46.15592" lon="-1.15253">
        <ele>0.3</ele>
        <time>2019-09-02T08:44:37Z</time>
      </trkpt>
      <trkpt lat="46.1559" lon="-1.15257">
        <ele>0.3</ele>
        <time>2019-09-02T08:44:40Z</time>
      </trkpt>
      <trkpt lat="46.15588" lon="-1.1526">
        <ele>0.3</ele>
        <time>2019-09-02T08:44:44Z</time>
      </trkpt>
      <trkpt lat="46.15586" lon="-1.15264">
        <ele>0.3</ele>
        <time>2019-09-02T08:44:48Z</time>
      </trkpt>
      <trkpt lat="46.15583" lon="-1.15265">
        <ele>0.3</ele>
        <time>2019-09-02T08:44:51Z</time>
      </trkpt>
      <trkpt lat="46.15581" lon="-1.15268">
        <ele>0.4</ele>
        <time>2019-09-02T08:44:55Z</time>
      </trkpt>
      <trkpt lat="46.15579" lon="-1.15271">
        <ele>0.4</ele>
        <time>2019-09-02T08:44:58Z</time>
      </trkpt>
      <trkpt lat="46.15577" lon="-1.15274">
        <ele>0.5</ele>
        <time>2019-09-02T08:45:02Z</time>
      </trkpt>
      <trkpt lat="46.15579" lon="-1.15276">
        <ele>0.5</ele>
        <time>2019-09-02T08:45:34Z</time>
      </trkpt>
      <trkpt lat="46.15576" lon="-1.15277">
        <ele>0.6</ele>
        <time>2019-09-02T08:46:03Z</time>
      </trkpt>
      <trkpt lat="46.15573" lon="-1.1528">
        <ele>0.6</ele>
        <time>2019-09-02T08:46:06Z</time>
      </trkpt>
      <trkpt lat="46.1557" lon="-1.1528">
        <ele>0.6</ele>
        <time>2019-09-02T08:46:09Z</time>
      </trkpt>
      <trkpt lat="46.15567" lon="-1.15279">
        <ele>0.7</ele>
        <time>2019-09-02T08:46:12Z</time>
      </trkpt>
      <trkpt lat="46.15564" lon="-1.1528">
        <ele>0.7</ele>
        <time>2019-09-02T08:46:15Z</time>
      </trkpt>
      <trkpt lat="46.15561" lon="-1.1528">
        <ele>0.8</ele>
        <time>2019-09-02T08:46:18Z</time>
      </trkpt>
      <trkpt lat="46.15558" lon="-1.15281">
        <ele>0.8</ele>
        <time>2019-09-02T08:46:22Z</time>
      </trkpt>
      <trkpt lat="46.15559" lon="-1.15285">
        <ele>0.9</ele>
        <time>2019-09-02T08:46:26Z</time>
      </trkpt>
      <trkpt lat="46.15557" lon="-1.15289">
        <ele>0.9</ele>
        <time>2019-09-02T08:46:29Z</time>
      </trkpt>
      <trkpt lat="46.15556" lon="-1.15294">
        <ele>1</ele>
        <time>2019-09-02T08:46:33Z</time>
      </trkpt>
      <trkpt lat="46.15555" lon="-1.15299">
        <ele>1</ele>
        <time>2019-09-02T08:46:36Z</time>
      </trkpt>
      <trkpt lat="46.15554" lon="-1.15303">
        <ele>1.1</ele>
        <time>2019-09-02T08:46:39Z</time>
      </trkpt>
      <trkpt lat="46.15553" lon="-1.15308">
        <ele>1.1</ele>
        <time>2019-09-02T08:46:43Z</time>
      </trkpt>
      <trkpt lat="46.15551" lon="-1.1531">
        <ele>1.1</ele>
        <time>2019-09-02T08:46:48Z</time>
      </trkpt>
      <trkpt lat="46.15548" lon="-1.15314">
        <ele>1.1</ele>
        <time>2019-09-02T08:46:51Z</time>
      </trkpt>
      <trkpt lat="46.15545" lon="-1.15313">
        <ele>1.2</ele>
        <time>2019-09-02T08:47:03Z</time>
      </trkpt>
      <trkpt lat="46.15542" lon="-1.15313">
        <ele>1.2</ele>
        <time>2019-09-02T08:47:06Z</time>
      </trkpt>
      <trkpt lat="46.15539" lon="-1.15314">
        <ele>1.2</ele>
        <time>2019-09-02T08:47:09Z</time>
      </trkpt>
      <trkpt lat="46.15536" lon="-1.15315">
        <ele>1.2</ele>
        <time>2019-09-02T08:47:13Z</time>
      </trkpt>
      <trkpt lat="46.15533" lon="-1.15318">
        <ele>1.2</ele>
        <time>2019-09-02T08:47:16Z</time>
      </trkpt>
      <trkpt lat="46.1553" lon="-1.15319">
        <ele>1.2</ele>
        <time>2019-09-02T08:47:19Z</time>
      </trkpt>
      <trkpt lat="46.15527" lon="-1.15317">
        <ele>1.2</ele>
        <time>2019-09-02T08:47:22Z</time>
      </trkpt>
      <trkpt lat="46.15524" lon="-1.15319">
        <ele>1.2</ele>
        <time>2019-09-02T08:47:26Z</time>
      </trkpt>
      <trkpt lat="46.15521" lon="-1.1532">
        <ele>1.2</ele>
        <time>2019-09-02T08:47:30Z</time>
      </trkpt>
      <trkpt lat="46.15517" lon="-1.1532">
        <ele>1.2</ele>
        <time>2019-09-02T08:47:33Z</time>
      </trkpt>
      <trkpt lat="46.15515" lon="-1.15324">
        <ele>1.2</ele>
        <time>2019-09-02T08:47:36Z</time>
      </trkpt>
      <trkpt lat="46.15513" lon="-1.15327">
        <ele>1.2</ele>
        <time>2019-09-02T08:47:49Z</time>
      </trkpt>
      <trkpt lat="46.15512" lon="-1.15331">
        <ele>1.3</ele>
        <time>2019-09-02T08:47:53Z</time>
      </trkpt>
      <trkpt lat="46.15509" lon="-1.15332">
        <ele>1.3</ele>
        <time>2019-09-02T08:47:56Z</time>
      </trkpt>
      <trkpt lat="46.15508" lon="-1.15328">
        <ele>1.3</ele>
        <time>2019-09-02T08:48:44Z</time>
      </trkpt>
      <trkpt lat="46.15506" lon="-1.15332">
        <ele>1.3</ele>
        <time>2019-09-02T08:52:22Z</time>
      </trkpt>
      <trkpt lat="46.15505" lon="-1.15335">
        <ele>1.3</ele>
        <time>2019-09-02T08:52:26Z</time>
      </trkpt>
      <trkpt lat="46.15501" lon="-1.15338">
        <ele>1.3</ele>
        <time>2019-09-02T08:52:30Z</time>
      </trkpt>
      <trkpt lat="46.15498" lon="-1.15339">
        <ele>1.3</ele>
        <time>2019-09-02T08:52:34Z</time>
      </trkpt>
      <trkpt lat="46.15495" lon="-1.1534">
        <ele>1.3</ele>
        <time>2019-09-02T08:52:38Z</time>
      </trkpt>
      <trkpt lat="46.15492" lon="-1.15341">
        <ele>1.3</ele>
        <time>2019-09-02T08:52:42Z</time>
      </trkpt>
      <trkpt lat="46.15489" lon="-1.15341">
        <ele>1.3</ele>
        <time>2019-09-02T08:52:46Z</time>
      </trkpt>
      <trkpt lat="46.15486" lon="-1.1534">
        <ele>1.3</ele>
        <time>2019-09-02T08:52:50Z</time>
      </trkpt>
      <trkpt lat="46.15484" lon="-1.15337">
        <ele>1.3</ele>
        <time>2019-09-02T08:53:25Z</time>
      </trkpt>
      <trkpt lat="46.15484" lon="-1.15332">
        <ele>1.3</ele>
        <time>2019-09-02T08:54:30Z</time>
      </trkpt>
      <trkpt lat="46.15484" lon="-1.15328">
        <ele>1.3</ele>
        <time>2019-09-02T08:54:33Z</time>
      </trkpt>
      <trkpt lat="46.15485" lon="-1.15325">
        <ele>1.3</ele>
        <time>2019-09-02T08:54:36Z</time>
      </trkpt>
      <trkpt lat="46.15486" lon="-1.15321">
        <ele>1.3</ele>
        <time>2019-09-02T08:54:39Z</time>
      </trkpt>
      <trkpt lat="46.15487" lon="-1.15316">
        <ele>1.3</ele>
        <time>2019-09-02T08:54:42Z</time>
      </trkpt>
      <trkpt lat="46.15487" lon="-1.15312">
        <ele>1.3</ele>
        <time>2019-09-02T08:54:47Z</time>
      </trkpt>
      <trkpt lat="46.15487" lon="-1.15307">
        <ele>1.4</ele>
        <time>2019-09-02T08:54:50Z</time>
      </trkpt>
      <trkpt lat="46.15488" lon="-1.15303">
        <ele>1.4</ele>
        <time>2019-09-02T08:54:53Z</time>
      </trkpt>
      <trkpt lat="46.15488" lon="-1.15298">
        <ele>1.4</ele>
        <time>2019-09-02T08:54:57Z</time>
      </trkpt>
      <trkpt lat="46.15488" lon="-1.15293">
        <ele>1.4</ele>
        <time>2019-09-02T08:55:01Z</time>
      </trkpt>
      <trkpt lat="46.15488" lon="-1.15289">
        <ele>1.4</ele>
        <time>2019-09-02T08:55:04Z</time>
      </trkpt>
      <trkpt lat="46.15488" lon="-1.15284">
        <ele>1.4</ele>
        <time>2019-09-02T08:55:07Z</time>
      </trkpt>
      <trkpt lat="46.15487" lon="-1.1528">
        <ele>1.5</ele>
        <time>2019-09-02T08:55:10Z</time>
      </trkpt>
      <trkpt lat="46.15487" lon="-1.15276">
        <ele>1.7</ele>
        <time>2019-09-02T08:55:13Z</time>
      </trkpt>
      <trkpt lat="46.15487" lon="-1.1527">
        <ele>1.7</ele>
        <time>2019-09-02T08:55:17Z</time>
      </trkpt>
      <trkpt lat="46.15487" lon="-1.15265">
        <ele>1.8</ele>
        <time>2019-09-02T08:55:21Z</time>
      </trkpt>
      <trkpt lat="46.15487" lon="-1.15261">
        <ele>1.8</ele>
        <time>2019-09-02T08:55:24Z</time>
      </trkpt>
      <trkpt lat="46.15488" lon="-1.15256">
        <ele>1.8</ele>
        <time>2019-09-02T08:55:27Z</time>
      </trkpt>
      <trkpt lat="46.15488" lon="-1.15252">
        <ele>1.8</ele>
        <time>2019-09-02T08:55:31Z</time>
      </trkpt>
      <trkpt lat="46.15488" lon="-1.15247">
        <ele>1.8</ele>
        <time>2019-09-02T08:55:34Z</time>
      </trkpt>
      <trkpt lat="46.15489" lon="-1.15243">
        <ele>1.9</ele>
        <time>2019-09-02T08:55:37Z</time>
      </trkpt>
      <trkpt lat="46.15489" lon="-1.15239">
        <ele>1.9</ele>
        <time>2019-09-02T08:55:39Z</time>
      </trkpt>
      <trkpt lat="46.15489" lon="-1.15234">
        <ele>1.9</ele>
        <time>2019-09-02T08:55:42Z</time>
      </trkpt>
      <trkpt lat="46.15489" lon="-1.1523">
        <ele>1.9</ele>
        <time>2019-09-02T08:55:45Z</time>
      </trkpt>
      <trkpt lat="46.15488" lon="-1.15226">
        <ele>2</ele>
        <time>2019-09-02T08:55:48Z</time>
      </trkpt>
      <trkpt lat="46.15489" lon="-1.15222">
        <ele>2</ele>
        <time>2019-09-02T08:55:51Z</time>
      </trkpt>
      <trkpt lat="46.15487" lon="-1.15217">
        <ele>2</ele>
        <time>2019-09-02T08:55:54Z</time>
      </trkpt>
      <trkpt lat="46.15488" lon="-1.15213">
        <ele>2</ele>
        <time>2019-09-02T08:55:57Z</time>
      </trkpt>
      <trkpt lat="46.15489" lon="-1.15208">
        <ele>2.1</ele>
        <time>2019-09-02T08:56:01Z</time>
      </trkpt>
      <trkpt lat="46.15489" lon="-1.15203">
        <ele>2.1</ele>
        <time>2019-09-02T08:56:04Z</time>
      </trkpt>
      <trkpt lat="46.15488" lon="-1.15199">
        <ele>2.1</ele>
        <time>2019-09-02T08:56:07Z</time>
      </trkpt>
      <trkpt lat="46.15488" lon="-1.15194">
        <ele>2.2</ele>
        <time>2019-09-02T08:56:10Z</time>
      </trkpt>
      <trkpt lat="46.15489" lon="-1.15189">
        <ele>2.2</ele>
        <time>2019-09-02T08:56:13Z</time>
      </trkpt>
      <trkpt lat="46.1549" lon="-1.15185">
        <ele>2.2</ele>
        <time>2019-09-02T08:56:16Z</time>
      </trkpt>
      <trkpt lat="46.1549" lon="-1.15181">
        <ele>2.3</ele>
        <time>2019-09-02T08:56:19Z</time>
      </trkpt>
      <trkpt lat="46.15489" lon="-1.15176">
        <ele>2.3</ele>
        <time>2019-09-02T08:56:22Z</time>
      </trkpt>
      <trkpt lat="46.1549" lon="-1.15172">
        <ele>2.3</ele>
        <time>2019-09-02T08:56:26Z</time>
      </trkpt>
      <trkpt lat="46.1549" lon="-1.15168">
        <ele>2.3</ele>
        <time>2019-09-02T08:56:29Z</time>
      </trkpt>
      <trkpt lat="46.15491" lon="-1.15164">
        <ele>2.3</ele>
        <time>2019-09-02T08:56:32Z</time>
      </trkpt>
      <trkpt lat="46.1549" lon="-1.1516">
        <ele>2.3</ele>
        <time>2019-09-02T08:56:35Z</time>
      </trkpt>
      <trkpt lat="46.1549" lon="-1.15155">
        <ele>2.3</ele>
        <time>2019-09-02T08:56:38Z</time>
      </trkpt>
      <trkpt lat="46.1549" lon="-1.15151">
        <ele>2.2</ele>
        <time>2019-09-02T08:56:41Z</time>
      </trkpt>
      <trkpt lat="46.15491" lon="-1.15146">
        <ele>2.2</ele>
        <time>2019-09-02T08:56:44Z</time>
      </trkpt>
      <trkpt lat="46.15491" lon="-1.15141">
        <ele>2.2</ele>
        <time>2019-09-02T08:56:47Z</time>
      </trkpt>
      <trkpt lat="46.15492" lon="-1.15136">
        <ele>2.2</ele>
        <time>2019-09-02T08:56:50Z</time>
      </trkpt>
      <trkpt lat="46.15492" lon="-1.15132">
        <ele>2.2</ele>
        <time>2019-09-02T08:56:52Z</time>
      </trkpt>
      <trkpt lat="46.15493" lon="-1.15128">
        <ele>2.2</ele>
        <time>2019-09-02T08:56:55Z</time>
      </trkpt>
      <trkpt lat="46.15493" lon="-1.15124">
        <ele>2.2</ele>
        <time>2019-09-02T08:56:58Z</time>
      </trkpt>
      <trkpt lat="46.15494" lon="-1.15119">
        <ele>2.2</ele>
        <time>2019-09-02T08:57:01Z</time>
      </trkpt>
      <trkpt lat="46.15494" lon="-1.15114">
        <ele>2.2</ele>
        <time>2019-09-02T08:57:04Z</time>
      </trkpt>
      <trkpt lat="46.15495" lon="-1.1511">
        <ele>2.2</ele>
        <time>2019-09-02T08:57:07Z</time>
      </trkpt>
      <trkpt lat="46.15495" lon="-1.15105">
        <ele>2.2</ele>
        <time>2019-09-02T08:57:10Z</time>
      </trkpt>
      <trkpt lat="46.15495" lon="-1.15101">
        <ele>2.3</ele>
        <time>2019-09-02T08:57:13Z</time>
      </trkpt>
      <trkpt lat="46.15495" lon="-1.15096">
        <ele>2.3</ele>
        <time>2019-09-02T08:57:17Z</time>
      </trkpt>
      <trkpt lat="46.15495" lon="-1.15091">
        <ele>2.3</ele>
        <time>2019-09-02T08:57:21Z</time>
      </trkpt>
      <trkpt lat="46.15495" lon="-1.15086">
        <ele>2.3</ele>
        <time>2019-09-02T08:57:24Z</time>
      </trkpt>
      <trkpt lat="46.15494" lon="-1.15081">
        <ele>2.3</ele>
        <time>2019-09-02T08:57:27Z</time>
      </trkpt>
      <trkpt lat="46.15494" lon="-1.15077">
        <ele>2.4</ele>
        <time>2019-09-02T08:57:30Z</time>
      </trkpt>
      <trkpt lat="46.15495" lon="-1.15072">
        <ele>2.4</ele>
        <time>2019-09-02T08:57:33Z</time>
      </trkpt>
      <trkpt lat="46.15494" lon="-1.15067">
        <ele>2.5</ele>
        <time>2019-09-02T08:57:36Z</time>
      </trkpt>
      <trkpt lat="46.15495" lon="-1.15064">
        <ele>2.6</ele>
        <time>2019-09-02T08:57:39Z</time>
      </trkpt>
      <trkpt lat="46.15496" lon="-1.15059">
        <ele>2.7</ele>
        <time>2019-09-02T08:57:42Z</time>
      </trkpt>
      <trkpt lat="46.15497" lon="-1.15055">
        <ele>2.8</ele>
        <time>2019-09-02T08:57:45Z</time>
      </trkpt>
      <trkpt lat="46.15497" lon="-1.1505">
        <ele>3</ele>
        <time>2019-09-02T08:57:48Z</time>
      </trkpt>
      <trkpt lat="46.15497" lon="-1.15044">
        <ele>3.3</ele>
        <time>2019-09-02T08:57:51Z</time>
      </trkpt>
      <trkpt lat="46.15497" lon="-1.15039">
        <ele>3.3</ele>
        <time>2019-09-02T08:57:53Z</time>
      </trkpt>
      <trkpt lat="46.15497" lon="-1.15035">
        <ele>3.3</ele>
        <time>2019-09-02T08:57:56Z</time>
      </trkpt>
      <trkpt lat="46.15497" lon="-1.1503">
        <ele>3.3</ele>
        <time>2019-09-02T08:57:59Z</time>
      </trkpt>
      <trkpt lat="46.15498" lon="-1.15026">
        <ele>3.3</ele>
        <time>2019-09-02T08:58:02Z</time>
      </trkpt>
      <trkpt lat="46.15497" lon="-1.15022">
        <ele>3.3</ele>
        <time>2019-09-02T08:58:04Z</time>
      </trkpt>
      <trkpt lat="46.15498" lon="-1.15017">
        <ele>3.3</ele>
        <time>2019-09-02T08:58:07Z</time>
      </trkpt>
      <trkpt lat="46.15498" lon="-1.15012">
        <ele>3.3</ele>
        <time>2019-09-02T08:58:09Z</time>
      </trkpt>
      <trkpt lat="46.15499" lon="-1.15007">
        <ele>3.3</ele>
        <time>2019-09-02T08:58:12Z</time>
      </trkpt>
      <trkpt lat="46.15501" lon="-1.15005">
        <ele>3.3</ele>
        <time>2019-09-02T08:58:14Z</time>
      </trkpt>
      <trkpt lat="46.15502" lon="-1.15001">
        <ele>3.3</ele>
        <time>2019-09-02T08:58:17Z</time>
      </trkpt>
      <trkpt lat="46.15503" lon="-1.14997">
        <ele>3.3</ele>
        <time>2019-09-02T08:58:20Z</time>
      </trkpt>
      <trkpt lat="46.15504" lon="-1.14992">
        <ele>3.2</ele>
        <time>2019-09-02T08:58:23Z</time>
      </trkpt>
      <trkpt lat="46.15504" lon="-1.14988">
        <ele>3.2</ele>
        <time>2019-09-02T08:58:25Z</time>
      </trkpt>
      <trkpt lat="46.15504" lon="-1.14983">
        <ele>3.2</ele>
        <time>2019-09-02T08:58:28Z</time>
      </trkpt>
      <trkpt lat="46.15504" lon="-1.14979">
        <ele>3.2</ele>
        <time>2019-09-02T08:58:30Z</time>
      </trkpt>
      <trkpt lat="46.15505" lon="-1.14973">
        <ele>3.2</ele>
        <time>2019-09-02T08:58:33Z</time>
      </trkpt>
      <trkpt lat="46.15508" lon="-1.1497">
        <ele>3.2</ele>
        <time>2019-09-02T08:58:36Z</time>
      </trkpt>
      <trkpt lat="46.1551" lon="-1.14968">
        <ele>3.2</ele>
        <time>2019-09-02T08:58:38Z</time>
      </trkpt>
      <trkpt lat="46.15514" lon="-1.14969">
        <ele>3.2</ele>
        <time>2019-09-02T08:58:41Z</time>
      </trkpt>
      <trkpt lat="46.15511" lon="-1.14967">
        <ele>3.2</ele>
        <time>2019-09-02T08:58:58Z</time>
      </trkpt>
      <trkpt lat="46.15513" lon="-1.14962">
        <ele>3.2</ele>
        <time>2019-09-02T08:59:01Z</time>
      </trkpt>
      <trkpt lat="46.15517" lon="-1.14957">
        <ele>3.2</ele>
        <time>2019-09-02T08:59:04Z</time>
      </trkpt>
      <trkpt lat="46.15516" lon="-1.1495">
        <ele>3.3</ele>
        <time>2019-09-02T08:59:10Z</time>
      </trkpt>
      <trkpt lat="46.15515" lon="-1.14947">
        <ele>3.3</ele>
        <time>2019-09-02T08:59:13Z</time>
      </trkpt>
      <trkpt lat="46.15518" lon="-1.14947">
        <ele>3.3</ele>
        <time>2019-09-02T08:59:16Z</time>
      </trkpt>
      <trkpt lat="46.15521" lon="-1.14948">
        <ele>3.3</ele>
        <time>2019-09-02T08:59:40Z</time>
      </trkpt>
      <trkpt lat="46.1552" lon="-1.14943">
        <ele>3.3</ele>
        <time>2019-09-02T08:59:51Z</time>
      </trkpt>
      <trkpt lat="46.15518" lon="-1.14941">
        <ele>3.3</ele>
        <time>2019-09-02T08:59:53Z</time>
      </trkpt>
      <trkpt lat="46.15515" lon="-1.14944">
        <ele>3.3</ele>
        <time>2019-09-02T08:59:55Z</time>
      </trkpt>
      <trkpt lat="46.15511" lon="-1.14947">
        <ele>3.3</ele>
        <time>2019-09-02T08:59:59Z</time>
      </trkpt>
      <trkpt lat="46.15508" lon="-1.14952">
        <ele>3.3</ele>
        <time>2019-09-02T09:00:01Z</time>
      </trkpt>
      <trkpt lat="46.15507" lon="-1.1496">
        <ele>3.2</ele>
        <time>2019-09-02T09:00:03Z</time>
      </trkpt>
      <trkpt lat="46.15507" lon="-1.14964">
        <ele>3.2</ele>
        <time>2019-09-02T09:00:04Z</time>
      </trkpt>
      <trkpt lat="46.15507" lon="-1.14972">
        <ele>3.2</ele>
        <time>2019-09-02T09:00:06Z</time>
      </trkpt>
      <trkpt lat="46.15508" lon="-1.14976">
        <ele>3.2</ele>
        <time>2019-09-02T09:00:07Z</time>
      </trkpt>
      <trkpt lat="46.15509" lon="-1.14981">
        <ele>3.2</ele>
        <time>2019-09-02T09:00:09Z</time>
      </trkpt>
      <trkpt lat="46.15508" lon="-1.14985">
        <ele>3.2</ele>
        <time>2019-09-02T09:00:11Z</time>
      </trkpt>
      <trkpt lat="46.15507" lon="-1.14989">
        <ele>3.2</ele>
        <time>2019-09-02T09:00:13Z</time>
      </trkpt>
      <trkpt lat="46.15506" lon="-1.14993">
        <ele>3.2</ele>
        <time>2019-09-02T09:00:15Z</time>
      </trkpt>
      <trkpt lat="46.15505" lon="-1.14998">
        <ele>3.2</ele>
        <time>2019-09-02T09:00:18Z</time>
      </trkpt>
      <trkpt lat="46.15505" lon="-1.15004">
        <ele>3.3</ele>
        <time>2019-09-02T09:00:21Z</time>
      </trkpt>
      <trkpt lat="46.15506" lon="-1.15008">
        <ele>3.3</ele>
        <time>2019-09-02T09:00:23Z</time>
      </trkpt>
      <trkpt lat="46.15505" lon="-1.15013">
        <ele>3.3</ele>
        <time>2019-09-02T09:00:27Z</time>
      </trkpt>
      <trkpt lat="46.15505" lon="-1.15017">
        <ele>3.3</ele>
        <time>2019-09-02T09:00:29Z</time>
      </trkpt>
      <trkpt lat="46.15503" lon="-1.15022">
        <ele>3.3</ele>
        <time>2019-09-02T09:00:32Z</time>
      </trkpt>
      <trkpt lat="46.15503" lon="-1.15027">
        <ele>3.3</ele>
        <time>2019-09-02T09:00:35Z</time>
      </trkpt>
      <trkpt lat="46.15502" lon="-1.15032">
        <ele>3.3</ele>
        <time>2019-09-02T09:00:38Z</time>
      </trkpt>
      <trkpt lat="46.15502" lon="-1.15037">
        <ele>3.3</ele>
        <time>2019-09-02T09:00:41Z</time>
      </trkpt>
      <trkpt lat="46.155" lon="-1.15042">
        <ele>3.3</ele>
        <time>2019-09-02T09:00:44Z</time>
      </trkpt>
      <trkpt lat="46.15498" lon="-1.15045">
        <ele>3.1</ele>
        <time>2019-09-02T09:00:46Z</time>
      </trkpt>
      <trkpt lat="46.15497" lon="-1.1505">
        <ele>2.9</ele>
        <time>2019-09-02T09:00:49Z</time>
      </trkpt>
      <trkpt lat="46.15498" lon="-1.15054">
        <ele>2.8</ele>
        <time>2019-09-02T09:00:52Z</time>
      </trkpt>
      <trkpt lat="46.15499" lon="-1.15058">
        <ele>2.7</ele>
        <time>2019-09-02T09:00:55Z</time>
      </trkpt>
      <trkpt lat="46.15498" lon="-1.15063">
        <ele>2.6</ele>
        <time>2019-09-02T09:00:58Z</time>
      </trkpt>
      <trkpt lat="46.15496" lon="-1.15068">
        <ele>2.5</ele>
        <time>2019-09-02T09:01:00Z</time>
      </trkpt>
      <trkpt lat="46.15497" lon="-1.15074">
        <ele>2.4</ele>
        <time>2019-09-02T09:01:03Z</time>
      </trkpt>
      <trkpt lat="46.15498" lon="-1.15078">
        <ele>2.4</ele>
        <time>2019-09-02T09:01:06Z</time>
      </trkpt>
      <trkpt lat="46.15497" lon="-1.15082">
        <ele>2.3</ele>
        <time>2019-09-02T09:01:08Z</time>
      </trkpt>
      <trkpt lat="46.15498" lon="-1.15087">
        <ele>2.3</ele>
        <time>2019-09-02T09:01:11Z</time>
      </trkpt>
      <trkpt lat="46.15497" lon="-1.15092">
        <ele>2.3</ele>
        <time>2019-09-02T09:01:14Z</time>
      </trkpt>
      <trkpt lat="46.15497" lon="-1.15096">
        <ele>2.3</ele>
        <time>2019-09-02T09:01:17Z</time>
      </trkpt>
      <trkpt lat="46.15496" lon="-1.15101">
        <ele>2.3</ele>
        <time>2019-09-02T09:01:20Z</time>
      </trkpt>
      <trkpt lat="46.15496" lon="-1.15106">
        <ele>2.2</ele>
        <time>2019-09-02T09:01:23Z</time>
      </trkpt>
      <trkpt lat="46.15495" lon="-1.15111">
        <ele>2.2</ele>
        <time>2019-09-02T09:01:26Z</time>
      </trkpt>
      <trkpt lat="46.15495" lon="-1.15116">
        <ele>2.2</ele>
        <time>2019-09-02T09:01:29Z</time>
      </trkpt>
      <trkpt lat="46.15495" lon="-1.15121">
        <ele>2.2</ele>
        <time>2019-09-02T09:01:32Z</time>
      </trkpt>
      <trkpt lat="46.15495" lon="-1.15125">
        <ele>2.2</ele>
        <time>2019-09-02T09:01:34Z</time>
      </trkpt>
      <trkpt lat="46.15494" lon="-1.1513">
        <ele>2.2</ele>
        <time>2019-09-02T09:01:37Z</time>
      </trkpt>
      <trkpt lat="46.15495" lon="-1.15136">
        <ele>2.2</ele>
        <time>2019-09-02T09:01:40Z</time>
      </trkpt>
      <trkpt lat="46.15494" lon="-1.1514">
        <ele>2.2</ele>
        <time>2019-09-02T09:01:43Z</time>
      </trkpt>
      <trkpt lat="46.15494" lon="-1.15145">
        <ele>2.2</ele>
        <time>2019-09-02T09:01:46Z</time>
      </trkpt>
      <trkpt lat="46.15494" lon="-1.15149">
        <ele>2.3</ele>
        <time>2019-09-02T09:01:49Z</time>
      </trkpt>
      <trkpt lat="46.15494" lon="-1.15154">
        <ele>2.3</ele>
        <time>2019-09-02T09:01:52Z</time>
      </trkpt>
      <trkpt lat="46.15493" lon="-1.15158">
        <ele>2.3</ele>
        <time>2019-09-02T09:01:54Z</time>
      </trkpt>
      <trkpt lat="46.15494" lon="-1.15162">
        <ele>2.3</ele>
        <time>2019-09-02T09:01:56Z</time>
      </trkpt>
      <trkpt lat="46.15494" lon="-1.15166">
        <ele>2.3</ele>
        <time>2019-09-02T09:01:58Z</time>
      </trkpt>
      <trkpt lat="46.15494" lon="-1.15172">
        <ele>2.3</ele>
        <time>2019-09-02T09:02:01Z</time>
      </trkpt>
      <trkpt lat="46.15494" lon="-1.15176">
        <ele>2.3</ele>
        <time>2019-09-02T09:02:04Z</time>
      </trkpt>
      <trkpt lat="46.15494" lon="-1.15181">
        <ele>2.3</ele>
        <time>2019-09-02T09:02:07Z</time>
      </trkpt>
      <trkpt lat="46.15493" lon="-1.15186">
        <ele>2.2</ele>
        <time>2019-09-02T09:02:10Z</time>
      </trkpt>
      <trkpt lat="46.15493" lon="-1.15191">
        <ele>2.2</ele>
        <time>2019-09-02T09:02:13Z</time>
      </trkpt>
      <trkpt lat="46.15493" lon="-1.15196">
        <ele>2.1</ele>
        <time>2019-09-02T09:02:16Z</time>
      </trkpt>
      <trkpt lat="46.15492" lon="-1.15201">
        <ele>2.1</ele>
        <time>2019-09-02T09:02:19Z</time>
      </trkpt>
      <trkpt lat="46.15492" lon="-1.15206">
        <ele>2.1</ele>
        <time>2019-09-02T09:02:22Z</time>
      </trkpt>
      <trkpt lat="46.15492" lon="-1.15211">
        <ele>2</ele>
        <time>2019-09-02T09:02:25Z</time>
      </trkpt>
      <trkpt lat="46.15492" lon="-1.15215">
        <ele>2</ele>
        <time>2019-09-02T09:02:28Z</time>
      </trkpt>
      <trkpt lat="46.15492" lon="-1.15219">
        <ele>2</ele>
        <time>2019-09-02T09:02:31Z</time>
      </trkpt>
      <trkpt lat="46.15491" lon="-1.15224">
        <ele>2</ele>
        <time>2019-09-02T09:02:34Z</time>
      </trkpt>
      <trkpt lat="46.1549" lon="-1.15229">
        <ele>1.9</ele>
        <time>2019-09-02T09:02:37Z</time>
      </trkpt>
      <trkpt lat="46.1549" lon="-1.15233">
        <ele>1.9</ele>
        <time>2019-09-02T09:02:40Z</time>
      </trkpt>
      <trkpt lat="46.15489" lon="-1.15238">
        <ele>1.9</ele>
        <time>2019-09-02T09:02:43Z</time>
      </trkpt>
      <trkpt lat="46.15489" lon="-1.15243">
        <ele>1.8</ele>
        <time>2019-09-02T09:02:46Z</time>
      </trkpt>
      <trkpt lat="46.1549" lon="-1.15247">
        <ele>1.8</ele>
        <time>2019-09-02T09:02:49Z</time>
      </trkpt>
      <trkpt lat="46.1549" lon="-1.15252">
        <ele>1.8</ele>
        <time>2019-09-02T09:02:52Z</time>
      </trkpt>
      <trkpt lat="46.15491" lon="-1.15256">
        <ele>1.4</ele>
        <time>2019-09-02T09:02:55Z</time>
      </trkpt>
      <trkpt lat="46.15494" lon="-1.1526">
        <ele>1.4</ele>
        <time>2019-09-02T09:02:58Z</time>
      </trkpt>
      <trkpt lat="46.15498" lon="-1.15262">
        <ele>1.4</ele>
        <time>2019-09-02T09:03:01Z</time>
      </trkpt>
      <trkpt lat="46.155" lon="-1.15264">
        <ele>1.3</ele>
        <time>2019-09-02T09:03:04Z</time>
      </trkpt>
      <trkpt lat="46.15503" lon="-1.15265">
        <ele>1.3</ele>
        <time>2019-09-02T09:03:11Z</time>
      </trkpt>
      <trkpt lat="46.15506" lon="-1.15265">
        <ele>1.3</ele>
        <time>2019-09-02T09:03:14Z</time>
      </trkpt>
      <trkpt lat="46.15509" lon="-1.15265">
        <ele>1.3</ele>
        <time>2019-09-02T09:03:16Z</time>
      </trkpt>
      <trkpt lat="46.15512" lon="-1.15265">
        <ele>1.3</ele>
        <time>2019-09-02T09:03:18Z</time>
      </trkpt>
      <trkpt lat="46.15516" lon="-1.15267">
        <ele>1.3</ele>
        <time>2019-09-02T09:03:21Z</time>
      </trkpt>
      <trkpt lat="46.15519" lon="-1.15267">
        <ele>1.3</ele>
        <time>2019-09-02T09:03:23Z</time>
      </trkpt>
      <trkpt lat="46.15523" lon="-1.15266">
        <ele>1.3</ele>
        <time>2019-09-02T09:03:26Z</time>
      </trkpt>
      <trkpt lat="46.15525" lon="-1.15265">
        <ele>1.3</ele>
        <time>2019-09-02T09:03:29Z</time>
      </trkpt>
      <trkpt lat="46.15529" lon="-1.15266">
        <ele>1.3</ele>
        <time>2019-09-02T09:03:33Z</time>
      </trkpt>
      <trkpt lat="46.15532" lon="-1.15267">
        <ele>1.2</ele>
        <time>2019-09-02T09:03:36Z</time>
      </trkpt>
      <trkpt lat="46.15536" lon="-1.15267">
        <ele>1.2</ele>
        <time>2019-09-02T09:03:39Z</time>
      </trkpt>
      <trkpt lat="46.15539" lon="-1.15267">
        <ele>1.2</ele>
        <time>2019-09-02T09:03:41Z</time>
      </trkpt>
      <trkpt lat="46.15542" lon="-1.15266">
        <ele>1.2</ele>
        <time>2019-09-02T09:03:43Z</time>
      </trkpt>
      <trkpt lat="46.15546" lon="-1.15265">
        <ele>1.2</ele>
        <time>2019-09-02T09:03:46Z</time>
      </trkpt>
      <trkpt lat="46.15549" lon="-1.15265">
        <ele>1.2</ele>
        <time>2019-09-02T09:03:48Z</time>
      </trkpt>
      <trkpt lat="46.15552" lon="-1.15267">
        <ele>1.2</ele>
        <time>2019-09-02T09:03:51Z</time>
      </trkpt>
      <trkpt lat="46.15555" lon="-1.15267">
        <ele>1.1</ele>
        <time>2019-09-02T09:03:54Z</time>
      </trkpt>
      <trkpt lat="46.15558" lon="-1.15269">
        <ele>1.1</ele>
        <time>2019-09-02T09:03:57Z</time>
      </trkpt>
      <trkpt lat="46.15561" lon="-1.15271">
        <ele>1</ele>
        <time>2019-09-02T09:04:00Z</time>
      </trkpt>
      <trkpt lat="46.15564" lon="-1.15274">
        <ele>0.9</ele>
        <time>2019-09-02T09:04:04Z</time>
      </trkpt>
      <trkpt lat="46.15568" lon="-1.15273">
        <ele>0.8</ele>
        <time>2019-09-02T09:04:07Z</time>
      </trkpt>
      <trkpt lat="46.15571" lon="-1.15274">
        <ele>0.7</ele>
        <time>2019-09-02T09:04:10Z</time>
      </trkpt>
      <trkpt lat="46.15574" lon="-1.15274">
        <ele>0.6</ele>
        <time>2019-09-02T09:04:13Z</time>
      </trkpt>
      <trkpt lat="46.15577" lon="-1.15272">
        <ele>0.6</ele>
        <time>2019-09-02T09:04:17Z</time>
      </trkpt>
      <trkpt lat="46.1558" lon="-1.15271">
        <ele>0.5</ele>
        <time>2019-09-02T09:04:25Z</time>
      </trkpt>
      <trkpt lat="46.15583" lon="-1.1527">
        <ele>0.4</ele>
        <time>2019-09-02T09:04:28Z</time>
      </trkpt>
      <trkpt lat="46.15586" lon="-1.15266">
        <ele>0.3</ele>
        <time>2019-09-02T09:04:31Z</time>
      </trkpt>
      <trkpt lat="46.15589" lon="-1.15262">
        <ele>0.3</ele>
        <time>2019-09-02T09:04:34Z</time>
      </trkpt>
      <trkpt lat="46.15592" lon="-1.15259">
        <ele>0.3</ele>
        <time>2019-09-02T09:04:37Z</time>
      </trkpt>
      <trkpt lat="46.15593" lon="-1.15255">
        <ele>0.4</ele>
        <time>2019-09-02T09:04:41Z</time>
      </trkpt>
      <trkpt lat="46.15595" lon="-1.15252">
        <ele>0.4</ele>
        <time>2019-09-02T09:04:44Z</time>
      </trkpt>
      <trkpt lat="46.15596" lon="-1.15248">
        <ele>0.4</ele>
        <time>2019-09-02T09:04:47Z</time>
      </trkpt>
      <trkpt lat="46.15598" lon="-1.15245">
        <ele>0.4</ele>
        <time>2019-09-02T09:04:50Z</time>
      </trkpt>
      <trkpt lat="46.15601" lon="-1.15242">
        <ele>0.4</ele>
        <time>2019-09-02T09:04:53Z</time>
      </trkpt>
      <trkpt lat="46.15603" lon="-1.15239">
        <ele>0.5</ele>
        <time>2019-09-02T09:04:56Z</time>
      </trkpt>
      <trkpt lat="46.15606" lon="-1.15237">
        <ele>0.5</ele>
        <time>2019-09-02T09:04:59Z</time>
      </trkpt>
      <trkpt lat="46.15608" lon="-1.15234">
        <ele>0.5</ele>
        <time>2019-09-02T09:05:02Z</time>
      </trkpt>
      <trkpt lat="46.15609" lon="-1.1523">
        <ele>0.5</ele>
        <time>2019-09-02T09:05:05Z</time>
      </trkpt>
      <trkpt lat="46.15611" lon="-1.15226">
        <ele>0.5</ele>
        <time>2019-09-02T09:05:08Z</time>
      </trkpt>
      <trkpt lat="46.15613" lon="-1.15223">
        <ele>0.6</ele>
        <time>2019-09-02T09:05:11Z</time>
      </trkpt>
      <trkpt lat="46.15615" lon="-1.1522">
        <ele>0.6</ele>
        <time>2019-09-02T09:05:14Z</time>
      </trkpt>
      <trkpt lat="46.15617" lon="-1.15216">
        <ele>0.6</ele>
        <time>2019-09-02T09:05:17Z</time>
      </trkpt>
      <trkpt lat="46.15617" lon="-1.1521">
        <ele>0.7</ele>
        <time>2019-09-02T09:05:21Z</time>
      </trkpt>
      <trkpt lat="46.15617" lon="-1.15205">
        <ele>0.7</ele>
        <time>2019-09-02T09:05:24Z</time>
      </trkpt>
      <trkpt lat="46.15617" lon="-1.152">
        <ele>0.7</ele>
        <time>2019-09-02T09:05:27Z</time>
      </trkpt>
      <trkpt lat="46.15618" lon="-1.15195">
        <ele>0.7</ele>
        <time>2019-09-02T09:05:30Z</time>
      </trkpt>
      <trkpt lat="46.15619" lon="-1.15191">
        <ele>0.7</ele>
        <time>2019-09-02T09:05:33Z</time>
      </trkpt>
      <trkpt lat="46.1562" lon="-1.15187">
        <ele>0.7</ele>
        <time>2019-09-02T09:05:36Z</time>
      </trkpt>
      <trkpt lat="46.15622" lon="-1.15183">
        <ele>0.7</ele>
        <time>2019-09-02T09:05:40Z</time>
      </trkpt>
      <trkpt lat="46.15624" lon="-1.1518">
        <ele>0.8</ele>
        <time>2019-09-02T09:05:43Z</time>
      </trkpt>
      <trkpt lat="46.15629" lon="-1.15179">
        <ele>0.8</ele>
        <time>2019-09-02T09:05:50Z</time>
      </trkpt>
      <trkpt lat="46.15632" lon="-1.1518">
        <ele>0.8</ele>
        <time>2019-09-02T09:05:53Z</time>
      </trkpt>
      <trkpt lat="46.15635" lon="-1.1518">
        <ele>0.8</ele>
        <time>2019-09-02T09:05:56Z</time>
      </trkpt>
      <trkpt lat="46.15638" lon="-1.15179">
        <ele>0.8</ele>
        <time>2019-09-02T09:05:59Z</time>
      </trkpt>
      <trkpt lat="46.15642" lon="-1.15179">
        <ele>0.8</ele>
        <time>2019-09-02T09:06:03Z</time>
      </trkpt>
      <trkpt lat="46.15645" lon="-1.15179">
        <ele>0.8</ele>
        <time>2019-09-02T09:06:07Z</time>
      </trkpt>
      <trkpt lat="46.15649" lon="-1.1518">
        <ele>0.8</ele>
        <time>2019-09-02T09:06:12Z</time>
      </trkpt>
      <trkpt lat="46.15653" lon="-1.15178">
        <ele>0.9</ele>
        <time>2019-09-02T09:06:16Z</time>
      </trkpt>
      <trkpt lat="46.15656" lon="-1.15176">
        <ele>0.9</ele>
        <time>2019-09-02T09:06:19Z</time>
      </trkpt>
      <trkpt lat="46.15659" lon="-1.15174">
        <ele>0.9</ele>
        <time>2019-09-02T09:06:22Z</time>
      </trkpt>
      <trkpt lat="46.15663" lon="-1.15172">
        <ele>0.9</ele>
        <time>2019-09-02T09:06:25Z</time>
      </trkpt>
      <trkpt lat="46.15665" lon="-1.1517">
        <ele>0.9</ele>
        <time>2019-09-02T09:06:28Z</time>
      </trkpt>
      <trkpt lat="46.15668" lon="-1.15167">
        <ele>1</ele>
        <time>2019-09-02T09:06:31Z</time>
      </trkpt>
      <trkpt lat="46.15671" lon="-1.15165">
        <ele>1</ele>
        <time>2019-09-02T09:06:34Z</time>
      </trkpt>
      <trkpt lat="46.15674" lon="-1.15164">
        <ele>1</ele>
        <time>2019-09-02T09:06:37Z</time>
      </trkpt>
      <trkpt lat="46.15677" lon="-1.15161">
        <ele>1</ele>
        <time>2019-09-02T09:06:40Z</time>
      </trkpt>
      <trkpt lat="46.1568" lon="-1.15159">
        <ele>1</ele>
        <time>2019-09-02T09:06:43Z</time>
      </trkpt>
      <trkpt lat="46.15682" lon="-1.15156">
        <ele>1</ele>
        <time>2019-09-02T09:06:46Z</time>
      </trkpt>
      <trkpt lat="46.15685" lon="-1.15155">
        <ele>1</ele>
        <time>2019-09-02T09:06:49Z</time>
      </trkpt>
      <trkpt lat="46.15688" lon="-1.15152">
        <ele>1</ele>
        <time>2019-09-02T09:06:52Z</time>
      </trkpt>
      <trkpt lat="46.1569" lon="-1.1515">
        <ele>1</ele>
        <time>2019-09-02T09:06:55Z</time>
      </trkpt>
      <trkpt lat="46.15693" lon="-1.15147">
        <ele>1</ele>
        <time>2019-09-02T09:06:59Z</time>
      </trkpt>
      <trkpt lat="46.15696" lon="-1.15143">
        <ele>1</ele>
        <time>2019-09-02T09:07:02Z</time>
      </trkpt>
      <trkpt lat="46.157" lon="-1.15141">
        <ele>1</ele>
        <time>2019-09-02T09:07:06Z</time>
      </trkpt>
      <trkpt lat="46.15702" lon="-1.15138">
        <ele>1</ele>
        <time>2019-09-02T09:07:09Z</time>
      </trkpt>
      <trkpt lat="46.15704" lon="-1.15135">
        <ele>1</ele>
        <time>2019-09-02T09:07:13Z</time>
      </trkpt>
      <trkpt lat="46.15707" lon="-1.15133">
        <ele>1.2</ele>
        <time>2019-09-02T09:07:26Z</time>
      </trkpt>
      <trkpt lat="46.15708" lon="-1.15129">
        <ele>1.4</ele>
        <time>2019-09-02T09:07:34Z</time>
      </trkpt>
      <trkpt lat="46.15708" lon="-1.15124">
        <ele>1.6</ele>
        <time>2019-09-02T09:07:38Z</time>
      </trkpt>
      <trkpt lat="46.15709" lon="-1.15119">
        <ele>1.8</ele>
        <time>2019-09-02T09:07:42Z</time>
      </trkpt>
      <trkpt lat="46.15709" lon="-1.15114">
        <ele>2</ele>
        <time>2019-09-02T09:07:45Z</time>
      </trkpt>
      <trkpt lat="46.15708" lon="-1.1511">
        <ele>2.1</ele>
        <time>2019-09-02T09:07:48Z</time>
      </trkpt>
      <trkpt lat="46.15708" lon="-1.15106">
        <ele>2.3</ele>
        <time>2019-09-02T09:07:51Z</time>
      </trkpt>
      <trkpt lat="46.15709" lon="-1.15101">
        <ele>2.5</ele>
        <time>2019-09-02T09:07:54Z</time>
      </trkpt>
      <trkpt lat="46.1571" lon="-1.15096">
        <ele>2.8</ele>
        <time>2019-09-02T09:07:57Z</time>
      </trkpt>
      <trkpt lat="46.1571" lon="-1.1509">
        <ele>2.9</ele>
        <time>2019-09-02T09:08:00Z</time>
      </trkpt>
      <trkpt lat="46.15709" lon="-1.15086">
        <ele>3.1</ele>
        <time>2019-09-02T09:08:03Z</time>
      </trkpt>
      <trkpt lat="46.15708" lon="-1.15081">
        <ele>3.2</ele>
        <time>2019-09-02T09:08:06Z</time>
      </trkpt>
      <trkpt lat="46.15709" lon="-1.15076">
        <ele>3.4</ele>
        <time>2019-09-02T09:08:09Z</time>
      </trkpt>
      <trkpt lat="46.15709" lon="-1.15072">
        <ele>3.5</ele>
        <time>2019-09-02T09:08:11Z</time>
      </trkpt>
      <trkpt lat="46.15708" lon="-1.15067">
        <ele>3.7</ele>
        <time>2019-09-02T09:08:14Z</time>
      </trkpt>
      <trkpt lat="46.15709" lon="-1.15063">
        <ele>3.8</ele>
        <time>2019-09-02T09:08:17Z</time>
      </trkpt>
      <trkpt lat="46.15708" lon="-1.15058">
        <ele>3.9</ele>
        <time>2019-09-02T09:08:20Z</time>
      </trkpt>
      <trkpt lat="46.15708" lon="-1.15054">
        <ele>4</ele>
        <time>2019-09-02T09:08:23Z</time>
      </trkpt>
      <trkpt lat="46.15707" lon="-1.15048">
        <ele>4.2</ele>
        <time>2019-09-02T09:08:27Z</time>
      </trkpt>
      <trkpt lat="46.15708" lon="-1.15044">
        <ele>4.3</ele>
        <time>2019-09-02T09:08:30Z</time>
      </trkpt>
      <trkpt lat="46.15708" lon="-1.15039">
        <ele>4.4</ele>
        <time>2019-09-02T09:08:33Z</time>
      </trkpt>
      <trkpt lat="46.15709" lon="-1.15035">
        <ele>4.5</ele>
        <time>2019-09-02T09:08:36Z</time>
      </trkpt>
      <trkpt lat="46.15711" lon="-1.1503">
        <ele>4.6</ele>
        <time>2019-09-02T09:08:39Z</time>
      </trkpt>
      <trkpt lat="46.15713" lon="-1.15026">
        <ele>4.8</ele>
        <time>2019-09-02T09:08:42Z</time>
      </trkpt>
      <trkpt lat="46.15716" lon="-1.15023">
        <ele>4.9</ele>
        <time>2019-09-02T09:08:48Z</time>
      </trkpt>
      <trkpt lat="46.15719" lon="-1.15021">
        <ele>5.3</ele>
        <time>2019-09-02T09:08:51Z</time>
      </trkpt>
      <trkpt lat="46.15723" lon="-1.15024">
        <ele>5.3</ele>
        <time>2019-09-02T09:08:54Z</time>
      </trkpt>
      <trkpt lat="46.15725" lon="-1.15026">
        <ele>5.3</ele>
        <time>2019-09-02T09:08:56Z</time>
      </trkpt>
      <trkpt lat="46.15728" lon="-1.15028">
        <ele>5.3</ele>
        <time>2019-09-02T09:08:59Z</time>
      </trkpt>
      <trkpt lat="46.15732" lon="-1.15029">
        <ele>5.3</ele>
        <time>2019-09-02T09:09:03Z</time>
      </trkpt>
      <trkpt lat="46.15735" lon="-1.1503">
        <ele>5.3</ele>
        <time>2019-09-02T09:09:06Z</time>
      </trkpt>
      <trkpt lat="46.15738" lon="-1.15033">
        <ele>5.2</ele>
        <time>2019-09-02T09:09:09Z</time>
      </trkpt>
      <trkpt lat="46.15741" lon="-1.15035">
        <ele>5.2</ele>
        <time>2019-09-02T09:09:12Z</time>
      </trkpt>
      <trkpt lat="46.15744" lon="-1.15036">
        <ele>5.2</ele>
        <time>2019-09-02T09:09:15Z</time>
      </trkpt>
      <trkpt lat="46.15747" lon="-1.15038">
        <ele>5.3</ele>
        <time>2019-09-02T09:09:18Z</time>
      </trkpt>
      <trkpt lat="46.15751" lon="-1.15039">
        <ele>5.3</ele>
        <time>2019-09-02T09:09:21Z</time>
      </trkpt>
      <trkpt lat="46.15753" lon="-1.15041">
        <ele>5.4</ele>
        <time>2019-09-02T09:09:23Z</time>
      </trkpt>
      <trkpt lat="46.15756" lon="-1.15042">
        <ele>5.4</ele>
        <time>2019-09-02T09:09:26Z</time>
      </trkpt>
      <trkpt lat="46.15759" lon="-1.15044">
        <ele>5.5</ele>
        <time>2019-09-02T09:09:29Z</time>
      </trkpt>
      <trkpt lat="46.15762" lon="-1.15046">
        <ele>5.5</ele>
        <time>2019-09-02T09:09:32Z</time>
      </trkpt>
      <trkpt lat="46.15766" lon="-1.15048">
        <ele>5.5</ele>
        <time>2019-09-02T09:09:35Z</time>
      </trkpt>
      <trkpt lat="46.15769" lon="-1.15049">
        <ele>5.6</ele>
        <time>2019-09-02T09:09:37Z</time>
      </trkpt>
      <trkpt lat="46.15772" lon="-1.15049">
        <ele>5.6</ele>
        <time>2019-09-02T09:09:39Z</time>
      </trkpt>
      <trkpt lat="46.15775" lon="-1.1505">
        <ele>5.6</ele>
        <time>2019-09-02T09:09:42Z</time>
      </trkpt>
      <trkpt lat="46.15778" lon="-1.15054">
        <ele>5.7</ele>
        <time>2019-09-02T09:09:48Z</time>
      </trkpt>
      <trkpt lat="46.1578" lon="-1.15058">
        <ele>5.7</ele>
        <time>2019-09-02T09:09:51Z</time>
      </trkpt>
      <trkpt lat="46.15782" lon="-1.15061">
        <ele>5.8</ele>
        <time>2019-09-02T09:09:54Z</time>
      </trkpt>
      <trkpt lat="46.15782" lon="-1.15065">
        <ele>5.8</ele>
        <time>2019-09-02T09:09:57Z</time>
      </trkpt>
      <trkpt lat="46.15783" lon="-1.1507">
        <ele>5.9</ele>
        <time>2019-09-02T09:10:00Z</time>
      </trkpt>
      <trkpt lat="46.15785" lon="-1.15072">
        <ele>6</ele>
        <time>2019-09-02T09:10:04Z</time>
      </trkpt>
      <trkpt lat="46.15788" lon="-1.15075">
        <ele>5.7</ele>
        <time>2019-09-02T09:10:10Z</time>
      </trkpt>
      <trkpt lat="46.1579" lon="-1.15074">
        <ele>5.6</ele>
        <time>2019-09-02T09:10:13Z</time>
      </trkpt>
      <trkpt lat="46.15793" lon="-1.15076">
        <ele>5.4</ele>
        <time>2019-09-02T09:10:17Z</time>
      </trkpt>
      <trkpt lat="46.15795" lon="-1.15079">
        <ele>5.3</ele>
        <time>2019-09-02T09:10:22Z</time>
      </trkpt>
      <trkpt lat="46.15798" lon="-1.15083">
        <ele>5.3</ele>
        <time>2019-09-02T09:10:29Z</time>
      </trkpt>
      <trkpt lat="46.158" lon="-1.15085">
        <ele>5.2</ele>
        <time>2019-09-02T09:10:33Z</time>
      </trkpt>
      <trkpt lat="46.15802" lon="-1.15089">
        <ele>5.2</ele>
        <time>2019-09-02T09:10:36Z</time>
      </trkpt>
      <trkpt lat="46.15804" lon="-1.15092">
        <ele>5.1</ele>
        <time>2019-09-02T09:10:40Z</time>
      </trkpt>
      <trkpt lat="46.15805" lon="-1.15097">
        <ele>5.1</ele>
        <time>2019-09-02T09:10:43Z</time>
      </trkpt>
      <trkpt lat="46.15807" lon="-1.151">
        <ele>5.1</ele>
        <time>2019-09-02T09:10:46Z</time>
      </trkpt>
      <trkpt lat="46.15808" lon="-1.15105">
        <ele>5</ele>
        <time>2019-09-02T09:10:49Z</time>
      </trkpt>
      <trkpt lat="46.15806" lon="-1.15108">
        <ele>5</ele>
        <time>2019-09-02T09:10:53Z</time>
      </trkpt>
      <trkpt lat="46.15807" lon="-1.15112">
        <ele>4.9</ele>
        <time>2019-09-02T09:11:10Z</time>
      </trkpt>
      <trkpt lat="46.15809" lon="-1.15116">
        <ele>4.9</ele>
        <time>2019-09-02T09:11:13Z</time>
      </trkpt>
      <trkpt lat="46.15811" lon="-1.15121">
        <ele>4.8</ele>
        <time>2019-09-02T09:11:16Z</time>
      </trkpt>
      <trkpt lat="46.15812" lon="-1.15125">
        <ele>4.8</ele>
        <time>2019-09-02T09:11:18Z</time>
      </trkpt>
      <trkpt lat="46.15813" lon="-1.15129">
        <ele>4.7</ele>
        <time>2019-09-02T09:11:21Z</time>
      </trkpt>
      <trkpt lat="46.15814" lon="-1.15134">
        <ele>4.7</ele>
        <time>2019-09-02T09:11:24Z</time>
      </trkpt>
      <trkpt lat="46.15815" lon="-1.15138">
        <ele>4.6</ele>
        <time>2019-09-02T09:11:27Z</time>
      </trkpt>
      <trkpt lat="46.15816" lon="-1.15143">
        <ele>4.6</ele>
        <time>2019-09-02T09:11:30Z</time>
      </trkpt>
      <trkpt lat="46.15815" lon="-1.15147">
        <ele>4.5</ele>
        <time>2019-09-02T09:11:32Z</time>
      </trkpt>
      <trkpt lat="46.15816" lon="-1.15152">
        <ele>4.5</ele>
        <time>2019-09-02T09:11:35Z</time>
      </trkpt>
      <trkpt lat="46.15815" lon="-1.15157">
        <ele>4.4</ele>
        <time>2019-09-02T09:11:38Z</time>
      </trkpt>
      <trkpt lat="46.15814" lon="-1.15161">
        <ele>4.4</ele>
        <time>2019-09-02T09:11:41Z</time>
      </trkpt>
      <trkpt lat="46.15814" lon="-1.15166">
        <ele>4.3</ele>
        <time>2019-09-02T09:11:44Z</time>
      </trkpt>
      <trkpt lat="46.15814" lon="-1.1517">
        <ele>4.2</ele>
        <time>2019-09-02T09:11:47Z</time>
      </trkpt>
      <trkpt lat="46.15814" lon="-1.15175">
        <ele>4.5</ele>
        <time>2019-09-02T09:11:51Z</time>
      </trkpt>
      <trkpt lat="46.15813" lon="-1.1518">
        <ele>4.9</ele>
        <time>2019-09-02T09:11:54Z</time>
      </trkpt>
      <trkpt lat="46.15812" lon="-1.15184">
        <ele>5.3</ele>
        <time>2019-09-02T09:11:57Z</time>
      </trkpt>
      <trkpt lat="46.15813" lon="-1.15187">
        <ele>7.1</ele>
        <time>2019-09-02T09:12:00Z</time>
      </trkpt>
      <trkpt lat="46.15813" lon="-1.15192">
        <ele>7.1</ele>
        <time>2019-09-02T09:12:03Z</time>
      </trkpt>
      <trkpt lat="46.15813" lon="-1.15196">
        <ele>7.2</ele>
        <time>2019-09-02T09:12:05Z</time>
      </trkpt>
      <trkpt lat="46.15813" lon="-1.15201">
        <ele>7.2</ele>
        <time>2019-09-02T09:12:08Z</time>
      </trkpt>
      <trkpt lat="46.15814" lon="-1.15205">
        <ele>7.2</ele>
        <time>2019-09-02T09:12:11Z</time>
      </trkpt>
      <trkpt lat="46.15815" lon="-1.1521">
        <ele>7.2</ele>
        <time>2019-09-02T09:12:14Z</time>
      </trkpt>
      <trkpt lat="46.15816" lon="-1.15214">
        <ele>7.3</ele>
        <time>2019-09-02T09:12:16Z</time>
      </trkpt>
      <trkpt lat="46.15817" lon="-1.15218">
        <ele>7.3</ele>
        <time>2019-09-02T09:12:19Z</time>
      </trkpt>
      <trkpt lat="46.15816" lon="-1.15223">
        <ele>7.3</ele>
        <time>2019-09-02T09:12:22Z</time>
      </trkpt>
      <trkpt lat="46.15815" lon="-1.15227">
        <ele>7.4</ele>
        <time>2019-09-02T09:12:25Z</time>
      </trkpt>
      <trkpt lat="46.15815" lon="-1.15233">
        <ele>7.4</ele>
        <time>2019-09-02T09:12:28Z</time>
      </trkpt>
      <trkpt lat="46.15815" lon="-1.15237">
        <ele>7.5</ele>
        <time>2019-09-02T09:12:31Z</time>
      </trkpt>
      <trkpt lat="46.15816" lon="-1.15241">
        <ele>7.5</ele>
        <time>2019-09-02T09:12:34Z</time>
      </trkpt>
      <trkpt lat="46.15817" lon="-1.15246">
        <ele>7.5</ele>
        <time>2019-09-02T09:12:36Z</time>
      </trkpt>
      <trkpt lat="46.15817" lon="-1.1525">
        <ele>7.5</ele>
        <time>2019-09-02T09:12:38Z</time>
      </trkpt>
      <trkpt lat="46.15818" lon="-1.15255">
        <ele>7.6</ele>
        <time>2019-09-02T09:12:41Z</time>
      </trkpt>
      <trkpt lat="46.15818" lon="-1.15259">
        <ele>7.6</ele>
        <time>2019-09-02T09:12:44Z</time>
      </trkpt>
      <trkpt lat="46.15818" lon="-1.15263">
        <ele>7.6</ele>
        <time>2019-09-02T09:12:47Z</time>
      </trkpt>
      <trkpt lat="46.15818" lon="-1.15267">
        <ele>7.7</ele>
        <time>2019-09-02T09:12:50Z</time>
      </trkpt>
      <trkpt lat="46.15817" lon="-1.15273">
        <ele>7.7</ele>
        <time>2019-09-02T09:12:53Z</time>
      </trkpt>
      <trkpt lat="46.15815" lon="-1.15277">
        <ele>7.7</ele>
        <time>2019-09-02T09:12:56Z</time>
      </trkpt>
      <trkpt lat="46.15814" lon="-1.15282">
        <ele>7.8</ele>
        <time>2019-09-02T09:12:59Z</time>
      </trkpt>
      <trkpt lat="46.15813" lon="-1.15286">
        <ele>7.6</ele>
        <time>2019-09-02T09:13:02Z</time>
      </trkpt>
      <trkpt lat="46.15811" lon="-1.15289">
        <ele>7.6</ele>
        <time>2019-09-02T09:13:05Z</time>
      </trkpt>
      <trkpt lat="46.1581" lon="-1.15292">
        <ele>7.6</ele>
        <time>2019-09-02T09:13:08Z</time>
      </trkpt>
      <trkpt lat="46.15808" lon="-1.15295">
        <ele>7.5</ele>
        <time>2019-09-02T09:13:12Z</time>
      </trkpt>
      <trkpt lat="46.15805" lon="-1.15299">
        <ele>7.5</ele>
        <time>2019-09-02T09:13:15Z</time>
      </trkpt>
      <trkpt lat="46.15803" lon="-1.15304">
        <ele>7.5</ele>
        <time>2019-09-02T09:13:18Z</time>
      </trkpt>
      <trkpt lat="46.15803" lon="-1.15308">
        <ele>7.5</ele>
        <time>2019-09-02T09:13:20Z</time>
      </trkpt>
      <trkpt lat="46.15802" lon="-1.15312">
        <ele>7.4</ele>
        <time>2019-09-02T09:13:23Z</time>
      </trkpt>
      <trkpt lat="46.15803" lon="-1.15318">
        <ele>7.4</ele>
        <time>2019-09-02T09:13:29Z</time>
      </trkpt>
      <trkpt lat="46.15803" lon="-1.15322">
        <ele>7.4</ele>
        <time>2019-09-02T09:13:33Z</time>
      </trkpt>
      <trkpt lat="46.15804" lon="-1.15326">
        <ele>7.4</ele>
        <time>2019-09-02T09:13:36Z</time>
      </trkpt>
      <trkpt lat="46.15804" lon="-1.1533">
        <ele>7.5</ele>
        <time>2019-09-02T09:13:39Z</time>
      </trkpt>
      <trkpt lat="46.15802" lon="-1.15334">
        <ele>7.6</ele>
        <time>2019-09-02T09:13:43Z</time>
      </trkpt>
      <trkpt lat="46.15802" lon="-1.15338">
        <ele>7.7</ele>
        <time>2019-09-02T09:13:47Z</time>
      </trkpt>
      <trkpt lat="46.15801" lon="-1.15342">
        <ele>7.8</ele>
        <time>2019-09-02T09:13:51Z</time>
      </trkpt>
      <trkpt lat="46.15804" lon="-1.15345">
        <ele>8</ele>
        <time>2019-09-02T09:14:00Z</time>
      </trkpt>
      <trkpt lat="46.15805" lon="-1.15349">
        <ele>8.1</ele>
        <time>2019-09-02T09:14:06Z</time>
      </trkpt>
      <trkpt lat="46.15805" lon="-1.15353">
        <ele>8.2</ele>
        <time>2019-09-02T09:14:10Z</time>
      </trkpt>
      <trkpt lat="46.15805" lon="-1.15357">
        <ele>8.3</ele>
        <time>2019-09-02T09:14:13Z</time>
      </trkpt>
      <trkpt lat="46.15806" lon="-1.15362">
        <ele>8.4</ele>
        <time>2019-09-02T09:14:18Z</time>
      </trkpt>
      <trkpt lat="46.15802" lon="-1.15361">
        <ele>8.6</ele>
        <time>2019-09-02T09:14:33Z</time>
      </trkpt>
      <trkpt lat="46.15799" lon="-1.1536">
        <ele>8.5</ele>
        <time>2019-09-02T09:14:35Z</time>
      </trkpt>
      <trkpt lat="46.15796" lon="-1.15359">
        <ele>8.4</ele>
        <time>2019-09-02T09:14:37Z</time>
      </trkpt>
      <trkpt lat="46.15793" lon="-1.15356">
        <ele>8.3</ele>
        <time>2019-09-02T09:14:40Z</time>
      </trkpt>
      <trkpt lat="46.15789" lon="-1.15353">
        <ele>8.1</ele>
        <time>2019-09-02T09:14:43Z</time>
      </trkpt>
      <trkpt lat="46.15786" lon="-1.15351">
        <ele>8</ele>
        <time>2019-09-02T09:14:46Z</time>
      </trkpt>
      <trkpt lat="46.15783" lon="-1.15349">
        <ele>8</ele>
        <time>2019-09-02T09:14:49Z</time>
      </trkpt>
      <trkpt lat="46.1578" lon="-1.15348">
        <ele>7.9</ele>
        <time>2019-09-02T09:14:52Z</time>
      </trkpt>
      <trkpt lat="46.15777" lon="-1.15348">
        <ele>7.9</ele>
        <time>2019-09-02T09:14:56Z</time>
      </trkpt>
      <trkpt lat="46.15775" lon="-1.1535">
        <ele>7.8</ele>
        <time>2019-09-02T09:14:59Z</time>
      </trkpt>
      <trkpt lat="46.15772" lon="-1.15352">
        <ele>7.8</ele>
        <time>2019-09-02T09:15:02Z</time>
      </trkpt>
      <trkpt lat="46.15769" lon="-1.15352">
        <ele>7.8</ele>
        <time>2019-09-02T09:15:05Z</time>
      </trkpt>
      <trkpt lat="46.15767" lon="-1.15351">
        <ele>7.8</ele>
        <time>2019-09-02T09:15:07Z</time>
      </trkpt>
      <trkpt lat="46.15763" lon="-1.15351">
        <ele>7.8</ele>
        <time>2019-09-02T09:15:12Z</time>
      </trkpt>
      <trkpt lat="46.1576" lon="-1.15354">
        <ele>7.8</ele>
        <time>2019-09-02T09:15:15Z</time>
      </trkpt>
      <trkpt lat="46.15758" lon="-1.15356">
        <ele>7.8</ele>
        <time>2019-09-02T09:15:18Z</time>
      </trkpt>
      <trkpt lat="46.15755" lon="-1.15359">
        <ele>7.8</ele>
        <time>2019-09-02T09:15:21Z</time>
      </trkpt>
      <trkpt lat="46.15753" lon="-1.15362">
        <ele>7.9</ele>
        <time>2019-09-02T09:15:24Z</time>
      </trkpt>
      <trkpt lat="46.1575" lon="-1.15365">
        <ele>7.9</ele>
        <time>2019-09-02T09:15:31Z</time>
      </trkpt>
      <trkpt lat="46.15747" lon="-1.15367">
        <ele>7.9</ele>
        <time>2019-09-02T09:15:34Z</time>
      </trkpt>
      <trkpt lat="46.15744" lon="-1.15368">
        <ele>7.9</ele>
        <time>2019-09-02T09:15:37Z</time>
      </trkpt>
      <trkpt lat="46.15741" lon="-1.1537">
        <ele>7.9</ele>
        <time>2019-09-02T09:15:40Z</time>
      </trkpt>
      <trkpt lat="46.15737" lon="-1.1537">
        <ele>7.9</ele>
        <time>2019-09-02T09:15:43Z</time>
      </trkpt>
      <trkpt lat="46.15734" lon="-1.15371">
        <ele>8</ele>
        <time>2019-09-02T09:15:47Z</time>
      </trkpt>
      <trkpt lat="46.1573" lon="-1.15371">
        <ele>8</ele>
        <time>2019-09-02T09:15:51Z</time>
      </trkpt>
      <trkpt lat="46.15728" lon="-1.15372">
        <ele>8</ele>
        <time>2019-09-02T09:15:55Z</time>
      </trkpt>
      <trkpt lat="46.15725" lon="-1.15376">
        <ele>8</ele>
        <time>2019-09-02T09:15:59Z</time>
      </trkpt>
      <trkpt lat="46.15722" lon="-1.15378">
        <ele>8</ele>
        <time>2019-09-02T09:16:02Z</time>
      </trkpt>
      <trkpt lat="46.15719" lon="-1.15381">
        <ele>8</ele>
        <time>2019-09-02T09:16:05Z</time>
      </trkpt>
      <trkpt lat="46.15717" lon="-1.15384">
        <ele>8.1</ele>
        <time>2019-09-02T09:16:09Z</time>
      </trkpt>
      <trkpt lat="46.15715" lon="-1.15386">
        <ele>8.1</ele>
        <time>2019-09-02T09:16:11Z</time>
      </trkpt>
      <trkpt lat="46.15712" lon="-1.15388">
        <ele>8.1</ele>
        <time>2019-09-02T09:16:13Z</time>
      </trkpt>
      <trkpt lat="46.1571" lon="-1.1539">
        <ele>8.1</ele>
        <time>2019-09-02T09:16:15Z</time>
      </trkpt>
      <trkpt lat="46.15707" lon="-1.15394">
        <ele>8.1</ele>
        <time>2019-09-02T09:16:18Z</time>
      </trkpt>
      <trkpt lat="46.15704" lon="-1.15396">
        <ele>8.1</ele>
        <time>2019-09-02T09:16:21Z</time>
      </trkpt>
      <trkpt lat="46.157" lon="-1.15397">
        <ele>8.1</ele>
        <time>2019-09-02T09:16:25Z</time>
      </trkpt>
      <trkpt lat="46.15698" lon="-1.15398">
        <ele>8.2</ele>
        <time>2019-09-02T09:16:28Z</time>
      </trkpt>
      <trkpt lat="46.15694" lon="-1.154">
        <ele>8.2</ele>
        <time>2019-09-02T09:16:31Z</time>
      </trkpt>
      <trkpt lat="46.15691" lon="-1.15402">
        <ele>8.2</ele>
        <time>2019-09-02T09:16:34Z</time>
      </trkpt>
      <trkpt lat="46.15688" lon="-1.15404">
        <ele>8.2</ele>
        <time>2019-09-02T09:16:37Z</time>
      </trkpt>
      <trkpt lat="46.15686" lon="-1.15409">
        <ele>8.3</ele>
        <time>2019-09-02T09:16:40Z</time>
      </trkpt>
      <trkpt lat="46.15685" lon="-1.15413">
        <ele>8.3</ele>
        <time>2019-09-02T09:16:42Z</time>
      </trkpt>
      <trkpt lat="46.15684" lon="-1.15417">
        <ele>8.4</ele>
        <time>2019-09-02T09:16:45Z</time>
      </trkpt>
      <trkpt lat="46.15682" lon="-1.15421">
        <ele>8.5</ele>
        <time>2019-09-02T09:16:48Z</time>
      </trkpt>
      <trkpt lat="46.15678" lon="-1.15424">
        <ele>8.6</ele>
        <time>2019-09-02T09:16:53Z</time>
      </trkpt>
      <trkpt lat="46.15675" lon="-1.15425">
        <ele>8.7</ele>
        <time>2019-09-02T09:16:56Z</time>
      </trkpt>
      <trkpt lat="46.15671" lon="-1.15427">
        <ele>8.8</ele>
        <time>2019-09-02T09:16:59Z</time>
      </trkpt>
      <trkpt lat="46.15669" lon="-1.15427">
        <ele>9.1</ele>
        <time>2019-09-02T09:17:02Z</time>
      </trkpt>
      <trkpt lat="46.15665" lon="-1.15429">
        <ele>9.1</ele>
        <time>2019-09-02T09:17:06Z</time>
      </trkpt>
      <trkpt lat="46.15662" lon="-1.15431">
        <ele>9.1</ele>
        <time>2019-09-02T09:17:12Z</time>
      </trkpt>
      <trkpt lat="46.15659" lon="-1.1543">
        <ele>9.1</ele>
        <time>2019-09-02T09:17:46Z</time>
      </trkpt>
      <trkpt lat="46.15659" lon="-1.15434">
        <ele>9</ele>
        <time>2019-09-02T09:18:00Z</time>
      </trkpt>
      <trkpt lat="46.15656" lon="-1.15433">
        <ele>9</ele>
        <time>2019-09-02T09:18:07Z</time>
      </trkpt>
      <trkpt lat="46.15654" lon="-1.15428">
        <ele>9</ele>
        <time>2019-09-02T09:18:10Z</time>
      </trkpt>
      <trkpt lat="46.15651" lon="-1.15426">
        <ele>9</ele>
        <time>2019-09-02T09:18:12Z</time>
      </trkpt>
      <trkpt lat="46.15648" lon="-1.15423">
        <ele>9</ele>
        <time>2019-09-02T09:18:15Z</time>
      </trkpt>
      <trkpt lat="46.15647" lon="-1.1542">
        <ele>7.8</ele>
        <time>2019-09-02T09:18:18Z</time>
      </trkpt>
      <trkpt lat="46.15643" lon="-1.15418">
        <ele>7.8</ele>
        <time>2019-09-02T09:18:21Z</time>
      </trkpt>
      <trkpt lat="46.1564" lon="-1.15418">
        <ele>7.8</ele>
        <time>2019-09-02T09:18:24Z</time>
      </trkpt>
      <trkpt lat="46.15637" lon="-1.15416">
        <ele>7.8</ele>
        <time>2019-09-02T09:18:27Z</time>
      </trkpt>
      <trkpt lat="46.15635" lon="-1.15417">
        <ele>7.8</ele>
        <time>2019-09-02T09:18:31Z</time>
      </trkpt>
      <trkpt lat="46.15632" lon="-1.15419">
        <ele>7.8</ele>
        <time>2019-09-02T09:18:34Z</time>
      </trkpt>
      <trkpt lat="46.15629" lon="-1.15421">
        <ele>7.7</ele>
        <time>2019-09-02T09:18:38Z</time>
      </trkpt>
      <trkpt lat="46.15626" lon="-1.15423">
        <ele>7.5</ele>
        <time>2019-09-02T09:18:42Z</time>
      </trkpt>
      <trkpt lat="46.15624" lon="-1.15424">
        <ele>7.4</ele>
        <time>2019-09-02T09:18:44Z</time>
      </trkpt>
      <trkpt lat="46.15621" lon="-1.15425">
        <ele>7.3</ele>
        <time>2019-09-02T09:18:47Z</time>
      </trkpt>
      <trkpt lat="46.15617" lon="-1.15426">
        <ele>7.1</ele>
        <time>2019-09-02T09:18:52Z</time>
      </trkpt>
      <trkpt lat="46.15612" lon="-1.15427">
        <ele>7</ele>
        <time>2019-09-02T09:18:58Z</time>
      </trkpt>
      <trkpt lat="46.1561" lon="-1.1543">
        <ele>6.8</ele>
        <time>2019-09-02T09:19:01Z</time>
      </trkpt>
      <trkpt lat="46.15608" lon="-1.15432">
        <ele>6.7</ele>
        <time>2019-09-02T09:19:05Z</time>
      </trkpt>
      <trkpt lat="46.15604" lon="-1.15432">
        <ele>6.6</ele>
        <time>2019-09-02T09:19:23Z</time>
      </trkpt>
      <trkpt lat="46.15601" lon="-1.15432">
        <ele>6.4</ele>
        <time>2019-09-02T09:19:26Z</time>
      </trkpt>
      <trkpt lat="46.15598" lon="-1.15432">
        <ele>6.4</ele>
        <time>2019-09-02T09:19:29Z</time>
      </trkpt>
      <trkpt lat="46.15595" lon="-1.15432">
        <ele>6.3</ele>
        <time>2019-09-02T09:19:32Z</time>
      </trkpt>
      <trkpt lat="46.15592" lon="-1.15431">
        <ele>6.2</ele>
        <time>2019-09-02T09:19:36Z</time>
      </trkpt>
      <trkpt lat="46.15589" lon="-1.15433">
        <ele>6.2</ele>
        <time>2019-09-02T09:19:41Z</time>
      </trkpt>
      <trkpt lat="46.15585" lon="-1.15433">
        <ele>6.1</ele>
        <time>2019-09-02T09:19:44Z</time>
      </trkpt>
      <trkpt lat="46.15583" lon="-1.15431">
        <ele>6</ele>
        <time>2019-09-02T09:19:46Z</time>
      </trkpt>
      <trkpt lat="46.1558" lon="-1.1543">
        <ele>6</ele>
        <time>2019-09-02T09:19:48Z</time>
      </trkpt>
      <trkpt lat="46.15577" lon="-1.1543">
        <ele>5.9</ele>
        <time>2019-09-02T09:19:52Z</time>
      </trkpt>
      <trkpt lat="46.1558" lon="-1.15428">
        <ele>5.8</ele>
        <time>2019-09-02T09:19:58Z</time>
      </trkpt>
      <trkpt lat="46.15582" lon="-1.15433">
        <ele>5.8</ele>
        <time>2019-09-02T09:20:03Z</time>
      </trkpt>
      <trkpt lat="46.15583" lon="-1.15436">
        <ele>5.7</ele>
        <time>2019-09-02T09:20:08Z</time>
      </trkpt>
      <trkpt lat="46.15583" lon="-1.1544">
        <ele>6.5</ele>
        <time>2019-09-02T09:20:14Z</time>
      </trkpt>
      <trkpt lat="46.15583" lon="-1.15445">
        <ele>7</ele>
        <time>2019-09-02T09:20:19Z</time>
      </trkpt>
      <trkpt lat="46.15582" lon="-1.15449">
        <ele>7.4</ele>
        <time>2019-09-02T09:20:26Z</time>
      </trkpt>
      <trkpt lat="46.15581" lon="-1.15446">
        <ele>7.8</ele>
        <time>2019-09-02T09:20:43Z</time>
      </trkpt>
      <trkpt lat="46.15581" lon="-1.1545">
        <ele>8.1</ele>
        <time>2019-09-02T09:20:52Z</time>
      </trkpt>
      <trkpt lat="46.15583" lon="-1.15453">
        <ele>8.4</ele>
        <time>2019-09-02T09:21:01Z</time>
      </trkpt>
      <trkpt lat="46.15585" lon="-1.15457">
        <ele>8.6</ele>
        <time>2019-09-02T09:21:05Z</time>
      </trkpt>
      <trkpt lat="46.15585" lon="-1.15461">
        <ele>8.8</ele>
        <time>2019-09-02T09:21:09Z</time>
      </trkpt>
      <trkpt lat="46.15584" lon="-1.15465">
        <ele>9.1</ele>
        <time>2019-09-02T09:21:11Z</time>
      </trkpt>
      <trkpt lat="46.15584" lon="-1.1547">
        <ele>9.2</ele>
        <time>2019-09-02T09:21:14Z</time>
      </trkpt>
      <trkpt lat="46.15585" lon="-1.15476">
        <ele>9.4</ele>
        <time>2019-09-02T09:21:18Z</time>
      </trkpt>
      <trkpt lat="46.15583" lon="-1.1548">
        <ele>9.6</ele>
        <time>2019-09-02T09:21:21Z</time>
      </trkpt>
      <trkpt lat="46.15584" lon="-1.15486">
        <ele>9.7</ele>
        <time>2019-09-02T09:21:25Z</time>
      </trkpt>
      <trkpt lat="46.15583" lon="-1.1549">
        <ele>9.7</ele>
        <time>2019-09-02T09:21:28Z</time>
      </trkpt>
      <trkpt lat="46.15584" lon="-1.15494">
        <ele>9.8</ele>
        <time>2019-09-02T09:21:32Z</time>
      </trkpt>
      <trkpt lat="46.15583" lon="-1.15499">
        <ele>9.9</ele>
        <time>2019-09-02T09:21:36Z</time>
      </trkpt>
      <trkpt lat="46.15582" lon="-1.15503">
        <ele>10</ele>
        <time>2019-09-02T09:21:38Z</time>
      </trkpt>
      <trkpt lat="46.15583" lon="-1.15507">
        <ele>10</ele>
        <time>2019-09-02T09:21:41Z</time>
      </trkpt>
      <trkpt lat="46.15582" lon="-1.15511">
        <ele>10.1</ele>
        <time>2019-09-02T09:21:44Z</time>
      </trkpt>
      <trkpt lat="46.15581" lon="-1.15516">
        <ele>10.2</ele>
        <time>2019-09-02T09:21:46Z</time>
      </trkpt>
      <trkpt lat="46.15582" lon="-1.1552">
        <ele>10.2</ele>
        <time>2019-09-02T09:21:49Z</time>
      </trkpt>
      <trkpt lat="46.15583" lon="-1.15525">
        <ele>10.3</ele>
        <time>2019-09-02T09:21:52Z</time>
      </trkpt>
      <trkpt lat="46.15583" lon="-1.1553">
        <ele>10.3</ele>
        <time>2019-09-02T09:21:55Z</time>
      </trkpt>
      <trkpt lat="46.15583" lon="-1.15534">
        <ele>10.4</ele>
        <time>2019-09-02T09:21:57Z</time>
      </trkpt>
      <trkpt lat="46.15583" lon="-1.15539">
        <ele>10.4</ele>
        <time>2019-09-02T09:22:00Z</time>
      </trkpt>
      <trkpt lat="46.15584" lon="-1.15543">
        <ele>10.5</ele>
        <time>2019-09-02T09:22:03Z</time>
      </trkpt>
      <trkpt lat="46.15585" lon="-1.15547">
        <ele>10.5</ele>
        <time>2019-09-02T09:22:05Z</time>
      </trkpt>
      <trkpt lat="46.15584" lon="-1.15552">
        <ele>10.5</ele>
        <time>2019-09-02T09:22:09Z</time>
      </trkpt>
      <trkpt lat="46.15583" lon="-1.15556">
        <ele>10.5</ele>
        <time>2019-09-02T09:22:12Z</time>
      </trkpt>
      <trkpt lat="46.15584" lon="-1.15561">
        <ele>10.6</ele>
        <time>2019-09-02T09:22:16Z</time>
      </trkpt>
      <trkpt lat="46.15584" lon="-1.15566">
        <ele>10.6</ele>
        <time>2019-09-02T09:22:20Z</time>
      </trkpt>
      <trkpt lat="46.15583" lon="-1.15571">
        <ele>10.6</ele>
        <time>2019-09-02T09:22:23Z</time>
      </trkpt>
      <trkpt lat="46.15583" lon="-1.15575">
        <ele>10.6</ele>
        <time>2019-09-02T09:22:26Z</time>
      </trkpt>
      <trkpt lat="46.15583" lon="-1.1558">
        <ele>10.6</ele>
        <time>2019-09-02T09:22:30Z</time>
      </trkpt>
      <trkpt lat="46.15583" lon="-1.15585">
        <ele>10.7</ele>
        <time>2019-09-02T09:22:34Z</time>
      </trkpt>
      <trkpt lat="46.15582" lon="-1.15591">
        <ele>10.7</ele>
        <time>2019-09-02T09:22:37Z</time>
      </trkpt>
      <trkpt lat="46.15582" lon="-1.15594">
        <ele>10.7</ele>
        <time>2019-09-02T09:22:44Z</time>
      </trkpt>
      <trkpt lat="46.15582" lon="-1.15599">
        <ele>10.7</ele>
        <time>2019-09-02T09:22:48Z</time>
      </trkpt>
      <trkpt lat="46.15584" lon="-1.15604">
        <ele>10.7</ele>
        <time>2019-09-02T09:23:20Z</time>
      </trkpt>
      <trkpt lat="46.15584" lon="-1.15609">
        <ele>10.6</ele>
        <time>2019-09-02T09:23:23Z</time>
      </trkpt>
      <trkpt lat="46.15584" lon="-1.15614">
        <ele>10.6</ele>
        <time>2019-09-02T09:23:27Z</time>
      </trkpt>
      <trkpt lat="46.15584" lon="-1.15618">
        <ele>10.6</ele>
        <time>2019-09-02T09:23:41Z</time>
      </trkpt>
      <trkpt lat="46.15585" lon="-1.15622">
        <ele>10.6</ele>
        <time>2019-09-02T09:23:45Z</time>
      </trkpt>
      <trkpt lat="46.15585" lon="-1.15627">
        <ele>10.5</ele>
        <time>2019-09-02T09:23:48Z</time>
      </trkpt>
      <trkpt lat="46.15584" lon="-1.15632">
        <ele>10.5</ele>
        <time>2019-09-02T09:23:51Z</time>
      </trkpt>
      <trkpt lat="46.15584" lon="-1.15637">
        <ele>10.5</ele>
        <time>2019-09-02T09:23:54Z</time>
      </trkpt>
      <trkpt lat="46.15586" lon="-1.15642">
        <ele>10.4</ele>
        <time>2019-09-02T09:23:57Z</time>
      </trkpt>
      <trkpt lat="46.15585" lon="-1.15647">
        <ele>10.3</ele>
        <time>2019-09-02T09:24:00Z</time>
      </trkpt>
      <trkpt lat="46.15584" lon="-1.15652">
        <ele>10.3</ele>
        <time>2019-09-02T09:24:03Z</time>
      </trkpt>
      <trkpt lat="46.15585" lon="-1.15657">
        <ele>10.2</ele>
        <time>2019-09-02T09:24:06Z</time>
      </trkpt>
      <trkpt lat="46.15586" lon="-1.1566">
        <ele>10.2</ele>
        <time>2019-09-02T09:24:10Z</time>
      </trkpt>
      <trkpt lat="46.15585" lon="-1.15664">
        <ele>10.1</ele>
        <time>2019-09-02T09:24:12Z</time>
      </trkpt>
      <trkpt lat="46.15585" lon="-1.15669">
        <ele>10.1</ele>
        <time>2019-09-02T09:24:15Z</time>
      </trkpt>
      <trkpt lat="46.15585" lon="-1.15673">
        <ele>10</ele>
        <time>2019-09-02T09:24:18Z</time>
      </trkpt>
      <trkpt lat="46.15585" lon="-1.15677">
        <ele>10</ele>
        <time>2019-09-02T09:24:21Z</time>
      </trkpt>
      <trkpt lat="46.15585" lon="-1.15682">
        <ele>9.9</ele>
        <time>2019-09-02T09:24:25Z</time>
      </trkpt>
      <trkpt lat="46.15587" lon="-1.15686">
        <ele>9.8</ele>
        <time>2019-09-02T09:24:29Z</time>
      </trkpt>
      <trkpt lat="46.15588" lon="-1.1569">
        <ele>9.7</ele>
        <time>2019-09-02T09:24:34Z</time>
      </trkpt>
      <trkpt lat="46.1559" lon="-1.15693">
        <ele>9.7</ele>
        <time>2019-09-02T09:24:46Z</time>
      </trkpt>
      <trkpt lat="46.15586" lon="-1.15695">
        <ele>9.5</ele>
        <time>2019-09-02T09:24:52Z</time>
      </trkpt>
      <trkpt lat="46.15583" lon="-1.15693">
        <ele>9.4</ele>
        <time>2019-09-02T09:25:03Z</time>
      </trkpt>
      <trkpt lat="46.15586" lon="-1.15691">
        <ele>9.3</ele>
        <time>2019-09-02T09:25:07Z</time>
      </trkpt>
      <trkpt lat="46.15589" lon="-1.15691">
        <ele>9.2</ele>
        <time>2019-09-02T09:25:12Z</time>
      </trkpt>
      <trkpt lat="46.15591" lon="-1.15694">
        <ele>9.1</ele>
        <time>2019-09-02T09:25:18Z</time>
      </trkpt>
      <trkpt lat="46.15591" lon="-1.15698">
        <ele>9</ele>
        <time>2019-09-02T09:25:21Z</time>
      </trkpt>
      <trkpt lat="46.15592" lon="-1.15703">
        <ele>8.8</ele>
        <time>2019-09-02T09:25:24Z</time>
      </trkpt>
      <trkpt lat="46.15591" lon="-1.15706">
        <ele>8.6</ele>
        <time>2019-09-02T09:25:27Z</time>
      </trkpt>
      <trkpt lat="46.15592" lon="-1.1571">
        <ele>8.4</ele>
        <time>2019-09-02T09:25:30Z</time>
      </trkpt>
      <trkpt lat="46.15592" lon="-1.15715">
        <ele>8.1</ele>
        <time>2019-09-02T09:25:33Z</time>
      </trkpt>
      <trkpt lat="46.15592" lon="-1.1572">
        <ele>7.8</ele>
        <time>2019-09-02T09:25:38Z</time>
      </trkpt>
      <trkpt lat="46.15594" lon="-1.15723">
        <ele>7.5</ele>
        <time>2019-09-02T09:25:41Z</time>
      </trkpt>
      <trkpt lat="46.15592" lon="-1.15727">
        <ele>7.1</ele>
        <time>2019-09-02T09:25:45Z</time>
      </trkpt>
      <trkpt lat="46.1559" lon="-1.15731">
        <ele>6.7</ele>
        <time>2019-09-02T09:25:48Z</time>
      </trkpt>
      <trkpt lat="46.15587" lon="-1.15733">
        <ele>6.3</ele>
        <time>2019-09-02T09:25:51Z</time>
      </trkpt>
      <trkpt lat="46.15585" lon="-1.15736">
        <ele>6.1</ele>
        <time>2019-09-02T09:25:55Z</time>
      </trkpt>
      <trkpt lat="46.15585" lon="-1.1574">
        <ele>5.8</ele>
        <time>2019-09-02T09:25:58Z</time>
      </trkpt>
      <trkpt lat="46.15584" lon="-1.15745">
        <ele>5.5</ele>
        <time>2019-09-02T09:26:01Z</time>
      </trkpt>
      <trkpt lat="46.15584" lon="-1.1575">
        <ele>5.3</ele>
        <time>2019-09-02T09:26:03Z</time>
      </trkpt>
      <trkpt lat="46.15584" lon="-1.15754">
        <ele>5.1</ele>
        <time>2019-09-02T09:26:05Z</time>
      </trkpt>
      <trkpt lat="46.15583" lon="-1.15759">
        <ele>5</ele>
        <time>2019-09-02T09:26:08Z</time>
      </trkpt>
      <trkpt lat="46.15582" lon="-1.15764">
        <ele>4.9</ele>
        <time>2019-09-02T09:26:11Z</time>
      </trkpt>
      <trkpt lat="46.15581" lon="-1.15769">
        <ele>4.8</ele>
        <time>2019-09-02T09:26:14Z</time>
      </trkpt>
      <trkpt lat="46.15578" lon="-1.15774">
        <ele>4.7</ele>
        <time>2019-09-02T09:26:17Z</time>
      </trkpt>
      <trkpt lat="46.15577" lon="-1.15779">
        <ele>4.6</ele>
        <time>2019-09-02T09:26:20Z</time>
      </trkpt>
      <trkpt lat="46.15576" lon="-1.15783">
        <ele>4.6</ele>
        <time>2019-09-02T09:26:22Z</time>
      </trkpt>
      <trkpt lat="46.15574" lon="-1.15787">
        <ele>4.6</ele>
        <time>2019-09-02T09:26:25Z</time>
      </trkpt>
      <trkpt lat="46.15573" lon="-1.15791">
        <ele>4.5</ele>
        <time>2019-09-02T09:26:28Z</time>
      </trkpt>
      <trkpt lat="46.15571" lon="-1.15796">
        <ele>4.5</ele>
        <time>2019-09-02T09:26:31Z</time>
      </trkpt>
      <trkpt lat="46.1557" lon="-1.15799">
        <ele>4.5</ele>
        <time>2019-09-02T09:26:34Z</time>
      </trkpt>
      <trkpt lat="46.15568" lon="-1.15802">
        <ele>4.5</ele>
        <time>2019-09-02T09:26:37Z</time>
      </trkpt>
      <trkpt lat="46.15567" lon="-1.15807">
        <ele>4.6</ele>
        <time>2019-09-02T09:26:41Z</time>
      </trkpt>
      <trkpt lat="46.15565" lon="-1.15811">
        <ele>4.6</ele>
        <time>2019-09-02T09:26:44Z</time>
      </trkpt>
      <trkpt lat="46.15563" lon="-1.15816">
        <ele>4.7</ele>
        <time>2019-09-02T09:26:47Z</time>
      </trkpt>
      <trkpt lat="46.15562" lon="-1.15821">
        <ele>4.7</ele>
        <time>2019-09-02T09:26:50Z</time>
      </trkpt>
      <trkpt lat="46.1556" lon="-1.15827">
        <ele>4.7</ele>
        <time>2019-09-02T09:26:53Z</time>
      </trkpt>
      <trkpt lat="46.1556" lon="-1.15831">
        <ele>4.7</ele>
        <time>2019-09-02T09:26:55Z</time>
      </trkpt>
      <trkpt lat="46.15558" lon="-1.15835">
        <ele>4.8</ele>
        <time>2019-09-02T09:26:58Z</time>
      </trkpt>
      <trkpt lat="46.15556" lon="-1.1584">
        <ele>4.8</ele>
        <time>2019-09-02T09:27:01Z</time>
      </trkpt>
      <trkpt lat="46.15553" lon="-1.15842">
        <ele>4.8</ele>
        <time>2019-09-02T09:27:07Z</time>
      </trkpt>
      <trkpt lat="46.15551" lon="-1.15846">
        <ele>4.8</ele>
        <time>2019-09-02T09:27:10Z</time>
      </trkpt>
      <trkpt lat="46.15549" lon="-1.15849">
        <ele>4.7</ele>
        <time>2019-09-02T09:27:13Z</time>
      </trkpt>
      <trkpt lat="46.15546" lon="-1.15853">
        <ele>4.6</ele>
        <time>2019-09-02T09:27:16Z</time>
      </trkpt>
      <trkpt lat="46.15544" lon="-1.15856">
        <ele>4.5</ele>
        <time>2019-09-02T09:27:21Z</time>
      </trkpt>
      <trkpt lat="46.15542" lon="-1.15859">
        <ele>4.4</ele>
        <time>2019-09-02T09:27:25Z</time>
      </trkpt>
      <trkpt lat="46.1554" lon="-1.15862">
        <ele>4.3</ele>
        <time>2019-09-02T09:27:28Z</time>
      </trkpt>
      <trkpt lat="46.15539" lon="-1.15866">
        <ele>4.3</ele>
        <time>2019-09-02T09:27:31Z</time>
      </trkpt>
      <trkpt lat="46.15537" lon="-1.1587">
        <ele>4.2</ele>
        <time>2019-09-02T09:27:36Z</time>
      </trkpt>
      <trkpt lat="46.15537" lon="-1.15874">
        <ele>4.1</ele>
        <time>2019-09-02T09:27:43Z</time>
      </trkpt>
      <trkpt lat="46.15534" lon="-1.15876">
        <ele>4.1</ele>
        <time>2019-09-02T09:27:47Z</time>
      </trkpt>
      <trkpt lat="46.15531" lon="-1.15875">
        <ele>4</ele>
        <time>2019-09-02T09:27:51Z</time>
      </trkpt>
      <trkpt lat="46.15533" lon="-1.15879">
        <ele>3.9</ele>
        <time>2019-09-02T09:27:56Z</time>
      </trkpt>
      <trkpt lat="46.15535" lon="-1.15882">
        <ele>3.8</ele>
        <time>2019-09-02T09:27:59Z</time>
      </trkpt>
      <trkpt lat="46.15535" lon="-1.15887">
        <ele>3.8</ele>
        <time>2019-09-02T09:28:03Z</time>
      </trkpt>
      <trkpt lat="46.15534" lon="-1.15892">
        <ele>3.7</ele>
        <time>2019-09-02T09:28:06Z</time>
      </trkpt>
      <trkpt lat="46.15531" lon="-1.15895">
        <ele>3.7</ele>
        <time>2019-09-02T09:28:09Z</time>
      </trkpt>
      <trkpt lat="46.15529" lon="-1.15901">
        <ele>3.6</ele>
        <time>2019-09-02T09:28:22Z</time>
      </trkpt>
      <trkpt lat="46.15529" lon="-1.15905">
        <ele>3.5</ele>
        <time>2019-09-02T09:28:27Z</time>
      </trkpt>
      <trkpt lat="46.15529" lon="-1.15909">
        <ele>3.4</ele>
        <time>2019-09-02T09:28:31Z</time>
      </trkpt>
      <trkpt lat="46.15529" lon="-1.15914">
        <ele>3.4</ele>
        <time>2019-09-02T09:28:35Z</time>
      </trkpt>
      <trkpt lat="46.15529" lon="-1.15918">
        <ele>3.3</ele>
        <time>2019-09-02T09:28:39Z</time>
      </trkpt>
      <trkpt lat="46.15527" lon="-1.15921">
        <ele>3.3</ele>
        <time>2019-09-02T09:28:41Z</time>
      </trkpt>
      <trkpt lat="46.15525" lon="-1.15926">
        <ele>3.2</ele>
        <time>2019-09-02T09:28:45Z</time>
      </trkpt>
      <trkpt lat="46.15523" lon="-1.15929">
        <ele>3.1</ele>
        <time>2019-09-02T09:28:48Z</time>
      </trkpt>
      <trkpt lat="46.15521" lon="-1.15931">
        <ele>3.1</ele>
        <time>2019-09-02T09:28:51Z</time>
      </trkpt>
      <trkpt lat="46.15518" lon="-1.15933">
        <ele>3.1</ele>
        <time>2019-09-02T09:28:56Z</time>
      </trkpt>
      <trkpt lat="46.15515" lon="-1.15937">
        <ele>2.6</ele>
        <time>2019-09-02T09:29:01Z</time>
      </trkpt>
      <trkpt lat="46.15512" lon="-1.15939">
        <ele>2.5</ele>
        <time>2019-09-02T09:29:03Z</time>
      </trkpt>
      <trkpt lat="46.1551" lon="-1.15942">
        <ele>2.4</ele>
        <time>2019-09-02T09:29:07Z</time>
      </trkpt>
      <trkpt lat="46.15507" lon="-1.15945">
        <ele>2.3</ele>
        <time>2019-09-02T09:29:10Z</time>
      </trkpt>
      <trkpt lat="46.15505" lon="-1.15949">
        <ele>2.2</ele>
        <time>2019-09-02T09:29:16Z</time>
      </trkpt>
      <trkpt lat="46.15504" lon="-1.15954">
        <ele>2</ele>
        <time>2019-09-02T09:29:19Z</time>
      </trkpt>
      <trkpt lat="46.15503" lon="-1.15958">
        <ele>2</ele>
        <time>2019-09-02T09:29:22Z</time>
      </trkpt>
      <trkpt lat="46.15501" lon="-1.15961">
        <ele>1.9</ele>
        <time>2019-09-02T09:29:25Z</time>
      </trkpt>
      <trkpt lat="46.155" lon="-1.15966">
        <ele>1.8</ele>
        <time>2019-09-02T09:29:29Z</time>
      </trkpt>
      <trkpt lat="46.15499" lon="-1.15971">
        <ele>1.7</ele>
        <time>2019-09-02T09:29:33Z</time>
      </trkpt>
      <trkpt lat="46.15499" lon="-1.15976">
        <ele>1.4</ele>
        <time>2019-09-02T09:29:36Z</time>
      </trkpt>
      <trkpt lat="46.155" lon="-1.1598">
        <ele>1.4</ele>
        <time>2019-09-02T09:29:39Z</time>
      </trkpt>
      <trkpt lat="46.15501" lon="-1.15985">
        <ele>1.4</ele>
        <time>2019-09-02T09:29:43Z</time>
      </trkpt>
      <trkpt lat="46.15502" lon="-1.1599">
        <ele>1.4</ele>
        <time>2019-09-02T09:29:47Z</time>
      </trkpt>
      <trkpt lat="46.15505" lon="-1.15993">
        <ele>1.4</ele>
        <time>2019-09-02T09:30:04Z</time>
      </trkpt>
      <trkpt lat="46.15509" lon="-1.15994">
        <ele>1.4</ele>
        <time>2019-09-02T09:30:07Z</time>
      </trkpt>
      <trkpt lat="46.15511" lon="-1.15997">
        <ele>1.4</ele>
        <time>2019-09-02T09:30:10Z</time>
      </trkpt>
      <trkpt lat="46.15514" lon="-1.16">
        <ele>1.4</ele>
        <time>2019-09-02T09:30:13Z</time>
      </trkpt>
      <trkpt lat="46.15516" lon="-1.16003">
        <ele>1.4</ele>
        <time>2019-09-02T09:30:15Z</time>
      </trkpt>
      <trkpt lat="46.15518" lon="-1.16007">
        <ele>1.4</ele>
        <time>2019-09-02T09:30:18Z</time>
      </trkpt>
      <trkpt lat="46.1552" lon="-1.16009">
        <ele>1.4</ele>
        <time>2019-09-02T09:30:21Z</time>
      </trkpt>
      <trkpt lat="46.15522" lon="-1.16013">
        <ele>1.4</ele>
        <time>2019-09-02T09:30:25Z</time>
      </trkpt>
      <trkpt lat="46.15524" lon="-1.16017">
        <ele>1.4</ele>
        <time>2019-09-02T09:30:29Z</time>
      </trkpt>
      <trkpt lat="46.15527" lon="-1.1602">
        <ele>1.4</ele>
        <time>2019-09-02T09:30:33Z</time>
      </trkpt>
      <trkpt lat="46.1553" lon="-1.16023">
        <ele>1.5</ele>
        <time>2019-09-02T09:30:38Z</time>
      </trkpt>
      <trkpt lat="46.15533" lon="-1.16026">
        <ele>1.5</ele>
        <time>2019-09-02T09:30:41Z</time>
      </trkpt>
      <trkpt lat="46.15535" lon="-1.16028">
        <ele>1.6</ele>
        <time>2019-09-02T09:30:44Z</time>
      </trkpt>
      <trkpt lat="46.15537" lon="-1.16032">
        <ele>1.6</ele>
        <time>2019-09-02T09:30:47Z</time>
      </trkpt>
      <trkpt lat="46.15539" lon="-1.16035">
        <ele>1.7</ele>
        <time>2019-09-02T09:30:50Z</time>
      </trkpt>
      <trkpt lat="46.15542" lon="-1.16038">
        <ele>1.7</ele>
        <time>2019-09-02T09:30:53Z</time>
      </trkpt>
      <trkpt lat="46.15544" lon="-1.16042">
        <ele>1.8</ele>
        <time>2019-09-02T09:30:56Z</time>
      </trkpt>
      <trkpt lat="46.15545" lon="-1.16046">
        <ele>1.9</ele>
        <time>2019-09-02T09:30:59Z</time>
      </trkpt>
      <trkpt lat="46.15548" lon="-1.16048">
        <ele>1.9</ele>
        <time>2019-09-02T09:31:03Z</time>
      </trkpt>
      <trkpt lat="46.1555" lon="-1.16051">
        <ele>2</ele>
        <time>2019-09-02T09:31:06Z</time>
      </trkpt>
      <trkpt lat="46.15553" lon="-1.16053">
        <ele>2</ele>
        <time>2019-09-02T09:31:09Z</time>
      </trkpt>
      <trkpt lat="46.15555" lon="-1.16056">
        <ele>2.1</ele>
        <time>2019-09-02T09:31:12Z</time>
      </trkpt>
      <trkpt lat="46.15557" lon="-1.16061">
        <ele>2.1</ele>
        <time>2019-09-02T09:31:15Z</time>
      </trkpt>
      <trkpt lat="46.15559" lon="-1.16063">
        <ele>2.1</ele>
        <time>2019-09-02T09:31:18Z</time>
      </trkpt>
      <trkpt lat="46.15561" lon="-1.16066">
        <ele>2.1</ele>
        <time>2019-09-02T09:31:22Z</time>
      </trkpt>
      <trkpt lat="46.15563" lon="-1.16069">
        <ele>2.1</ele>
        <time>2019-09-02T09:31:26Z</time>
      </trkpt>
      <trkpt lat="46.15565" lon="-1.16073">
        <ele>2</ele>
        <time>2019-09-02T09:31:31Z</time>
      </trkpt>
      <trkpt lat="46.15566" lon="-1.16077">
        <ele>2</ele>
        <time>2019-09-02T09:31:35Z</time>
      </trkpt>
      <trkpt lat="46.15567" lon="-1.16081">
        <ele>2</ele>
        <time>2019-09-02T09:31:37Z</time>
      </trkpt>
      <trkpt lat="46.15569" lon="-1.16085">
        <ele>2.1</ele>
        <time>2019-09-02T09:31:40Z</time>
      </trkpt>
      <trkpt lat="46.15571" lon="-1.16089">
        <ele>2.2</ele>
        <time>2019-09-02T09:31:44Z</time>
      </trkpt>
      <trkpt lat="46.15568" lon="-1.16089">
        <ele>2.2</ele>
        <time>2019-09-02T09:32:20Z</time>
      </trkpt>
      <trkpt lat="46.15567" lon="-1.16092">
        <ele>2.3</ele>
        <time>2019-09-02T09:32:22Z</time>
      </trkpt>
      <trkpt lat="46.15565" lon="-1.16097">
        <ele>2.3</ele>
        <time>2019-09-02T09:32:25Z</time>
      </trkpt>
      <trkpt lat="46.15562" lon="-1.16099">
        <ele>2.4</ele>
        <time>2019-09-02T09:32:30Z</time>
      </trkpt>
      <trkpt lat="46.1556" lon="-1.16103">
        <ele>2.4</ele>
        <time>2019-09-02T09:32:33Z</time>
      </trkpt>
      <trkpt lat="46.15562" lon="-1.16108">
        <ele>2.4</ele>
        <time>2019-09-02T09:32:36Z</time>
      </trkpt>
      <trkpt lat="46.15562" lon="-1.16112">
        <ele>2.5</ele>
        <time>2019-09-02T09:32:39Z</time>
      </trkpt>
      <trkpt lat="46.15563" lon="-1.16116">
        <ele>2.5</ele>
        <time>2019-09-02T09:32:42Z</time>
      </trkpt>
      <trkpt lat="46.15564" lon="-1.16122">
        <ele>2.6</ele>
        <time>2019-09-02T09:32:46Z</time>
      </trkpt>
      <trkpt lat="46.15565" lon="-1.16126">
        <ele>2.6</ele>
        <time>2019-09-02T09:32:49Z</time>
      </trkpt>
      <trkpt lat="46.15564" lon="-1.16129">
        <ele>2.6</ele>
        <time>2019-09-02T09:32:52Z</time>
      </trkpt>
      <trkpt lat="46.15565" lon="-1.16133">
        <ele>2.7</ele>
        <time>2019-09-02T09:32:54Z</time>
      </trkpt>
      <trkpt lat="46.15567" lon="-1.16138">
        <ele>2.7</ele>
        <time>2019-09-02T09:32:57Z</time>
      </trkpt>
      <trkpt lat="46.15569" lon="-1.16142">
        <ele>2.7</ele>
        <time>2019-09-02T09:33:00Z</time>
      </trkpt>
      <trkpt lat="46.1557" lon="-1.16146">
        <ele>2.7</ele>
        <time>2019-09-02T09:33:03Z</time>
      </trkpt>
      <trkpt lat="46.15572" lon="-1.16149">
        <ele>2.7</ele>
        <time>2019-09-02T09:33:06Z</time>
      </trkpt>
      <trkpt lat="46.15573" lon="-1.16153">
        <ele>2.8</ele>
        <time>2019-09-02T09:33:09Z</time>
      </trkpt>
      <trkpt lat="46.15574" lon="-1.16157">
        <ele>2.8</ele>
        <time>2019-09-02T09:33:12Z</time>
      </trkpt>
      <trkpt lat="46.15575" lon="-1.16162">
        <ele>2.8</ele>
        <time>2019-09-02T09:33:15Z</time>
      </trkpt>
      <trkpt lat="46.15574" lon="-1.16167">
        <ele>2.8</ele>
        <time>2019-09-02T09:33:18Z</time>
      </trkpt>
      <trkpt lat="46.15575" lon="-1.16172">
        <ele>2.8</ele>
        <time>2019-09-02T09:33:21Z</time>
      </trkpt>
      <trkpt lat="46.15576" lon="-1.16176">
        <ele>2.8</ele>
        <time>2019-09-02T09:33:23Z</time>
      </trkpt>
      <trkpt lat="46.15576" lon="-1.1618">
        <ele>2.9</ele>
        <time>2019-09-02T09:33:26Z</time>
      </trkpt>
      <trkpt lat="46.15577" lon="-1.16184">
        <ele>3</ele>
        <time>2019-09-02T09:33:29Z</time>
      </trkpt>
      <trkpt lat="46.15576" lon="-1.16188">
        <ele>3.1</ele>
        <time>2019-09-02T09:33:32Z</time>
      </trkpt>
      <trkpt lat="46.15578" lon="-1.16193">
        <ele>3.1</ele>
        <time>2019-09-02T09:33:35Z</time>
      </trkpt>
      <trkpt lat="46.15577" lon="-1.16197">
        <ele>3.1</ele>
        <time>2019-09-02T09:33:37Z</time>
      </trkpt>
      <trkpt lat="46.15577" lon="-1.16202">
        <ele>3.1</ele>
        <time>2019-09-02T09:33:39Z</time>
      </trkpt>
      <trkpt lat="46.15577" lon="-1.16206">
        <ele>3.1</ele>
        <time>2019-09-02T09:33:41Z</time>
      </trkpt>
      <trkpt lat="46.15578" lon="-1.1621">
        <ele>3.1</ele>
        <time>2019-09-02T09:33:44Z</time>
      </trkpt>
      <trkpt lat="46.15578" lon="-1.16214">
        <ele>3.1</ele>
        <time>2019-09-02T09:33:46Z</time>
      </trkpt>
      <trkpt lat="46.15576" lon="-1.16218">
        <ele>3.2</ele>
        <time>2019-09-02T09:33:49Z</time>
      </trkpt>
      <trkpt lat="46.15576" lon="-1.16224">
        <ele>3.3</ele>
        <time>2019-09-02T09:33:52Z</time>
      </trkpt>
      <trkpt lat="46.15578" lon="-1.16228">
        <ele>3.3</ele>
        <time>2019-09-02T09:33:55Z</time>
      </trkpt>
      <trkpt lat="46.15578" lon="-1.16232">
        <ele>3.3</ele>
        <time>2019-09-02T09:33:57Z</time>
      </trkpt>
      <trkpt lat="46.15578" lon="-1.16236">
        <ele>3.3</ele>
        <time>2019-09-02T09:33:59Z</time>
      </trkpt>
      <trkpt lat="46.15578" lon="-1.16241">
        <ele>3.3</ele>
        <time>2019-09-02T09:34:02Z</time>
      </trkpt>
      <trkpt lat="46.15578" lon="-1.16247">
        <ele>3.2</ele>
        <time>2019-09-02T09:34:05Z</time>
      </trkpt>
      <trkpt lat="46.15577" lon="-1.16252">
        <ele>3.2</ele>
        <time>2019-09-02T09:34:08Z</time>
      </trkpt>
      <trkpt lat="46.15577" lon="-1.16257">
        <ele>3.1</ele>
        <time>2019-09-02T09:34:11Z</time>
      </trkpt>
      <trkpt lat="46.15578" lon="-1.16262">
        <ele>3.1</ele>
        <time>2019-09-02T09:34:14Z</time>
      </trkpt>
      <trkpt lat="46.15578" lon="-1.16267">
        <ele>3</ele>
        <time>2019-09-02T09:34:17Z</time>
      </trkpt>
      <trkpt lat="46.15578" lon="-1.16271">
        <ele>2.9</ele>
        <time>2019-09-02T09:34:20Z</time>
      </trkpt>
      <trkpt lat="46.15578" lon="-1.16277">
        <ele>2.9</ele>
        <time>2019-09-02T09:34:23Z</time>
      </trkpt>
      <trkpt lat="46.15578" lon="-1.16281">
        <ele>2.9</ele>
        <time>2019-09-02T09:34:26Z</time>
      </trkpt>
      <trkpt lat="46.15578" lon="-1.16285">
        <ele>2.9</ele>
        <time>2019-09-02T09:34:28Z</time>
      </trkpt>
      <trkpt lat="46.15578" lon="-1.16291">
        <ele>2.9</ele>
        <time>2019-09-02T09:34:31Z</time>
      </trkpt>
      <trkpt lat="46.15578" lon="-1.16296">
        <ele>2.9</ele>
        <time>2019-09-02T09:34:34Z</time>
      </trkpt>
      <trkpt lat="46.15578" lon="-1.16301">
        <ele>2.8</ele>
        <time>2019-09-02T09:34:37Z</time>
      </trkpt>
      <trkpt lat="46.15578" lon="-1.16307">
        <ele>2.8</ele>
        <time>2019-09-02T09:34:40Z</time>
      </trkpt>
      <trkpt lat="46.15578" lon="-1.16312">
        <ele>2.8</ele>
        <time>2019-09-02T09:34:43Z</time>
      </trkpt>
      <trkpt lat="46.15578" lon="-1.16317">
        <ele>2.8</ele>
        <time>2019-09-02T09:34:46Z</time>
      </trkpt>
      <trkpt lat="46.15579" lon="-1.16322">
        <ele>2.8</ele>
        <time>2019-09-02T09:34:51Z</time>
      </trkpt>
      <trkpt lat="46.15578" lon="-1.16327">
        <ele>2.9</ele>
        <time>2019-09-02T09:34:54Z</time>
      </trkpt>
      <trkpt lat="46.15579" lon="-1.16332">
        <ele>2.9</ele>
        <time>2019-09-02T09:34:57Z</time>
      </trkpt>
      <trkpt lat="46.15579" lon="-1.16336">
        <ele>2.9</ele>
        <time>2019-09-02T09:35:00Z</time>
      </trkpt>
      <trkpt lat="46.15579" lon="-1.1634">
        <ele>2.9</ele>
        <time>2019-09-02T09:35:03Z</time>
      </trkpt>
      <trkpt lat="46.15578" lon="-1.16344">
        <ele>2.9</ele>
        <time>2019-09-02T09:35:06Z</time>
      </trkpt>
      <trkpt lat="46.15577" lon="-1.16349">
        <ele>2.9</ele>
        <time>2019-09-02T09:35:09Z</time>
      </trkpt>
      <trkpt lat="46.15575" lon="-1.16354">
        <ele>2.9</ele>
        <time>2019-09-02T09:35:12Z</time>
      </trkpt>
      <trkpt lat="46.15574" lon="-1.16359">
        <ele>2.9</ele>
        <time>2019-09-02T09:35:15Z</time>
      </trkpt>
      <trkpt lat="46.15574" lon="-1.16364">
        <ele>2.9</ele>
        <time>2019-09-02T09:35:18Z</time>
      </trkpt>
      <trkpt lat="46.15575" lon="-1.16368">
        <ele>2.9</ele>
        <time>2019-09-02T09:35:20Z</time>
      </trkpt>
      <trkpt lat="46.15575" lon="-1.16373">
        <ele>2.9</ele>
        <time>2019-09-02T09:35:23Z</time>
      </trkpt>
      <trkpt lat="46.15574" lon="-1.16378">
        <ele>2.9</ele>
        <time>2019-09-02T09:35:26Z</time>
      </trkpt>
      <trkpt lat="46.15573" lon="-1.16383">
        <ele>2.9</ele>
        <time>2019-09-02T09:35:29Z</time>
      </trkpt>
      <trkpt lat="46.15571" lon="-1.16386">
        <ele>2.8</ele>
        <time>2019-09-02T09:35:32Z</time>
      </trkpt>
      <trkpt lat="46.1557" lon="-1.16391">
        <ele>2.8</ele>
        <time>2019-09-02T09:35:35Z</time>
      </trkpt>
      <trkpt lat="46.15568" lon="-1.16395">
        <ele>2.8</ele>
        <time>2019-09-02T09:35:38Z</time>
      </trkpt>
      <trkpt lat="46.15568" lon="-1.164">
        <ele>2.8</ele>
        <time>2019-09-02T09:35:41Z</time>
      </trkpt>
      <trkpt lat="46.15567" lon="-1.16405">
        <ele>2.7</ele>
        <time>2019-09-02T09:35:44Z</time>
      </trkpt>
      <trkpt lat="46.15566" lon="-1.16409">
        <ele>2.7</ele>
        <time>2019-09-02T09:35:46Z</time>
      </trkpt>
      <trkpt lat="46.15565" lon="-1.16414">
        <ele>2.6</ele>
        <time>2019-09-02T09:35:49Z</time>
      </trkpt>
      <trkpt lat="46.15563" lon="-1.16418">
        <ele>2.6</ele>
        <time>2019-09-02T09:35:52Z</time>
      </trkpt>
      <trkpt lat="46.15563" lon="-1.16422">
        <ele>2.5</ele>
        <time>2019-09-02T09:35:55Z</time>
      </trkpt>
      <trkpt lat="46.15563" lon="-1.16426">
        <ele>2.5</ele>
        <time>2019-09-02T09:35:57Z</time>
      </trkpt>
      <trkpt lat="46.15561" lon="-1.16428">
        <ele>2.4</ele>
        <time>2019-09-02T09:35:59Z</time>
      </trkpt>
      <trkpt lat="46.15559" lon="-1.16432">
        <ele>2.4</ele>
        <time>2019-09-02T09:36:01Z</time>
      </trkpt>
      <trkpt lat="46.15556" lon="-1.16435">
        <ele>2.3</ele>
        <time>2019-09-02T09:36:04Z</time>
      </trkpt>
      <trkpt lat="46.15554" lon="-1.16438">
        <ele>2.3</ele>
        <time>2019-09-02T09:36:06Z</time>
      </trkpt>
      <trkpt lat="46.15553" lon="-1.16442">
        <ele>2.2</ele>
        <time>2019-09-02T09:36:08Z</time>
      </trkpt>
      <trkpt lat="46.15551" lon="-1.16445">
        <ele>2.1</ele>
        <time>2019-09-02T09:36:10Z</time>
      </trkpt>
      <trkpt lat="46.15552" lon="-1.1645">
        <ele>2</ele>
        <time>2019-09-02T09:36:13Z</time>
      </trkpt>
      <trkpt lat="46.15551" lon="-1.16454">
        <ele>1.9</ele>
        <time>2019-09-02T09:36:16Z</time>
      </trkpt>
      <trkpt lat="46.15552" lon="-1.16459">
        <ele>1.8</ele>
        <time>2019-09-02T09:36:33Z</time>
      </trkpt>
      <trkpt lat="46.15554" lon="-1.16464">
        <ele>1.7</ele>
        <time>2019-09-02T09:36:36Z</time>
      </trkpt>
      <trkpt lat="46.15555" lon="-1.16469">
        <ele>1.6</ele>
        <time>2019-09-02T09:36:39Z</time>
      </trkpt>
      <trkpt lat="46.15555" lon="-1.16473">
        <ele>1.5</ele>
        <time>2019-09-02T09:36:42Z</time>
      </trkpt>
      <trkpt lat="46.15555" lon="-1.16477">
        <ele>1.4</ele>
        <time>2019-09-02T09:36:44Z</time>
      </trkpt>
      <trkpt lat="46.15555" lon="-1.16481">
        <ele>1.3</ele>
        <time>2019-09-02T09:36:46Z</time>
      </trkpt>
      <trkpt lat="46.15555" lon="-1.16487">
        <ele>2</ele>
        <time>2019-09-02T09:36:49Z</time>
      </trkpt>
      <trkpt lat="46.15555" lon="-1.16492">
        <ele>2.7</ele>
        <time>2019-09-02T09:36:52Z</time>
      </trkpt>
      <trkpt lat="46.15555" lon="-1.16497">
        <ele>3.4</ele>
        <time>2019-09-02T09:36:55Z</time>
      </trkpt>
      <trkpt lat="46.15556" lon="-1.16501">
        <ele>4</ele>
        <time>2019-09-02T09:36:58Z</time>
      </trkpt>
      <trkpt lat="46.15556" lon="-1.16505">
        <ele>4.5</ele>
        <time>2019-09-02T09:37:01Z</time>
      </trkpt>
      <trkpt lat="46.15557" lon="-1.1651">
        <ele>5.2</ele>
        <time>2019-09-02T09:37:04Z</time>
      </trkpt>
      <trkpt lat="46.15556" lon="-1.16514">
        <ele>5.3</ele>
        <time>2019-09-02T09:37:07Z</time>
      </trkpt>
      <trkpt lat="46.15555" lon="-1.16519">
        <ele>5.3</ele>
        <time>2019-09-02T09:37:10Z</time>
      </trkpt>
      <trkpt lat="46.15553" lon="-1.16523">
        <ele>5.4</ele>
        <time>2019-09-02T09:37:13Z</time>
      </trkpt>
      <trkpt lat="46.15551" lon="-1.16525">
        <ele>5.5</ele>
        <time>2019-09-02T09:37:15Z</time>
      </trkpt>
      <trkpt lat="46.15548" lon="-1.16527">
        <ele>5.5</ele>
        <time>2019-09-02T09:37:17Z</time>
      </trkpt>
      <trkpt lat="46.15545" lon="-1.1653">
        <ele>5.6</ele>
        <time>2019-09-02T09:37:20Z</time>
      </trkpt>
      <trkpt lat="46.15544" lon="-1.16535">
        <ele>5.7</ele>
        <time>2019-09-02T09:37:24Z</time>
      </trkpt>
      <trkpt lat="46.15543" lon="-1.1654">
        <ele>5.8</ele>
        <time>2019-09-02T09:37:27Z</time>
      </trkpt>
      <trkpt lat="46.15545" lon="-1.16544">
        <ele>5.9</ele>
        <time>2019-09-02T09:37:34Z</time>
      </trkpt>
      <trkpt lat="46.15543" lon="-1.16548">
        <ele>5.9</ele>
        <time>2019-09-02T09:37:41Z</time>
      </trkpt>
      <trkpt lat="46.15542" lon="-1.16553">
        <ele>6</ele>
        <time>2019-09-02T09:37:45Z</time>
      </trkpt>
      <trkpt lat="46.15541" lon="-1.16557">
        <ele>6</ele>
        <time>2019-09-02T09:37:48Z</time>
      </trkpt>
      <trkpt lat="46.1554" lon="-1.1656">
        <ele>5.9</ele>
        <time>2019-09-02T09:37:51Z</time>
      </trkpt>
      <trkpt lat="46.15537" lon="-1.16563">
        <ele>5.9</ele>
        <time>2019-09-02T09:37:57Z</time>
      </trkpt>
      <trkpt lat="46.15534" lon="-1.16565">
        <ele>5.8</ele>
        <time>2019-09-02T09:38:00Z</time>
      </trkpt>
      <trkpt lat="46.15532" lon="-1.16569">
        <ele>5.8</ele>
        <time>2019-09-02T09:38:06Z</time>
      </trkpt>
      <trkpt lat="46.15531" lon="-1.16573">
        <ele>5.7</ele>
        <time>2019-09-02T09:38:09Z</time>
      </trkpt>
      <trkpt lat="46.15531" lon="-1.16578">
        <ele>5.7</ele>
        <time>2019-09-02T09:38:12Z</time>
      </trkpt>
      <trkpt lat="46.1553" lon="-1.16583">
        <ele>5.6</ele>
        <time>2019-09-02T09:38:14Z</time>
      </trkpt>
      <trkpt lat="46.15529" lon="-1.16589">
        <ele>5.5</ele>
        <time>2019-09-02T09:38:17Z</time>
      </trkpt>
      <trkpt lat="46.15528" lon="-1.16593">
        <ele>5.5</ele>
        <time>2019-09-02T09:38:20Z</time>
      </trkpt>
      <trkpt lat="46.15528" lon="-1.16598">
        <ele>5.4</ele>
        <time>2019-09-02T09:38:24Z</time>
      </trkpt>
      <trkpt lat="46.15526" lon="-1.16602">
        <ele>5.4</ele>
        <time>2019-09-02T09:38:27Z</time>
      </trkpt>
      <trkpt lat="46.15525" lon="-1.16606">
        <ele>5.3</ele>
        <time>2019-09-02T09:38:30Z</time>
      </trkpt>
      <trkpt lat="46.15524" lon="-1.1661">
        <ele>5.3</ele>
        <time>2019-09-02T09:38:33Z</time>
      </trkpt>
      <trkpt lat="46.15524" lon="-1.16615">
        <ele>5.2</ele>
        <time>2019-09-02T09:38:36Z</time>
      </trkpt>
      <trkpt lat="46.15522" lon="-1.16621">
        <ele>5.1</ele>
        <time>2019-09-02T09:38:39Z</time>
      </trkpt>
      <trkpt lat="46.15521" lon="-1.16625">
        <ele>5</ele>
        <time>2019-09-02T09:38:42Z</time>
      </trkpt>
      <trkpt lat="46.1552" lon="-1.16631">
        <ele>4.9</ele>
        <time>2019-09-02T09:38:45Z</time>
      </trkpt>
      <trkpt lat="46.15519" lon="-1.16636">
        <ele>4.8</ele>
        <time>2019-09-02T09:38:48Z</time>
      </trkpt>
      <trkpt lat="46.15517" lon="-1.16641">
        <ele>4.8</ele>
        <time>2019-09-02T09:38:51Z</time>
      </trkpt>
      <trkpt lat="46.15516" lon="-1.16645">
        <ele>4.7</ele>
        <time>2019-09-02T09:38:54Z</time>
      </trkpt>
      <trkpt lat="46.15514" lon="-1.16648">
        <ele>4.6</ele>
        <time>2019-09-02T09:38:57Z</time>
      </trkpt>
      <trkpt lat="46.15514" lon="-1.16652">
        <ele>4.5</ele>
        <time>2019-09-02T09:38:59Z</time>
      </trkpt>
      <trkpt lat="46.15514" lon="-1.16656">
        <ele>4.4</ele>
        <time>2019-09-02T09:39:02Z</time>
      </trkpt>
      <trkpt lat="46.15515" lon="-1.16661">
        <ele>4.3</ele>
        <time>2019-09-02T09:39:06Z</time>
      </trkpt>
      <trkpt lat="46.15514" lon="-1.16666">
        <ele>4.1</ele>
        <time>2019-09-02T09:39:10Z</time>
      </trkpt>
      <trkpt lat="46.15511" lon="-1.16664">
        <ele>4</ele>
        <time>2019-09-02T09:39:14Z</time>
      </trkpt>
      <trkpt lat="46.15513" lon="-1.16661">
        <ele>3.9</ele>
        <time>2019-09-02T09:39:16Z</time>
      </trkpt>
      <trkpt lat="46.15516" lon="-1.16659">
        <ele>3.8</ele>
        <time>2019-09-02T09:39:30Z</time>
      </trkpt>
      <trkpt lat="46.15519" lon="-1.16661">
        <ele>3.6</ele>
        <time>2019-09-02T09:39:36Z</time>
      </trkpt>
      <trkpt lat="46.15522" lon="-1.16661">
        <ele>3.4</ele>
        <time>2019-09-02T09:39:42Z</time>
      </trkpt>
      <trkpt lat="46.15523" lon="-1.16665">
        <ele>3.2</ele>
        <time>2019-09-02T09:39:47Z</time>
      </trkpt>
      <trkpt lat="46.15525" lon="-1.1667">
        <ele>3</ele>
        <time>2019-09-02T09:39:52Z</time>
      </trkpt>
      <trkpt lat="46.15526" lon="-1.16674">
        <ele>2.8</ele>
        <time>2019-09-02T09:39:56Z</time>
      </trkpt>
      <trkpt lat="46.15527" lon="-1.16679">
        <ele>2.6</ele>
        <time>2019-09-02T09:40:00Z</time>
      </trkpt>
      <trkpt lat="46.15527" lon="-1.16683">
        <ele>2.6</ele>
        <time>2019-09-02T09:40:03Z</time>
      </trkpt>
      <trkpt lat="46.15525" lon="-1.16687">
        <ele>2.6</ele>
        <time>2019-09-02T09:40:06Z</time>
      </trkpt>
      <trkpt lat="46.15522" lon="-1.16688">
        <ele>2.7</ele>
        <time>2019-09-02T09:40:08Z</time>
      </trkpt>
      <trkpt lat="46.15518" lon="-1.16689">
        <ele>2.8</ele>
        <time>2019-09-02T09:40:11Z</time>
      </trkpt>
      <trkpt lat="46.15515" lon="-1.16688">
        <ele>2.9</ele>
        <time>2019-09-02T09:40:14Z</time>
      </trkpt>
      <trkpt lat="46.15512" lon="-1.1669">
        <ele>3</ele>
        <time>2019-09-02T09:40:18Z</time>
      </trkpt>
      <trkpt lat="46.15513" lon="-1.16695">
        <ele>3.1</ele>
        <time>2019-09-02T09:40:29Z</time>
      </trkpt>
      <trkpt lat="46.15514" lon="-1.167">
        <ele>3.2</ele>
        <time>2019-09-02T09:40:33Z</time>
      </trkpt>
      <trkpt lat="46.15514" lon="-1.16704">
        <ele>3.2</ele>
        <time>2019-09-02T09:40:36Z</time>
      </trkpt>
      <trkpt lat="46.15513" lon="-1.16708">
        <ele>3.3</ele>
        <time>2019-09-02T09:40:39Z</time>
      </trkpt>
      <trkpt lat="46.15513" lon="-1.16712">
        <ele>3.4</ele>
        <time>2019-09-02T09:40:42Z</time>
      </trkpt>
      <trkpt lat="46.15512" lon="-1.16717">
        <ele>3.5</ele>
        <time>2019-09-02T09:40:45Z</time>
      </trkpt>
      <trkpt lat="46.15511" lon="-1.16721">
        <ele>3.6</ele>
        <time>2019-09-02T09:40:48Z</time>
      </trkpt>
      <trkpt lat="46.1551" lon="-1.16725">
        <ele>3.7</ele>
        <time>2019-09-02T09:40:51Z</time>
      </trkpt>
      <trkpt lat="46.15509" lon="-1.1673">
        <ele>3.8</ele>
        <time>2019-09-02T09:40:55Z</time>
      </trkpt>
      <trkpt lat="46.15506" lon="-1.16729">
        <ele>3.8</ele>
        <time>2019-09-02T09:40:58Z</time>
      </trkpt>
      <trkpt lat="46.15505" lon="-1.16732">
        <ele>3.9</ele>
        <time>2019-09-02T09:41:21Z</time>
      </trkpt>
      <trkpt lat="46.15506" lon="-1.16737">
        <ele>4</ele>
        <time>2019-09-02T09:41:27Z</time>
      </trkpt>
      <trkpt lat="46.15506" lon="-1.16741">
        <ele>4.1</ele>
        <time>2019-09-02T09:41:29Z</time>
      </trkpt>
      <trkpt lat="46.15505" lon="-1.16745">
        <ele>4.2</ele>
        <time>2019-09-02T09:41:31Z</time>
      </trkpt>
      <trkpt lat="46.15505" lon="-1.1675">
        <ele>4.3</ele>
        <time>2019-09-02T09:41:34Z</time>
      </trkpt>
      <trkpt lat="46.15504" lon="-1.16754">
        <ele>3.9</ele>
        <time>2019-09-02T09:41:37Z</time>
      </trkpt>
      <trkpt lat="46.15504" lon="-1.16759">
        <ele>3.7</ele>
        <time>2019-09-02T09:41:40Z</time>
      </trkpt>
      <trkpt lat="46.15502" lon="-1.16763">
        <ele>3.4</ele>
        <time>2019-09-02T09:41:43Z</time>
      </trkpt>
      <trkpt lat="46.15501" lon="-1.16767">
        <ele>3.2</ele>
        <time>2019-09-02T09:41:46Z</time>
      </trkpt>
      <trkpt lat="46.155" lon="-1.1677">
        <ele>2.9</ele>
        <time>2019-09-02T09:41:49Z</time>
      </trkpt>
      <trkpt lat="46.15499" lon="-1.16775">
        <ele>2.7</ele>
        <time>2019-09-02T09:41:52Z</time>
      </trkpt>
      <trkpt lat="46.15499" lon="-1.16779">
        <ele>2.5</ele>
        <time>2019-09-02T09:41:55Z</time>
      </trkpt>
      <trkpt lat="46.15497" lon="-1.16783">
        <ele>2.3</ele>
        <time>2019-09-02T09:41:58Z</time>
      </trkpt>
      <trkpt lat="46.15496" lon="-1.16787">
        <ele>2.1</ele>
        <time>2019-09-02T09:42:01Z</time>
      </trkpt>
      <trkpt lat="46.15496" lon="-1.16792">
        <ele>1.9</ele>
        <time>2019-09-02T09:42:05Z</time>
      </trkpt>
      <trkpt lat="46.15496" lon="-1.16796">
        <ele>1.8</ele>
        <time>2019-09-02T09:42:09Z</time>
      </trkpt>
      <trkpt lat="46.15495" lon="-1.168">
        <ele>1.7</ele>
        <time>2019-09-02T09:42:12Z</time>
      </trkpt>
      <trkpt lat="46.15494" lon="-1.16803">
        <ele>1.6</ele>
        <time>2019-09-02T09:42:15Z</time>
      </trkpt>
      <trkpt lat="46.15493" lon="-1.16807">
        <ele>1.5</ele>
        <time>2019-09-02T09:42:19Z</time>
      </trkpt>
      <trkpt lat="46.15492" lon="-1.16811">
        <ele>1.5</ele>
        <time>2019-09-02T09:42:22Z</time>
      </trkpt>
      <trkpt lat="46.15491" lon="-1.16815">
        <ele>1.4</ele>
        <time>2019-09-02T09:42:25Z</time>
      </trkpt>
      <trkpt lat="46.15491" lon="-1.1682">
        <ele>1.4</ele>
        <time>2019-09-02T09:42:29Z</time>
      </trkpt>
      <trkpt lat="46.15489" lon="-1.16824">
        <ele>1.4</ele>
        <time>2019-09-02T09:42:32Z</time>
      </trkpt>
      <trkpt lat="46.15488" lon="-1.16828">
        <ele>1.4</ele>
        <time>2019-09-02T09:42:36Z</time>
      </trkpt>
      <trkpt lat="46.15487" lon="-1.16833">
        <ele>1.4</ele>
        <time>2019-09-02T09:42:40Z</time>
      </trkpt>
      <trkpt lat="46.15486" lon="-1.16837">
        <ele>1.3</ele>
        <time>2019-09-02T09:42:44Z</time>
      </trkpt>
      <trkpt lat="46.15486" lon="-1.16842">
        <ele>1.3</ele>
        <time>2019-09-02T09:42:48Z</time>
      </trkpt>
      <trkpt lat="46.15485" lon="-1.16846">
        <ele>1.3</ele>
        <time>2019-09-02T09:42:52Z</time>
      </trkpt>
      <trkpt lat="46.15484" lon="-1.1685">
        <ele>1.3</ele>
        <time>2019-09-02T09:43:21Z</time>
      </trkpt>
      <trkpt lat="46.15483" lon="-1.16854">
        <ele>1.2</ele>
        <time>2019-09-02T09:43:24Z</time>
      </trkpt>
      <trkpt lat="46.15483" lon="-1.16858">
        <ele>1.2</ele>
        <time>2019-09-02T09:43:27Z</time>
      </trkpt>
      <trkpt lat="46.15483" lon="-1.16862">
        <ele>1.4</ele>
        <time>2019-09-02T09:43:30Z</time>
      </trkpt>
      <trkpt lat="46.15484" lon="-1.16866">
        <ele>1.6</ele>
        <time>2019-09-02T09:43:36Z</time>
      </trkpt>
      <trkpt lat="46.15482" lon="-1.16871">
        <ele>1.9</ele>
        <time>2019-09-02T09:43:41Z</time>
      </trkpt>
      <trkpt lat="46.15479" lon="-1.16873">
        <ele>2.1</ele>
        <time>2019-09-02T09:43:46Z</time>
      </trkpt>
      <trkpt lat="46.15479" lon="-1.16877">
        <ele>2.4</ele>
        <time>2019-09-02T09:44:00Z</time>
      </trkpt>
      <trkpt lat="46.1548" lon="-1.16882">
        <ele>2.6</ele>
        <time>2019-09-02T09:44:02Z</time>
      </trkpt>
      <trkpt lat="46.1548" lon="-1.16887">
        <ele>2.9</ele>
        <time>2019-09-02T09:44:04Z</time>
      </trkpt>
      <trkpt lat="46.1548" lon="-1.16891">
        <ele>3.1</ele>
        <time>2019-09-02T09:44:07Z</time>
      </trkpt>
      <trkpt lat="46.15479" lon="-1.16896">
        <ele>3.4</ele>
        <time>2019-09-02T09:44:10Z</time>
      </trkpt>
      <trkpt lat="46.15478" lon="-1.169">
        <ele>3.6</ele>
        <time>2019-09-02T09:44:12Z</time>
      </trkpt>
      <trkpt lat="46.15476" lon="-1.16904">
        <ele>3.8</ele>
        <time>2019-09-02T09:44:16Z</time>
      </trkpt>
      <trkpt lat="46.15475" lon="-1.16908">
        <ele>4.1</ele>
        <time>2019-09-02T09:44:19Z</time>
      </trkpt>
      <trkpt lat="46.15475" lon="-1.16913">
        <ele>3.8</ele>
        <time>2019-09-02T09:44:22Z</time>
      </trkpt>
      <trkpt lat="46.15474" lon="-1.16917">
        <ele>3.6</ele>
        <time>2019-09-02T09:44:25Z</time>
      </trkpt>
      <trkpt lat="46.15473" lon="-1.16921">
        <ele>3.4</ele>
        <time>2019-09-02T09:44:41Z</time>
      </trkpt>
      <trkpt lat="46.15474" lon="-1.16926">
        <ele>3.2</ele>
        <time>2019-09-02T09:44:44Z</time>
      </trkpt>
      <trkpt lat="46.15474" lon="-1.16932">
        <ele>3</ele>
        <time>2019-09-02T09:44:47Z</time>
      </trkpt>
      <trkpt lat="46.15474" lon="-1.16936">
        <ele>2.8</ele>
        <time>2019-09-02T09:44:51Z</time>
      </trkpt>
      <trkpt lat="46.15473" lon="-1.16941">
        <ele>2.6</ele>
        <time>2019-09-02T09:44:54Z</time>
      </trkpt>
      <trkpt lat="46.15474" lon="-1.16946">
        <ele>2.4</ele>
        <time>2019-09-02T09:44:58Z</time>
      </trkpt>
      <trkpt lat="46.15473" lon="-1.16951">
        <ele>2.2</ele>
        <time>2019-09-02T09:45:02Z</time>
      </trkpt>
      <trkpt lat="46.15472" lon="-1.16956">
        <ele>1.9</ele>
        <time>2019-09-02T09:45:05Z</time>
      </trkpt>
      <trkpt lat="46.15471" lon="-1.1696">
        <ele>1.8</ele>
        <time>2019-09-02T09:45:08Z</time>
      </trkpt>
      <trkpt lat="46.15471" lon="-1.16964">
        <ele>1.6</ele>
        <time>2019-09-02T09:45:10Z</time>
      </trkpt>
      <trkpt lat="46.1547" lon="-1.16968">
        <ele>3.8</ele>
        <time>2019-09-02T09:45:12Z</time>
      </trkpt>
      <trkpt lat="46.15468" lon="-1.16971">
        <ele>4.6</ele>
        <time>2019-09-02T09:45:14Z</time>
      </trkpt>
      <trkpt lat="46.15466" lon="-1.16975">
        <ele>5.6</ele>
        <time>2019-09-02T09:45:17Z</time>
      </trkpt>
      <trkpt lat="46.15465" lon="-1.16979">
        <ele>6.4</ele>
        <time>2019-09-02T09:45:19Z</time>
      </trkpt>
      <trkpt lat="46.15465" lon="-1.16983">
        <ele>7.3</ele>
        <time>2019-09-02T09:45:21Z</time>
      </trkpt>
      <trkpt lat="46.15466" lon="-1.16987">
        <ele>7.5</ele>
        <time>2019-09-02T09:45:24Z</time>
      </trkpt>
      <trkpt lat="46.15466" lon="-1.16992">
        <ele>7.6</ele>
        <time>2019-09-02T09:45:27Z</time>
      </trkpt>
      <trkpt lat="46.15468" lon="-1.16996">
        <ele>7.8</ele>
        <time>2019-09-02T09:45:30Z</time>
      </trkpt>
      <trkpt lat="46.15468" lon="-1.17001">
        <ele>8</ele>
        <time>2019-09-02T09:45:33Z</time>
      </trkpt>
      <trkpt lat="46.15468" lon="-1.17005">
        <ele>8.1</ele>
        <time>2019-09-02T09:45:35Z</time>
      </trkpt>
      <trkpt lat="46.15468" lon="-1.17009">
        <ele>8.2</ele>
        <time>2019-09-02T09:45:38Z</time>
      </trkpt>
      <trkpt lat="46.15468" lon="-1.17013">
        <ele>8.3</ele>
        <time>2019-09-02T09:45:40Z</time>
      </trkpt>
      <trkpt lat="46.15469" lon="-1.17018">
        <ele>8.5</ele>
        <time>2019-09-02T09:45:43Z</time>
      </trkpt>
      <trkpt lat="46.1547" lon="-1.17023">
        <ele>8.7</ele>
        <time>2019-09-02T09:45:46Z</time>
      </trkpt>
      <trkpt lat="46.15471" lon="-1.17027">
        <ele>8.8</ele>
        <time>2019-09-02T09:45:49Z</time>
      </trkpt>
      <trkpt lat="46.1547" lon="-1.17033">
        <ele>9.5</ele>
        <time>2019-09-02T09:45:52Z</time>
      </trkpt>
      <trkpt lat="46.15471" lon="-1.17037">
        <ele>9.6</ele>
        <time>2019-09-02T09:45:55Z</time>
      </trkpt>
      <trkpt lat="46.15475" lon="-1.17039">
        <ele>9.9</ele>
        <time>2019-09-02T09:45:59Z</time>
      </trkpt>
      <trkpt lat="46.15478" lon="-1.1704">
        <ele>10</ele>
        <time>2019-09-02T09:46:02Z</time>
      </trkpt>
      <trkpt lat="46.1548" lon="-1.17038">
        <ele>10.1</ele>
        <time>2019-09-02T09:46:04Z</time>
      </trkpt>
      <trkpt lat="46.15483" lon="-1.17036">
        <ele>10.2</ele>
        <time>2019-09-02T09:46:08Z</time>
      </trkpt>
      <trkpt lat="46.15486" lon="-1.17035">
        <ele>10.4</ele>
        <time>2019-09-02T09:46:11Z</time>
      </trkpt>
      <trkpt lat="46.1549" lon="-1.17035">
        <ele>10.6</ele>
        <time>2019-09-02T09:46:15Z</time>
      </trkpt>
      <trkpt lat="46.15493" lon="-1.17032">
        <ele>10.9</ele>
        <time>2019-09-02T09:46:19Z</time>
      </trkpt>
      <trkpt lat="46.15496" lon="-1.17031">
        <ele>11</ele>
        <time>2019-09-02T09:46:22Z</time>
      </trkpt>
      <trkpt lat="46.155" lon="-1.17029">
        <ele>11.2</ele>
        <time>2019-09-02T09:46:26Z</time>
      </trkpt>
      <trkpt lat="46.15502" lon="-1.1703">
        <ele>11.3</ele>
        <time>2019-09-02T09:46:29Z</time>
      </trkpt>
      <trkpt lat="46.15505" lon="-1.17028">
        <ele>11.6</ele>
        <time>2019-09-02T09:46:32Z</time>
      </trkpt>
      <trkpt lat="46.15508" lon="-1.17029">
        <ele>11.8</ele>
        <time>2019-09-02T09:46:35Z</time>
      </trkpt>
      <trkpt lat="46.15512" lon="-1.17028">
        <ele>12.1</ele>
        <time>2019-09-02T09:46:39Z</time>
      </trkpt>
      <trkpt lat="46.15514" lon="-1.17026">
        <ele>12.3</ele>
        <time>2019-09-02T09:46:41Z</time>
      </trkpt>
      <trkpt lat="46.15518" lon="-1.17025">
        <ele>12.6</ele>
        <time>2019-09-02T09:46:45Z</time>
      </trkpt>
      <trkpt lat="46.15521" lon="-1.17027">
        <ele>12.8</ele>
        <time>2019-09-02T09:46:48Z</time>
      </trkpt>
      <trkpt lat="46.15525" lon="-1.17025">
        <ele>13.1</ele>
        <time>2019-09-02T09:46:51Z</time>
      </trkpt>
      <trkpt lat="46.15528" lon="-1.17022">
        <ele>13.4</ele>
        <time>2019-09-02T09:46:54Z</time>
      </trkpt>
      <trkpt lat="46.15531" lon="-1.1702">
        <ele>13.4</ele>
        <time>2019-09-02T09:46:56Z</time>
      </trkpt>
      <trkpt lat="46.15534" lon="-1.17017">
        <ele>13.3</ele>
        <time>2019-09-02T09:47:00Z</time>
      </trkpt>
      <trkpt lat="46.15536" lon="-1.17014">
        <ele>13.3</ele>
        <time>2019-09-02T09:47:03Z</time>
      </trkpt>
      <trkpt lat="46.15537" lon="-1.17011">
        <ele>13.3</ele>
        <time>2019-09-02T09:47:06Z</time>
      </trkpt>
      <trkpt lat="46.15536" lon="-1.17007">
        <ele>13.3</ele>
        <time>2019-09-02T09:47:09Z</time>
      </trkpt>
      <trkpt lat="46.15537" lon="-1.17002">
        <ele>13.2</ele>
        <time>2019-09-02T09:47:12Z</time>
      </trkpt>
      <trkpt lat="46.15538" lon="-1.16997">
        <ele>13.2</ele>
        <time>2019-09-02T09:47:15Z</time>
      </trkpt>
      <trkpt lat="46.15538" lon="-1.16993">
        <ele>13.2</ele>
        <time>2019-09-02T09:47:18Z</time>
      </trkpt>
      <trkpt lat="46.15538" lon="-1.16989">
        <ele>13.2</ele>
        <time>2019-09-02T09:47:21Z</time>
      </trkpt>
      <trkpt lat="46.15538" lon="-1.16984">
        <ele>13.1</ele>
        <time>2019-09-02T09:47:25Z</time>
      </trkpt>
      <trkpt lat="46.15538" lon="-1.1698">
        <ele>13.1</ele>
        <time>2019-09-02T09:47:28Z</time>
      </trkpt>
      <trkpt lat="46.15538" lon="-1.16975">
        <ele>13.1</ele>
        <time>2019-09-02T09:47:31Z</time>
      </trkpt>
      <trkpt lat="46.15537" lon="-1.16981">
        <ele>13.1</ele>
        <time>2019-09-02T09:47:42Z</time>
      </trkpt>
      <trkpt lat="46.15534" lon="-1.16984">
        <ele>13.1</ele>
        <time>2019-09-02T09:47:46Z</time>
      </trkpt>
      <trkpt lat="46.15532" lon="-1.16986">
        <ele>13.1</ele>
        <time>2019-09-02T09:47:50Z</time>
      </trkpt>
      <trkpt lat="46.1553" lon="-1.16983">
        <ele>13</ele>
        <time>2019-09-02T09:47:52Z</time>
      </trkpt>
      <trkpt lat="46.15528" lon="-1.1698">
        <ele>13</ele>
        <time>2019-09-02T09:47:54Z</time>
      </trkpt>
      <trkpt lat="46.15528" lon="-1.16985">
        <ele>13</ele>
        <time>2019-09-02T09:48:09Z</time>
      </trkpt>
      <trkpt lat="46.15531" lon="-1.16984">
        <ele>13</ele>
        <time>2019-09-02T09:48:22Z</time>
      </trkpt>
      <trkpt lat="46.15534" lon="-1.16983">
        <ele>13</ele>
        <time>2019-09-02T09:48:27Z</time>
      </trkpt>
      <trkpt lat="46.15538" lon="-1.16982">
        <ele>12.9</ele>
        <time>2019-09-02T09:48:31Z</time>
      </trkpt>
      <trkpt lat="46.1554" lon="-1.1698">
        <ele>12.9</ele>
        <time>2019-09-02T09:48:33Z</time>
      </trkpt>
      <trkpt lat="46.15543" lon="-1.16979">
        <ele>12.9</ele>
        <time>2019-09-02T09:48:36Z</time>
      </trkpt>
      <trkpt lat="46.15545" lon="-1.16976">
        <ele>12.9</ele>
        <time>2019-09-02T09:48:39Z</time>
      </trkpt>
      <trkpt lat="46.15547" lon="-1.16971">
        <ele>12.9</ele>
        <time>2019-09-02T09:48:43Z</time>
      </trkpt>
      <trkpt lat="46.15545" lon="-1.16967">
        <ele>12.9</ele>
        <time>2019-09-02T09:48:47Z</time>
      </trkpt>
      <trkpt lat="46.15543" lon="-1.16963">
        <ele>12.8</ele>
        <time>2019-09-02T09:48:49Z</time>
      </trkpt>
      <trkpt lat="46.15542" lon="-1.16959">
        <ele>12.8</ele>
        <time>2019-09-02T09:48:51Z</time>
      </trkpt>
      <trkpt lat="46.15539" lon="-1.16953">
        <ele>12.8</ele>
        <time>2019-09-02T09:48:56Z</time>
      </trkpt>
      <trkpt lat="46.15539" lon="-1.16948">
        <ele>12.5</ele>
        <time>2019-09-02T09:48:59Z</time>
      </trkpt>
      <trkpt lat="46.15539" lon="-1.16943">
        <ele>12.4</ele>
        <time>2019-09-02T09:49:02Z</time>
      </trkpt>
      <trkpt lat="46.1554" lon="-1.16939">
        <ele>12.3</ele>
        <time>2019-09-02T09:49:05Z</time>
      </trkpt>
      <trkpt lat="46.15541" lon="-1.16934">
        <ele>12.1</ele>
        <time>2019-09-02T09:49:08Z</time>
      </trkpt>
      <trkpt lat="46.15542" lon="-1.16929">
        <ele>12</ele>
        <time>2019-09-02T09:49:10Z</time>
      </trkpt>
      <trkpt lat="46.15541" lon="-1.16925">
        <ele>11.9</ele>
        <time>2019-09-02T09:49:13Z</time>
      </trkpt>
      <trkpt lat="46.15541" lon="-1.1692">
        <ele>11.8</ele>
        <time>2019-09-02T09:49:16Z</time>
      </trkpt>
      <trkpt lat="46.1554" lon="-1.16916">
        <ele>11.7</ele>
        <time>2019-09-02T09:49:19Z</time>
      </trkpt>
      <trkpt lat="46.15539" lon="-1.1691">
        <ele>11.6</ele>
        <time>2019-09-02T09:49:24Z</time>
      </trkpt>
      <trkpt lat="46.15539" lon="-1.16906">
        <ele>11.6</ele>
        <time>2019-09-02T09:49:26Z</time>
      </trkpt>
      <trkpt lat="46.15541" lon="-1.169">
        <ele>11.5</ele>
        <time>2019-09-02T09:49:29Z</time>
      </trkpt>
      <trkpt lat="46.15539" lon="-1.16896">
        <ele>11.5</ele>
        <time>2019-09-02T09:49:32Z</time>
      </trkpt>
      <trkpt lat="46.15539" lon="-1.16892">
        <ele>11.4</ele>
        <time>2019-09-02T09:49:34Z</time>
      </trkpt>
      <trkpt lat="46.15541" lon="-1.16887">
        <ele>11.4</ele>
        <time>2019-09-02T09:49:38Z</time>
      </trkpt>
      <trkpt lat="46.15542" lon="-1.16882">
        <ele>11.3</ele>
        <time>2019-09-02T09:49:40Z</time>
      </trkpt>
      <trkpt lat="46.15544" lon="-1.16878">
        <ele>11.2</ele>
        <time>2019-09-02T09:49:42Z</time>
      </trkpt>
      <trkpt lat="46.15544" lon="-1.16874">
        <ele>11.1</ele>
        <time>2019-09-02T09:49:45Z</time>
      </trkpt>
      <trkpt lat="46.15545" lon="-1.1687">
        <ele>11.1</ele>
        <time>2019-09-02T09:49:47Z</time>
      </trkpt>
      <trkpt lat="46.15545" lon="-1.16865">
        <ele>11</ele>
        <time>2019-09-02T09:49:51Z</time>
      </trkpt>
      <trkpt lat="46.15544" lon="-1.16861">
        <ele>10.9</ele>
        <time>2019-09-02T09:49:54Z</time>
      </trkpt>
      <trkpt lat="46.15543" lon="-1.16856">
        <ele>10.9</ele>
        <time>2019-09-02T09:50:00Z</time>
      </trkpt>
      <trkpt lat="46.15542" lon="-1.16852">
        <ele>10.8</ele>
        <time>2019-09-02T09:50:03Z</time>
      </trkpt>
      <trkpt lat="46.15538" lon="-1.16852">
        <ele>10.7</ele>
        <time>2019-09-02T09:50:14Z</time>
      </trkpt>
      <trkpt lat="46.15539" lon="-1.16847">
        <ele>10.6</ele>
        <time>2019-09-02T09:50:16Z</time>
      </trkpt>
      <trkpt lat="46.15539" lon="-1.16842">
        <ele>10.5</ele>
        <time>2019-09-02T09:50:18Z</time>
      </trkpt>
      <trkpt lat="46.15541" lon="-1.16839">
        <ele>10.4</ele>
        <time>2019-09-02T09:50:20Z</time>
      </trkpt>
      <trkpt lat="46.15542" lon="-1.16835">
        <ele>10.3</ele>
        <time>2019-09-02T09:50:23Z</time>
      </trkpt>
      <trkpt lat="46.15543" lon="-1.1683">
        <ele>10.1</ele>
        <time>2019-09-02T09:50:27Z</time>
      </trkpt>
      <trkpt lat="46.15544" lon="-1.16824">
        <ele>10</ele>
        <time>2019-09-02T09:50:30Z</time>
      </trkpt>
      <trkpt lat="46.15544" lon="-1.16819">
        <ele>9.9</ele>
        <time>2019-09-02T09:50:33Z</time>
      </trkpt>
      <trkpt lat="46.15543" lon="-1.16814">
        <ele>9.8</ele>
        <time>2019-09-02T09:50:36Z</time>
      </trkpt>
      <trkpt lat="46.15544" lon="-1.1681">
        <ele>9.7</ele>
        <time>2019-09-02T09:50:39Z</time>
      </trkpt>
      <trkpt lat="46.15544" lon="-1.16806">
        <ele>9.7</ele>
        <time>2019-09-02T09:50:41Z</time>
      </trkpt>
      <trkpt lat="46.15543" lon="-1.16798">
        <ele>9.5</ele>
        <time>2019-09-02T09:50:46Z</time>
      </trkpt>
      <trkpt lat="46.15544" lon="-1.16793">
        <ele>9.5</ele>
        <time>2019-09-02T09:50:49Z</time>
      </trkpt>
      <trkpt lat="46.15544" lon="-1.16789">
        <ele>9.4</ele>
        <time>2019-09-02T09:50:52Z</time>
      </trkpt>
      <trkpt lat="46.15544" lon="-1.16783">
        <ele>9.3</ele>
        <time>2019-09-02T09:50:55Z</time>
      </trkpt>
      <trkpt lat="46.15545" lon="-1.16778">
        <ele>9.3</ele>
        <time>2019-09-02T09:50:58Z</time>
      </trkpt>
      <trkpt lat="46.15546" lon="-1.16773">
        <ele>9.2</ele>
        <time>2019-09-02T09:51:01Z</time>
      </trkpt>
      <trkpt lat="46.15546" lon="-1.16767">
        <ele>9.1</ele>
        <time>2019-09-02T09:51:04Z</time>
      </trkpt>
      <trkpt lat="46.15547" lon="-1.16762">
        <ele>9.1</ele>
        <time>2019-09-02T09:51:07Z</time>
      </trkpt>
      <trkpt lat="46.15548" lon="-1.16757">
        <ele>9</ele>
        <time>2019-09-02T09:51:10Z</time>
      </trkpt>
      <trkpt lat="46.15547" lon="-1.16752">
        <ele>9</ele>
        <time>2019-09-02T09:51:13Z</time>
      </trkpt>
      <trkpt lat="46.15549" lon="-1.16747">
        <ele>8.9</ele>
        <time>2019-09-02T09:51:16Z</time>
      </trkpt>
      <trkpt lat="46.15551" lon="-1.16744">
        <ele>8.9</ele>
        <time>2019-09-02T09:51:19Z</time>
      </trkpt>
      <trkpt lat="46.15551" lon="-1.16739">
        <ele>8.9</ele>
        <time>2019-09-02T09:51:21Z</time>
      </trkpt>
      <trkpt lat="46.15553" lon="-1.16736">
        <ele>8.9</ele>
        <time>2019-09-02T09:51:23Z</time>
      </trkpt>
      <trkpt lat="46.15556" lon="-1.16733">
        <ele>8.9</ele>
        <time>2019-09-02T09:51:26Z</time>
      </trkpt>
      <trkpt lat="46.15556" lon="-1.16728">
        <ele>8.9</ele>
        <time>2019-09-02T09:51:29Z</time>
      </trkpt>
      <trkpt lat="46.15555" lon="-1.16724">
        <ele>8.9</ele>
        <time>2019-09-02T09:51:31Z</time>
      </trkpt>
      <trkpt lat="46.15555" lon="-1.1672">
        <ele>8.9</ele>
        <time>2019-09-02T09:51:33Z</time>
      </trkpt>
      <trkpt lat="46.15555" lon="-1.16714">
        <ele>9</ele>
        <time>2019-09-02T09:51:36Z</time>
      </trkpt>
      <trkpt lat="46.15555" lon="-1.1671">
        <ele>9</ele>
        <time>2019-09-02T09:51:40Z</time>
      </trkpt>
      <trkpt lat="46.15554" lon="-1.16705">
        <ele>9</ele>
        <time>2019-09-02T09:51:43Z</time>
      </trkpt>
      <trkpt lat="46.15555" lon="-1.16701">
        <ele>9</ele>
        <time>2019-09-02T09:51:45Z</time>
      </trkpt>
      <trkpt lat="46.15554" lon="-1.16698">
        <ele>8.9</ele>
        <time>2019-09-02T09:51:47Z</time>
      </trkpt>
      <trkpt lat="46.15554" lon="-1.16693">
        <ele>8.9</ele>
        <time>2019-09-02T09:51:50Z</time>
      </trkpt>
      <trkpt lat="46.15553" lon="-1.16688">
        <ele>8.9</ele>
        <time>2019-09-02T09:51:53Z</time>
      </trkpt>
      <trkpt lat="46.15552" lon="-1.16682">
        <ele>8.8</ele>
        <time>2019-09-02T09:51:56Z</time>
      </trkpt>
      <trkpt lat="46.15553" lon="-1.16677">
        <ele>8.7</ele>
        <time>2019-09-02T09:51:59Z</time>
      </trkpt>
      <trkpt lat="46.15554" lon="-1.16673">
        <ele>8.7</ele>
        <time>2019-09-02T09:52:01Z</time>
      </trkpt>
      <trkpt lat="46.15557" lon="-1.1667">
        <ele>8.6</ele>
        <time>2019-09-02T09:52:04Z</time>
      </trkpt>
      <trkpt lat="46.15557" lon="-1.16665">
        <ele>8.5</ele>
        <time>2019-09-02T09:52:08Z</time>
      </trkpt>
      <trkpt lat="46.15557" lon="-1.16661">
        <ele>8.5</ele>
        <time>2019-09-02T09:52:11Z</time>
      </trkpt>
      <trkpt lat="46.15556" lon="-1.16655">
        <ele>8.4</ele>
        <time>2019-09-02T09:52:16Z</time>
      </trkpt>
      <trkpt lat="46.15556" lon="-1.1665">
        <ele>8.3</ele>
        <time>2019-09-02T09:52:19Z</time>
      </trkpt>
      <trkpt lat="46.15556" lon="-1.16645">
        <ele>8.2</ele>
        <time>2019-09-02T09:52:22Z</time>
      </trkpt>
      <trkpt lat="46.15557" lon="-1.1664">
        <ele>8.2</ele>
        <time>2019-09-02T09:52:25Z</time>
      </trkpt>
      <trkpt lat="46.15561" lon="-1.16635">
        <ele>8.1</ele>
        <time>2019-09-02T09:52:30Z</time>
      </trkpt>
      <trkpt lat="46.15563" lon="-1.16632">
        <ele>8</ele>
        <time>2019-09-02T09:52:32Z</time>
      </trkpt>
      <trkpt lat="46.15563" lon="-1.16626">
        <ele>7.8</ele>
        <time>2019-09-02T09:52:35Z</time>
      </trkpt>
      <trkpt lat="46.15561" lon="-1.16622">
        <ele>7.8</ele>
        <time>2019-09-02T09:52:37Z</time>
      </trkpt>
      <trkpt lat="46.15562" lon="-1.16617">
        <ele>7.7</ele>
        <time>2019-09-02T09:52:41Z</time>
      </trkpt>
      <trkpt lat="46.15562" lon="-1.16612">
        <ele>7.7</ele>
        <time>2019-09-02T09:52:45Z</time>
      </trkpt>
      <trkpt lat="46.15562" lon="-1.16608">
        <ele>7.6</ele>
        <time>2019-09-02T09:52:47Z</time>
      </trkpt>
      <trkpt lat="46.15563" lon="-1.16603">
        <ele>7.6</ele>
        <time>2019-09-02T09:52:52Z</time>
      </trkpt>
      <trkpt lat="46.15563" lon="-1.16599">
        <ele>7.6</ele>
        <time>2019-09-02T09:52:54Z</time>
      </trkpt>
      <trkpt lat="46.15564" lon="-1.16595">
        <ele>7.5</ele>
        <time>2019-09-02T09:52:57Z</time>
      </trkpt>
      <trkpt lat="46.15564" lon="-1.16591">
        <ele>7.5</ele>
        <time>2019-09-02T09:53:00Z</time>
      </trkpt>
      <trkpt lat="46.15563" lon="-1.16585">
        <ele>7.4</ele>
        <time>2019-09-02T09:53:03Z</time>
      </trkpt>
      <trkpt lat="46.15561" lon="-1.16582">
        <ele>7.3</ele>
        <time>2019-09-02T09:53:06Z</time>
      </trkpt>
      <trkpt lat="46.15558" lon="-1.16578">
        <ele>7.3</ele>
        <time>2019-09-02T09:53:09Z</time>
      </trkpt>
      <trkpt lat="46.15558" lon="-1.16573">
        <ele>7.2</ele>
        <time>2019-09-02T09:53:14Z</time>
      </trkpt>
      <trkpt lat="46.15558" lon="-1.16569">
        <ele>7.2</ele>
        <time>2019-09-02T09:53:19Z</time>
      </trkpt>
      <trkpt lat="46.15558" lon="-1.16563">
        <ele>7.1</ele>
        <time>2019-09-02T09:53:24Z</time>
      </trkpt>
      <trkpt lat="46.15559" lon="-1.16559">
        <ele>7</ele>
        <time>2019-09-02T09:53:29Z</time>
      </trkpt>
      <trkpt lat="46.1556" lon="-1.16555">
        <ele>7</ele>
        <time>2019-09-02T09:53:32Z</time>
      </trkpt>
      <trkpt lat="46.15561" lon="-1.16551">
        <ele>6.9</ele>
        <time>2019-09-02T09:53:35Z</time>
      </trkpt>
      <trkpt lat="46.15558" lon="-1.16548">
        <ele>6.9</ele>
        <time>2019-09-02T09:53:40Z</time>
      </trkpt>
      <trkpt lat="46.15555" lon="-1.16548">
        <ele>6.8</ele>
        <time>2019-09-02T09:53:44Z</time>
      </trkpt>
      <trkpt lat="46.15552" lon="-1.16544">
        <ele>6.8</ele>
        <time>2019-09-02T09:53:47Z</time>
      </trkpt>
      <trkpt lat="46.15551" lon="-1.1654">
        <ele>6.8</ele>
        <time>2019-09-02T09:53:51Z</time>
      </trkpt>
      <trkpt lat="46.15552" lon="-1.16536">
        <ele>6.8</ele>
        <time>2019-09-02T09:53:54Z</time>
      </trkpt>
      <trkpt lat="46.1555" lon="-1.16532">
        <ele>6.7</ele>
        <time>2019-09-02T09:53:57Z</time>
      </trkpt>
      <trkpt lat="46.15551" lon="-1.16527">
        <ele>6.7</ele>
        <time>2019-09-02T09:54:02Z</time>
      </trkpt>
      <trkpt lat="46.15552" lon="-1.16523">
        <ele>6.6</ele>
        <time>2019-09-02T09:54:05Z</time>
      </trkpt>
      <trkpt lat="46.15553" lon="-1.16518">
        <ele>6.6</ele>
        <time>2019-09-02T09:54:07Z</time>
      </trkpt>
      <trkpt lat="46.15553" lon="-1.16513">
        <ele>6.6</ele>
        <time>2019-09-02T09:54:10Z</time>
      </trkpt>
      <trkpt lat="46.15553" lon="-1.16509">
        <ele>6.5</ele>
        <time>2019-09-02T09:54:13Z</time>
      </trkpt>
      <trkpt lat="46.15553" lon="-1.16504">
        <ele>6.5</ele>
        <time>2019-09-02T09:54:16Z</time>
      </trkpt>
      <trkpt lat="46.15554" lon="-1.165">
        <ele>6.4</ele>
        <time>2019-09-02T09:54:19Z</time>
      </trkpt>
      <trkpt lat="46.15555" lon="-1.16495">
        <ele>6.4</ele>
        <time>2019-09-02T09:54:22Z</time>
      </trkpt>
      <trkpt lat="46.15555" lon="-1.1649">
        <ele>6.3</ele>
        <time>2019-09-02T09:54:25Z</time>
      </trkpt>
      <trkpt lat="46.15558" lon="-1.16488">
        <ele>6.3</ele>
        <time>2019-09-02T09:54:28Z</time>
      </trkpt>
      <trkpt lat="46.1556" lon="-1.16485">
        <ele>6.2</ele>
        <time>2019-09-02T09:54:31Z</time>
      </trkpt>
      <trkpt lat="46.15563" lon="-1.16483">
        <ele>6.2</ele>
        <time>2019-09-02T09:54:34Z</time>
      </trkpt>
      <trkpt lat="46.15566" lon="-1.16482">
        <ele>6.1</ele>
        <time>2019-09-02T09:54:37Z</time>
      </trkpt>
      <trkpt lat="46.15569" lon="-1.16482">
        <ele>6.1</ele>
        <time>2019-09-02T09:54:40Z</time>
      </trkpt>
      <trkpt lat="46.15571" lon="-1.16478">
        <ele>6</ele>
        <time>2019-09-02T09:54:43Z</time>
      </trkpt>
      <trkpt lat="46.15571" lon="-1.16474">
        <ele>5.8</ele>
        <time>2019-09-02T09:54:49Z</time>
      </trkpt>
      <trkpt lat="46.15571" lon="-1.16469">
        <ele>5.7</ele>
        <time>2019-09-02T09:54:52Z</time>
      </trkpt>
      <trkpt lat="46.15571" lon="-1.16464">
        <ele>5.6</ele>
        <time>2019-09-02T09:54:55Z</time>
      </trkpt>
      <trkpt lat="46.1557" lon="-1.16458">
        <ele>5.5</ele>
        <time>2019-09-02T09:54:58Z</time>
      </trkpt>
      <trkpt lat="46.15571" lon="-1.16454">
        <ele>5.4</ele>
        <time>2019-09-02T09:55:00Z</time>
      </trkpt>
      <trkpt lat="46.15572" lon="-1.16451">
        <ele>5.3</ele>
        <time>2019-09-02T09:55:03Z</time>
      </trkpt>
      <trkpt lat="46.15573" lon="-1.16442">
        <ele>5.1</ele>
        <time>2019-09-02T09:55:08Z</time>
      </trkpt>
      <trkpt lat="46.15574" lon="-1.16437">
        <ele>5</ele>
        <time>2019-09-02T09:55:11Z</time>
      </trkpt>
      <trkpt lat="46.15574" lon="-1.16433">
        <ele>4.9</ele>
        <time>2019-09-02T09:55:16Z</time>
      </trkpt>
      <trkpt lat="46.15575" lon="-1.16428">
        <ele>4.8</ele>
        <time>2019-09-02T09:55:19Z</time>
      </trkpt>
      <trkpt lat="46.15576" lon="-1.16424">
        <ele>4.7</ele>
        <time>2019-09-02T09:55:21Z</time>
      </trkpt>
      <trkpt lat="46.15575" lon="-1.16417">
        <ele>4.6</ele>
        <time>2019-09-02T09:55:26Z</time>
      </trkpt>
      <trkpt lat="46.15575" lon="-1.16412">
        <ele>4.5</ele>
        <time>2019-09-02T09:55:28Z</time>
      </trkpt>
      <trkpt lat="46.15575" lon="-1.16407">
        <ele>4.5</ele>
        <time>2019-09-02T09:55:31Z</time>
      </trkpt>
      <trkpt lat="46.15576" lon="-1.16401">
        <ele>4.3</ele>
        <time>2019-09-02T09:55:36Z</time>
      </trkpt>
      <trkpt lat="46.15576" lon="-1.16397">
        <ele>4.2</ele>
        <time>2019-09-02T09:55:40Z</time>
      </trkpt>
      <trkpt lat="46.15577" lon="-1.16389">
        <ele>4</ele>
        <time>2019-09-02T09:55:44Z</time>
      </trkpt>
      <trkpt lat="46.15577" lon="-1.16385">
        <ele>4</ele>
        <time>2019-09-02T09:55:46Z</time>
      </trkpt>
      <trkpt lat="46.15577" lon="-1.1638">
        <ele>3.5</ele>
        <time>2019-09-02T09:55:48Z</time>
      </trkpt>
      <trkpt lat="46.15575" lon="-1.16375">
        <ele>3.4</ele>
        <time>2019-09-02T09:55:51Z</time>
      </trkpt>
      <trkpt lat="46.15573" lon="-1.16371">
        <ele>3.3</ele>
        <time>2019-09-02T09:55:54Z</time>
      </trkpt>
      <trkpt lat="46.15573" lon="-1.16367">
        <ele>3.1</ele>
        <time>2019-09-02T09:55:56Z</time>
      </trkpt>
      <trkpt lat="46.15572" lon="-1.16362">
        <ele>2.9</ele>
        <time>2019-09-02T09:55:58Z</time>
      </trkpt>
      <trkpt lat="46.15572" lon="-1.16357">
        <ele>2.9</ele>
        <time>2019-09-02T09:56:01Z</time>
      </trkpt>
      <trkpt lat="46.15573" lon="-1.16351">
        <ele>2.9</ele>
        <time>2019-09-02T09:56:04Z</time>
      </trkpt>
      <trkpt lat="46.15574" lon="-1.16347">
        <ele>2.9</ele>
        <time>2019-09-02T09:56:07Z</time>
      </trkpt>
      <trkpt lat="46.15574" lon="-1.16343">
        <ele>2.9</ele>
        <time>2019-09-02T09:56:10Z</time>
      </trkpt>
      <trkpt lat="46.15574" lon="-1.16337">
        <ele>2.9</ele>
        <time>2019-09-02T09:56:13Z</time>
      </trkpt>
      <trkpt lat="46.15575" lon="-1.16332">
        <ele>2.9</ele>
        <time>2019-09-02T09:56:16Z</time>
      </trkpt>
      <trkpt lat="46.15575" lon="-1.16327">
        <ele>2.9</ele>
        <time>2019-09-02T09:56:19Z</time>
      </trkpt>
      <trkpt lat="46.15575" lon="-1.16322">
        <ele>2.8</ele>
        <time>2019-09-02T09:56:22Z</time>
      </trkpt>
      <trkpt lat="46.15575" lon="-1.16317">
        <ele>2.8</ele>
        <time>2019-09-02T09:56:25Z</time>
      </trkpt>
      <trkpt lat="46.15575" lon="-1.16311">
        <ele>2.8</ele>
        <time>2019-09-02T09:56:28Z</time>
      </trkpt>
      <trkpt lat="46.15575" lon="-1.16306">
        <ele>2.8</ele>
        <time>2019-09-02T09:56:31Z</time>
      </trkpt>
      <trkpt lat="46.15574" lon="-1.16301">
        <ele>2.8</ele>
        <time>2019-09-02T09:56:34Z</time>
      </trkpt>
      <trkpt lat="46.15575" lon="-1.16296">
        <ele>2.9</ele>
        <time>2019-09-02T09:56:38Z</time>
      </trkpt>
      <trkpt lat="46.15575" lon="-1.16291">
        <ele>2.9</ele>
        <time>2019-09-02T09:56:41Z</time>
      </trkpt>
      <trkpt lat="46.15575" lon="-1.16287">
        <ele>2.9</ele>
        <time>2019-09-02T09:56:44Z</time>
      </trkpt>
      <trkpt lat="46.15575" lon="-1.16283">
        <ele>2.9</ele>
        <time>2019-09-02T09:56:47Z</time>
      </trkpt>
      <trkpt lat="46.15574" lon="-1.16278">
        <ele>2.9</ele>
        <time>2019-09-02T09:56:50Z</time>
      </trkpt>
      <trkpt lat="46.15574" lon="-1.16273">
        <ele>2.9</ele>
        <time>2019-09-02T09:56:53Z</time>
      </trkpt>
      <trkpt lat="46.15573" lon="-1.16268">
        <ele>3</ele>
        <time>2019-09-02T09:56:56Z</time>
      </trkpt>
      <trkpt lat="46.15573" lon="-1.16262">
        <ele>3</ele>
        <time>2019-09-02T09:56:59Z</time>
      </trkpt>
      <trkpt lat="46.15573" lon="-1.16258">
        <ele>3.1</ele>
        <time>2019-09-02T09:57:01Z</time>
      </trkpt>
      <trkpt lat="46.15574" lon="-1.16254">
        <ele>3.1</ele>
        <time>2019-09-02T09:57:04Z</time>
      </trkpt>
      <trkpt lat="46.15574" lon="-1.1625">
        <ele>3.1</ele>
        <time>2019-09-02T09:57:07Z</time>
      </trkpt>
      <trkpt lat="46.15574" lon="-1.16245">
        <ele>3.2</ele>
        <time>2019-09-02T09:57:10Z</time>
      </trkpt>
      <trkpt lat="46.15573" lon="-1.16241">
        <ele>3.2</ele>
        <time>2019-09-02T09:57:12Z</time>
      </trkpt>
      <trkpt lat="46.15573" lon="-1.16235">
        <ele>3.2</ele>
        <time>2019-09-02T09:57:15Z</time>
      </trkpt>
      <trkpt lat="46.15573" lon="-1.16231">
        <ele>3.2</ele>
        <time>2019-09-02T09:57:17Z</time>
      </trkpt>
      <trkpt lat="46.15573" lon="-1.16226">
        <ele>3.2</ele>
        <time>2019-09-02T09:57:20Z</time>
      </trkpt>
      <trkpt lat="46.15573" lon="-1.16222">
        <ele>3.2</ele>
        <time>2019-09-02T09:57:22Z</time>
      </trkpt>
      <trkpt lat="46.15572" lon="-1.16218">
        <ele>3.2</ele>
        <time>2019-09-02T09:57:25Z</time>
      </trkpt>
      <trkpt lat="46.15572" lon="-1.16212">
        <ele>3.1</ele>
        <time>2019-09-02T09:57:28Z</time>
      </trkpt>
      <trkpt lat="46.15572" lon="-1.16209">
        <ele>3.1</ele>
        <time>2019-09-02T09:57:31Z</time>
      </trkpt>
      <trkpt lat="46.15571" lon="-1.16204">
        <ele>3.1</ele>
        <time>2019-09-02T09:57:34Z</time>
      </trkpt>
      <trkpt lat="46.15573" lon="-1.16198">
        <ele>3.1</ele>
        <time>2019-09-02T09:57:37Z</time>
      </trkpt>
      <trkpt lat="46.15573" lon="-1.16194">
        <ele>3.1</ele>
        <time>2019-09-02T09:57:41Z</time>
      </trkpt>
      <trkpt lat="46.15574" lon="-1.16189">
        <ele>3.1</ele>
        <time>2019-09-02T09:57:44Z</time>
      </trkpt>
      <trkpt lat="46.15572" lon="-1.16184">
        <ele>3</ele>
        <time>2019-09-02T09:57:47Z</time>
      </trkpt>
      <trkpt lat="46.15572" lon="-1.1618">
        <ele>2.9</ele>
        <time>2019-09-02T09:57:50Z</time>
      </trkpt>
      <trkpt lat="46.15572" lon="-1.16174">
        <ele>2.8</ele>
        <time>2019-09-02T09:57:53Z</time>
      </trkpt>
      <trkpt lat="46.15571" lon="-1.1617">
        <ele>2.8</ele>
        <time>2019-09-02T09:57:56Z</time>
      </trkpt>
      <trkpt lat="46.1557" lon="-1.16164">
        <ele>2.8</ele>
        <time>2019-09-02T09:57:59Z</time>
      </trkpt>
      <trkpt lat="46.15569" lon="-1.1616">
        <ele>2.8</ele>
        <time>2019-09-02T09:58:02Z</time>
      </trkpt>
      <trkpt lat="46.15566" lon="-1.16156">
        <ele>2.8</ele>
        <time>2019-09-02T09:58:05Z</time>
      </trkpt>
      <trkpt lat="46.15565" lon="-1.16151">
        <ele>2.7</ele>
        <time>2019-09-02T09:58:08Z</time>
      </trkpt>
      <trkpt lat="46.15564" lon="-1.16147">
        <ele>2.7</ele>
        <time>2019-09-02T09:58:11Z</time>
      </trkpt>
      <trkpt lat="46.15562" lon="-1.16142">
        <ele>2.7</ele>
        <time>2019-09-02T09:58:14Z</time>
      </trkpt>
      <trkpt lat="46.1556" lon="-1.16138">
        <ele>2.7</ele>
        <time>2019-09-02T09:58:17Z</time>
      </trkpt>
      <trkpt lat="46.15559" lon="-1.16135">
        <ele>2.6</ele>
        <time>2019-09-02T09:58:19Z</time>
      </trkpt>
      <trkpt lat="46.15557" lon="-1.1613">
        <ele>2.6</ele>
        <time>2019-09-02T09:58:22Z</time>
      </trkpt>
      <trkpt lat="46.15556" lon="-1.16126">
        <ele>2.6</ele>
        <time>2019-09-02T09:58:25Z</time>
      </trkpt>
      <trkpt lat="46.15555" lon="-1.16122">
        <ele>2.5</ele>
        <time>2019-09-02T09:58:28Z</time>
      </trkpt>
      <trkpt lat="46.15553" lon="-1.16118">
        <ele>2.5</ele>
        <time>2019-09-02T09:58:31Z</time>
      </trkpt>
      <trkpt lat="46.15553" lon="-1.16113">
        <ele>2.4</ele>
        <time>2019-09-02T09:58:34Z</time>
      </trkpt>
      <trkpt lat="46.15553" lon="-1.16108">
        <ele>2.4</ele>
        <time>2019-09-02T09:58:37Z</time>
      </trkpt>
      <trkpt lat="46.15554" lon="-1.16103">
        <ele>2.3</ele>
        <time>2019-09-02T09:58:40Z</time>
      </trkpt>
      <trkpt lat="46.15554" lon="-1.16098">
        <ele>2.3</ele>
        <time>2019-09-02T09:58:43Z</time>
      </trkpt>
      <trkpt lat="46.15555" lon="-1.16093">
        <ele>2.2</ele>
        <time>2019-09-02T09:58:46Z</time>
      </trkpt>
      <trkpt lat="46.15556" lon="-1.16089">
        <ele>2.2</ele>
        <time>2019-09-02T09:58:48Z</time>
      </trkpt>
      <trkpt lat="46.15557" lon="-1.16085">
        <ele>2.1</ele>
        <time>2019-09-02T09:58:50Z</time>
      </trkpt>
      <trkpt lat="46.15557" lon="-1.1608">
        <ele>2</ele>
        <time>2019-09-02T09:58:53Z</time>
      </trkpt>
      <trkpt lat="46.15557" lon="-1.16076">
        <ele>2</ele>
        <time>2019-09-02T09:58:57Z</time>
      </trkpt>
      <trkpt lat="46.15557" lon="-1.16071">
        <ele>2</ele>
        <time>2019-09-02T09:59:00Z</time>
      </trkpt>
      <trkpt lat="46.15558" lon="-1.16066">
        <ele>2.1</ele>
        <time>2019-09-02T09:59:03Z</time>
      </trkpt>
      <trkpt lat="46.15558" lon="-1.16062">
        <ele>2.1</ele>
        <time>2019-09-02T09:59:06Z</time>
      </trkpt>
      <trkpt lat="46.15558" lon="-1.16057">
        <ele>2.3</ele>
        <time>2019-09-02T09:59:10Z</time>
      </trkpt>
      <trkpt lat="46.15559" lon="-1.16053">
        <ele>2.4</ele>
        <time>2019-09-02T09:59:13Z</time>
      </trkpt>
      <trkpt lat="46.15561" lon="-1.16049">
        <ele>2.6</ele>
        <time>2019-09-02T09:59:15Z</time>
      </trkpt>
      <trkpt lat="46.15562" lon="-1.16045">
        <ele>2.7</ele>
        <time>2019-09-02T09:59:18Z</time>
      </trkpt>
      <trkpt lat="46.15562" lon="-1.1604">
        <ele>2.9</ele>
        <time>2019-09-02T09:59:22Z</time>
      </trkpt>
      <trkpt lat="46.15562" lon="-1.16035">
        <ele>3</ele>
        <time>2019-09-02T09:59:26Z</time>
      </trkpt>
      <trkpt lat="46.15563" lon="-1.16029">
        <ele>3.1</ele>
        <time>2019-09-02T09:59:30Z</time>
      </trkpt>
      <trkpt lat="46.15563" lon="-1.16024">
        <ele>3.3</ele>
        <time>2019-09-02T09:59:32Z</time>
      </trkpt>
      <trkpt lat="46.15563" lon="-1.1602">
        <ele>3.4</ele>
        <time>2019-09-02T09:59:34Z</time>
      </trkpt>
      <trkpt lat="46.15563" lon="-1.16015">
        <ele>3.5</ele>
        <time>2019-09-02T09:59:36Z</time>
      </trkpt>
      <trkpt lat="46.15562" lon="-1.1601">
        <ele>3.6</ele>
        <time>2019-09-02T09:59:39Z</time>
      </trkpt>
      <trkpt lat="46.1556" lon="-1.16003">
        <ele>3.7</ele>
        <time>2019-09-02T09:59:44Z</time>
      </trkpt>
      <trkpt lat="46.15558" lon="-1.16">
        <ele>3.7</ele>
        <time>2019-09-02T09:59:48Z</time>
      </trkpt>
      <trkpt lat="46.15555" lon="-1.15993">
        <ele>3.7</ele>
        <time>2019-09-02T09:59:53Z</time>
      </trkpt>
      <trkpt lat="46.15555" lon="-1.15988">
        <ele>3.7</ele>
        <time>2019-09-02T09:59:56Z</time>
      </trkpt>
      <trkpt lat="46.15556" lon="-1.15984">
        <ele>3.7</ele>
        <time>2019-09-02T09:59:58Z</time>
      </trkpt>
      <trkpt lat="46.15558" lon="-1.1598">
        <ele>3.7</ele>
        <time>2019-09-02T10:00:00Z</time>
      </trkpt>
      <trkpt lat="46.15561" lon="-1.15976">
        <ele>3.7</ele>
        <time>2019-09-02T10:00:03Z</time>
      </trkpt>
      <trkpt lat="46.15564" lon="-1.15973">
        <ele>3.7</ele>
        <time>2019-09-02T10:00:06Z</time>
      </trkpt>
      <trkpt lat="46.15566" lon="-1.15969">
        <ele>4</ele>
        <time>2019-09-02T10:00:09Z</time>
      </trkpt>
      <trkpt lat="46.15568" lon="-1.15965">
        <ele>4.1</ele>
        <time>2019-09-02T10:00:11Z</time>
      </trkpt>
      <trkpt lat="46.1557" lon="-1.15962">
        <ele>4.1</ele>
        <time>2019-09-02T10:00:14Z</time>
      </trkpt>
      <trkpt lat="46.15572" lon="-1.15959">
        <ele>4.2</ele>
        <time>2019-09-02T10:00:17Z</time>
      </trkpt>
      <trkpt lat="46.15572" lon="-1.15955">
        <ele>4.2</ele>
        <time>2019-09-02T10:00:20Z</time>
      </trkpt>
      <trkpt lat="46.15572" lon="-1.15949">
        <ele>4.2</ele>
        <time>2019-09-02T10:00:24Z</time>
      </trkpt>
      <trkpt lat="46.15575" lon="-1.1595">
        <ele>4.3</ele>
        <time>2019-09-02T10:00:27Z</time>
      </trkpt>
      <trkpt lat="46.15578" lon="-1.15951">
        <ele>4.3</ele>
        <time>2019-09-02T10:00:30Z</time>
      </trkpt>
      <trkpt lat="46.15582" lon="-1.15952">
        <ele>4.3</ele>
        <time>2019-09-02T10:00:35Z</time>
      </trkpt>
      <trkpt lat="46.15585" lon="-1.15951">
        <ele>4.4</ele>
        <time>2019-09-02T10:00:38Z</time>
      </trkpt>
      <trkpt lat="46.1559" lon="-1.15949">
        <ele>4.4</ele>
        <time>2019-09-02T10:00:43Z</time>
      </trkpt>
      <trkpt lat="46.15593" lon="-1.15951">
        <ele>4.4</ele>
        <time>2019-09-02T10:00:46Z</time>
      </trkpt>
      <trkpt lat="46.15596" lon="-1.15952">
        <ele>4.4</ele>
        <time>2019-09-02T10:00:49Z</time>
      </trkpt>
      <trkpt lat="46.15601" lon="-1.15953">
        <ele>4.4</ele>
        <time>2019-09-02T10:00:54Z</time>
      </trkpt>
      <trkpt lat="46.15606" lon="-1.15953">
        <ele>4.3</ele>
        <time>2019-09-02T10:01:00Z</time>
      </trkpt>
      <trkpt lat="46.15607" lon="-1.15948">
        <ele>4.3</ele>
        <time>2019-09-02T10:01:10Z</time>
      </trkpt>
      <trkpt lat="46.15609" lon="-1.15943">
        <ele>4.3</ele>
        <time>2019-09-02T10:01:13Z</time>
      </trkpt>
      <trkpt lat="46.1561" lon="-1.15938">
        <ele>4.3</ele>
        <time>2019-09-02T10:01:18Z</time>
      </trkpt>
      <trkpt lat="46.15611" lon="-1.15934">
        <ele>4.4</ele>
        <time>2019-09-02T10:01:21Z</time>
      </trkpt>
      <trkpt lat="46.15612" lon="-1.1593">
        <ele>4.4</ele>
        <time>2019-09-02T10:01:24Z</time>
      </trkpt>
      <trkpt lat="46.15611" lon="-1.15925">
        <ele>4.4</ele>
        <time>2019-09-02T10:01:27Z</time>
      </trkpt>
      <trkpt lat="46.15611" lon="-1.1592">
        <ele>4.4</ele>
        <time>2019-09-02T10:01:30Z</time>
      </trkpt>
      <trkpt lat="46.15613" lon="-1.15915">
        <ele>4.5</ele>
        <time>2019-09-02T10:01:37Z</time>
      </trkpt>
      <trkpt lat="46.15614" lon="-1.15911">
        <ele>4.5</ele>
        <time>2019-09-02T10:01:40Z</time>
      </trkpt>
      <trkpt lat="46.15614" lon="-1.15906">
        <ele>4.6</ele>
        <time>2019-09-02T10:01:44Z</time>
      </trkpt>
      <trkpt lat="46.15615" lon="-1.15902">
        <ele>4.6</ele>
        <time>2019-09-02T10:01:47Z</time>
      </trkpt>
      <trkpt lat="46.15614" lon="-1.15898">
        <ele>4.7</ele>
        <time>2019-09-02T10:01:50Z</time>
      </trkpt>
      <trkpt lat="46.15615" lon="-1.15894">
        <ele>4.7</ele>
        <time>2019-09-02T10:01:52Z</time>
      </trkpt>
      <trkpt lat="46.15615" lon="-1.1589">
        <ele>4.8</ele>
        <time>2019-09-02T10:01:55Z</time>
      </trkpt>
      <trkpt lat="46.15615" lon="-1.15884">
        <ele>4.9</ele>
        <time>2019-09-02T10:01:59Z</time>
      </trkpt>
      <trkpt lat="46.15617" lon="-1.15878">
        <ele>5</ele>
        <time>2019-09-02T10:02:02Z</time>
      </trkpt>
      <trkpt lat="46.15618" lon="-1.15873">
        <ele>5.2</ele>
        <time>2019-09-02T10:02:05Z</time>
      </trkpt>
      <trkpt lat="46.15617" lon="-1.15869">
        <ele>5.3</ele>
        <time>2019-09-02T10:02:08Z</time>
      </trkpt>
      <trkpt lat="46.15615" lon="-1.15863">
        <ele>5.6</ele>
        <time>2019-09-02T10:02:14Z</time>
      </trkpt>
      <trkpt lat="46.15618" lon="-1.1586">
        <ele>5.9</ele>
        <time>2019-09-02T10:02:18Z</time>
      </trkpt>
      <trkpt lat="46.15621" lon="-1.1586">
        <ele>6</ele>
        <time>2019-09-02T10:02:20Z</time>
      </trkpt>
      <trkpt lat="46.15621" lon="-1.15855">
        <ele>6.1</ele>
        <time>2019-09-02T10:02:23Z</time>
      </trkpt>
      <trkpt lat="46.15622" lon="-1.15851">
        <ele>6.2</ele>
        <time>2019-09-02T10:02:25Z</time>
      </trkpt>
      <trkpt lat="46.15622" lon="-1.15847">
        <ele>6.3</ele>
        <time>2019-09-02T10:02:27Z</time>
      </trkpt>
      <trkpt lat="46.15624" lon="-1.15842">
        <ele>6.4</ele>
        <time>2019-09-02T10:02:30Z</time>
      </trkpt>
      <trkpt lat="46.15626" lon="-1.15837">
        <ele>6.5</ele>
        <time>2019-09-02T10:02:33Z</time>
      </trkpt>
      <trkpt lat="46.15626" lon="-1.15833">
        <ele>6.6</ele>
        <time>2019-09-02T10:02:35Z</time>
      </trkpt>
      <trkpt lat="46.15625" lon="-1.15828">
        <ele>6.7</ele>
        <time>2019-09-02T10:02:38Z</time>
      </trkpt>
      <trkpt lat="46.15626" lon="-1.15824">
        <ele>6.8</ele>
        <time>2019-09-02T10:02:41Z</time>
      </trkpt>
      <trkpt lat="46.15628" lon="-1.15821">
        <ele>6.9</ele>
        <time>2019-09-02T10:02:43Z</time>
      </trkpt>
      <trkpt lat="46.1563" lon="-1.15817">
        <ele>7</ele>
        <time>2019-09-02T10:02:45Z</time>
      </trkpt>
      <trkpt lat="46.15632" lon="-1.15814">
        <ele>7.1</ele>
        <time>2019-09-02T10:02:49Z</time>
      </trkpt>
      <trkpt lat="46.15634" lon="-1.15809">
        <ele>7.3</ele>
        <time>2019-09-02T10:02:52Z</time>
      </trkpt>
      <trkpt lat="46.15636" lon="-1.15805">
        <ele>7.4</ele>
        <time>2019-09-02T10:02:55Z</time>
      </trkpt>
      <trkpt lat="46.15637" lon="-1.15801">
        <ele>7.5</ele>
        <time>2019-09-02T10:02:57Z</time>
      </trkpt>
      <trkpt lat="46.15637" lon="-1.15796">
        <ele>7.6</ele>
        <time>2019-09-02T10:03:00Z</time>
      </trkpt>
      <trkpt lat="46.15638" lon="-1.15791">
        <ele>7.7</ele>
        <time>2019-09-02T10:03:02Z</time>
      </trkpt>
      <trkpt lat="46.15638" lon="-1.15786">
        <ele>7.8</ele>
        <time>2019-09-02T10:03:05Z</time>
      </trkpt>
      <trkpt lat="46.15638" lon="-1.15781">
        <ele>8</ele>
        <time>2019-09-02T10:03:08Z</time>
      </trkpt>
      <trkpt lat="46.15639" lon="-1.15777">
        <ele>8</ele>
        <time>2019-09-02T10:03:11Z</time>
      </trkpt>
      <trkpt lat="46.1564" lon="-1.15772">
        <ele>8.1</ele>
        <time>2019-09-02T10:03:14Z</time>
      </trkpt>
      <trkpt lat="46.15641" lon="-1.15768">
        <ele>8.2</ele>
        <time>2019-09-02T10:03:16Z</time>
      </trkpt>
      <trkpt lat="46.15642" lon="-1.15764">
        <ele>8.3</ele>
        <time>2019-09-02T10:03:18Z</time>
      </trkpt>
      <trkpt lat="46.15642" lon="-1.15759">
        <ele>8.4</ele>
        <time>2019-09-02T10:03:21Z</time>
      </trkpt>
      <trkpt lat="46.15643" lon="-1.15754">
        <ele>8.5</ele>
        <time>2019-09-02T10:03:24Z</time>
      </trkpt>
      <trkpt lat="46.15643" lon="-1.15749">
        <ele>8.5</ele>
        <time>2019-09-02T10:03:27Z</time>
      </trkpt>
      <trkpt lat="46.15644" lon="-1.15745">
        <ele>8.6</ele>
        <time>2019-09-02T10:03:29Z</time>
      </trkpt>
      <trkpt lat="46.15642" lon="-1.15741">
        <ele>8.7</ele>
        <time>2019-09-02T10:03:31Z</time>
      </trkpt>
      <trkpt lat="46.15641" lon="-1.15736">
        <ele>8.7</ele>
        <time>2019-09-02T10:03:33Z</time>
      </trkpt>
      <trkpt lat="46.15638" lon="-1.15734">
        <ele>8.8</ele>
        <time>2019-09-02T10:03:39Z</time>
      </trkpt>
      <trkpt lat="46.15636" lon="-1.15732">
        <ele>8.9</ele>
        <time>2019-09-02T10:03:43Z</time>
      </trkpt>
      <trkpt lat="46.15636" lon="-1.15727">
        <ele>8.9</ele>
        <time>2019-09-02T10:03:47Z</time>
      </trkpt>
      <trkpt lat="46.15635" lon="-1.15722">
        <ele>8.9</ele>
        <time>2019-09-02T10:03:51Z</time>
      </trkpt>
      <trkpt lat="46.15635" lon="-1.15718">
        <ele>8.8</ele>
        <time>2019-09-02T10:03:54Z</time>
      </trkpt>
      <trkpt lat="46.15635" lon="-1.15714">
        <ele>8.8</ele>
        <time>2019-09-02T10:03:56Z</time>
      </trkpt>
      <trkpt lat="46.15633" lon="-1.1571">
        <ele>8.8</ele>
        <time>2019-09-02T10:04:00Z</time>
      </trkpt>
      <trkpt lat="46.15633" lon="-1.15705">
        <ele>8.8</ele>
        <time>2019-09-02T10:04:04Z</time>
      </trkpt>
      <trkpt lat="46.15633" lon="-1.157">
        <ele>8.7</ele>
        <time>2019-09-02T10:04:07Z</time>
      </trkpt>
      <trkpt lat="46.15631" lon="-1.15697">
        <ele>8.7</ele>
        <time>2019-09-02T10:04:10Z</time>
      </trkpt>
      <trkpt lat="46.15631" lon="-1.15693">
        <ele>8.6</ele>
        <time>2019-09-02T10:04:13Z</time>
      </trkpt>
      <trkpt lat="46.15631" lon="-1.15686">
        <ele>8.6</ele>
        <time>2019-09-02T10:04:18Z</time>
      </trkpt>
      <trkpt lat="46.15629" lon="-1.15683">
        <ele>8.5</ele>
        <time>2019-09-02T10:04:21Z</time>
      </trkpt>
      <trkpt lat="46.15629" lon="-1.15679">
        <ele>8.5</ele>
        <time>2019-09-02T10:04:25Z</time>
      </trkpt>
      <trkpt lat="46.15628" lon="-1.15674">
        <ele>8.5</ele>
        <time>2019-09-02T10:04:28Z</time>
      </trkpt>
      <trkpt lat="46.15628" lon="-1.15669">
        <ele>8.4</ele>
        <time>2019-09-02T10:04:31Z</time>
      </trkpt>
      <trkpt lat="46.15628" lon="-1.15664">
        <ele>8.5</ele>
        <time>2019-09-02T10:04:34Z</time>
      </trkpt>
      <trkpt lat="46.15628" lon="-1.15659">
        <ele>8.5</ele>
        <time>2019-09-02T10:04:37Z</time>
      </trkpt>
      <trkpt lat="46.15627" lon="-1.15651">
        <ele>8.6</ele>
        <time>2019-09-02T10:04:43Z</time>
      </trkpt>
      <trkpt lat="46.15627" lon="-1.15647">
        <ele>8.6</ele>
        <time>2019-09-02T10:04:46Z</time>
      </trkpt>
      <trkpt lat="46.15625" lon="-1.15642">
        <ele>8.7</ele>
        <time>2019-09-02T10:04:49Z</time>
      </trkpt>
      <trkpt lat="46.15624" lon="-1.15637">
        <ele>8.7</ele>
        <time>2019-09-02T10:04:52Z</time>
      </trkpt>
      <trkpt lat="46.15623" lon="-1.15633">
        <ele>8.7</ele>
        <time>2019-09-02T10:04:56Z</time>
      </trkpt>
      <trkpt lat="46.15621" lon="-1.15628">
        <ele>8.8</ele>
        <time>2019-09-02T10:04:59Z</time>
      </trkpt>
      <trkpt lat="46.1562" lon="-1.15622">
        <ele>8.8</ele>
        <time>2019-09-02T10:05:02Z</time>
      </trkpt>
      <trkpt lat="46.1562" lon="-1.15618">
        <ele>8.8</ele>
        <time>2019-09-02T10:05:04Z</time>
      </trkpt>
      <trkpt lat="46.1562" lon="-1.15614">
        <ele>8.8</ele>
        <time>2019-09-02T10:05:07Z</time>
      </trkpt>
      <trkpt lat="46.15618" lon="-1.1561">
        <ele>8.9</ele>
        <time>2019-09-02T10:05:11Z</time>
      </trkpt>
      <trkpt lat="46.15616" lon="-1.15606">
        <ele>8.9</ele>
        <time>2019-09-02T10:05:14Z</time>
      </trkpt>
      <trkpt lat="46.15616" lon="-1.15602">
        <ele>8.9</ele>
        <time>2019-09-02T10:05:17Z</time>
      </trkpt>
      <trkpt lat="46.15616" lon="-1.15598">
        <ele>8.9</ele>
        <time>2019-09-02T10:05:19Z</time>
      </trkpt>
      <trkpt lat="46.15616" lon="-1.15593">
        <ele>9</ele>
        <time>2019-09-02T10:05:22Z</time>
      </trkpt>
      <trkpt lat="46.15617" lon="-1.15589">
        <ele>9</ele>
        <time>2019-09-02T10:05:24Z</time>
      </trkpt>
      <trkpt lat="46.15619" lon="-1.15586">
        <ele>9</ele>
        <time>2019-09-02T10:05:26Z</time>
      </trkpt>
      <trkpt lat="46.15619" lon="-1.1558">
        <ele>9</ele>
        <time>2019-09-02T10:05:28Z</time>
      </trkpt>
      <trkpt lat="46.1562" lon="-1.15576">
        <ele>9</ele>
        <time>2019-09-02T10:05:30Z</time>
      </trkpt>
      <trkpt lat="46.15623" lon="-1.15572">
        <ele>9</ele>
        <time>2019-09-02T10:05:33Z</time>
      </trkpt>
      <trkpt lat="46.15625" lon="-1.15569">
        <ele>9.1</ele>
        <time>2019-09-02T10:05:35Z</time>
      </trkpt>
      <trkpt lat="46.15627" lon="-1.15565">
        <ele>9.1</ele>
        <time>2019-09-02T10:05:37Z</time>
      </trkpt>
      <trkpt lat="46.15628" lon="-1.15562">
        <ele>9.1</ele>
        <time>2019-09-02T10:05:39Z</time>
      </trkpt>
      <trkpt lat="46.15631" lon="-1.15558">
        <ele>9.1</ele>
        <time>2019-09-02T10:05:42Z</time>
      </trkpt>
      <trkpt lat="46.15633" lon="-1.15554">
        <ele>9.1</ele>
        <time>2019-09-02T10:05:45Z</time>
      </trkpt>
      <trkpt lat="46.15634" lon="-1.15548">
        <ele>9.1</ele>
        <time>2019-09-02T10:05:48Z</time>
      </trkpt>
      <trkpt lat="46.15634" lon="-1.15544">
        <ele>9.1</ele>
        <time>2019-09-02T10:05:51Z</time>
      </trkpt>
      <trkpt lat="46.15633" lon="-1.15541">
        <ele>9.1</ele>
        <time>2019-09-02T10:05:54Z</time>
      </trkpt>
      <trkpt lat="46.15634" lon="-1.15537">
        <ele>9.1</ele>
        <time>2019-09-02T10:05:57Z</time>
      </trkpt>
      <trkpt lat="46.15636" lon="-1.15539">
        <ele>9.2</ele>
        <time>2019-09-02T10:06:07Z</time>
      </trkpt>
      <trkpt lat="46.15638" lon="-1.15541">
        <ele>9.2</ele>
        <time>2019-09-02T10:06:11Z</time>
      </trkpt>
      <trkpt lat="46.15642" lon="-1.15543">
        <ele>9.3</ele>
        <time>2019-09-02T10:06:14Z</time>
      </trkpt>
      <trkpt lat="46.15644" lon="-1.15545">
        <ele>9.3</ele>
        <time>2019-09-02T10:06:17Z</time>
      </trkpt>
      <trkpt lat="46.15647" lon="-1.15547">
        <ele>9.3</ele>
        <time>2019-09-02T10:06:20Z</time>
      </trkpt>
      <trkpt lat="46.1565" lon="-1.15548">
        <ele>9.3</ele>
        <time>2019-09-02T10:06:22Z</time>
      </trkpt>
      <trkpt lat="46.15654" lon="-1.15549">
        <ele>9.3</ele>
        <time>2019-09-02T10:06:26Z</time>
      </trkpt>
      <trkpt lat="46.15658" lon="-1.15549">
        <ele>9.2</ele>
        <time>2019-09-02T10:06:28Z</time>
      </trkpt>
      <trkpt lat="46.1566" lon="-1.15552">
        <ele>9.2</ele>
        <time>2019-09-02T10:06:30Z</time>
      </trkpt>
      <trkpt lat="46.15663" lon="-1.15554">
        <ele>9.2</ele>
        <time>2019-09-02T10:06:34Z</time>
      </trkpt>
      <trkpt lat="46.15665" lon="-1.15557">
        <ele>9.2</ele>
        <time>2019-09-02T10:06:38Z</time>
      </trkpt>
      <trkpt lat="46.15664" lon="-1.15563">
        <ele>9.2</ele>
        <time>2019-09-02T10:06:41Z</time>
      </trkpt>
      <trkpt lat="46.15666" lon="-1.15566">
        <ele>9.1</ele>
        <time>2019-09-02T10:06:44Z</time>
      </trkpt>
      <trkpt lat="46.15668" lon="-1.1557">
        <ele>9.1</ele>
        <time>2019-09-02T10:06:48Z</time>
      </trkpt>
      <trkpt lat="46.1567" lon="-1.15575">
        <ele>9.1</ele>
        <time>2019-09-02T10:06:51Z</time>
      </trkpt>
      <trkpt lat="46.1567" lon="-1.1558">
        <ele>9.1</ele>
        <time>2019-09-02T10:06:56Z</time>
      </trkpt>
      <trkpt lat="46.15672" lon="-1.15584">
        <ele>9.1</ele>
        <time>2019-09-02T10:06:59Z</time>
      </trkpt>
      <trkpt lat="46.15672" lon="-1.15589">
        <ele>9</ele>
        <time>2019-09-02T10:07:15Z</time>
      </trkpt>
      <trkpt lat="46.15674" lon="-1.15592">
        <ele>9.1</ele>
        <time>2019-09-02T10:07:18Z</time>
      </trkpt>
      <trkpt lat="46.15672" lon="-1.15595">
        <ele>9.1</ele>
        <time>2019-09-02T10:07:23Z</time>
      </trkpt>
      <trkpt lat="46.15675" lon="-1.156">
        <ele>9.1</ele>
        <time>2019-09-02T10:07:27Z</time>
      </trkpt>
      <trkpt lat="46.15673" lon="-1.15597">
        <ele>9.1</ele>
        <time>2019-09-02T10:07:54Z</time>
      </trkpt>
      <trkpt lat="46.1567" lon="-1.15594">
        <ele>9.1</ele>
        <time>2019-09-02T10:07:57Z</time>
      </trkpt>
      <trkpt lat="46.15669" lon="-1.15589">
        <ele>9.1</ele>
        <time>2019-09-02T10:08:01Z</time>
      </trkpt>
      <trkpt lat="46.1567" lon="-1.15584">
        <ele>9.2</ele>
        <time>2019-09-02T10:08:04Z</time>
      </trkpt>
      <trkpt lat="46.1567" lon="-1.1558">
        <ele>9.2</ele>
        <time>2019-09-02T10:08:07Z</time>
      </trkpt>
      <trkpt lat="46.15669" lon="-1.15575">
        <ele>9.2</ele>
        <time>2019-09-02T10:08:10Z</time>
      </trkpt>
      <trkpt lat="46.15668" lon="-1.15571">
        <ele>9.2</ele>
        <time>2019-09-02T10:08:12Z</time>
      </trkpt>
      <trkpt lat="46.15667" lon="-1.15568">
        <ele>9.2</ele>
        <time>2019-09-02T10:08:15Z</time>
      </trkpt>
      <trkpt lat="46.15666" lon="-1.15563">
        <ele>9.2</ele>
        <time>2019-09-02T10:08:18Z</time>
      </trkpt>
      <trkpt lat="46.15663" lon="-1.15561">
        <ele>9.2</ele>
        <time>2019-09-02T10:08:21Z</time>
      </trkpt>
      <trkpt lat="46.1566" lon="-1.15559">
        <ele>9.2</ele>
        <time>2019-09-02T10:08:24Z</time>
      </trkpt>
      <trkpt lat="46.15657" lon="-1.15557">
        <ele>9.3</ele>
        <time>2019-09-02T10:08:27Z</time>
      </trkpt>
      <trkpt lat="46.15654" lon="-1.15555">
        <ele>9.3</ele>
        <time>2019-09-02T10:08:30Z</time>
      </trkpt>
      <trkpt lat="46.1565" lon="-1.15553">
        <ele>9.3</ele>
        <time>2019-09-02T10:08:33Z</time>
      </trkpt>
      <trkpt lat="46.15647" lon="-1.15551">
        <ele>9.3</ele>
        <time>2019-09-02T10:08:36Z</time>
      </trkpt>
      <trkpt lat="46.15644" lon="-1.15548">
        <ele>9.3</ele>
        <time>2019-09-02T10:08:38Z</time>
      </trkpt>
      <trkpt lat="46.15641" lon="-1.15547">
        <ele>9.3</ele>
        <time>2019-09-02T10:08:40Z</time>
      </trkpt>
      <trkpt lat="46.15638" lon="-1.15545">
        <ele>9.3</ele>
        <time>2019-09-02T10:08:43Z</time>
      </trkpt>
      <trkpt lat="46.15635" lon="-1.15544">
        <ele>9.2</ele>
        <time>2019-09-02T10:08:46Z</time>
      </trkpt>
      <trkpt lat="46.15634" lon="-1.1554">
        <ele>9.1</ele>
        <time>2019-09-02T10:08:48Z</time>
      </trkpt>
      <trkpt lat="46.15635" lon="-1.15534">
        <ele>9.1</ele>
        <time>2019-09-02T10:08:51Z</time>
      </trkpt>
      <trkpt lat="46.15636" lon="-1.1553">
        <ele>9.1</ele>
        <time>2019-09-02T10:08:55Z</time>
      </trkpt>
      <trkpt lat="46.15637" lon="-1.15525">
        <ele>9.1</ele>
        <time>2019-09-02T10:08:59Z</time>
      </trkpt>
      <trkpt lat="46.1564" lon="-1.15521">
        <ele>9.2</ele>
        <time>2019-09-02T10:09:02Z</time>
      </trkpt>
      <trkpt lat="46.15641" lon="-1.15517">
        <ele>9.2</ele>
        <time>2019-09-02T10:09:04Z</time>
      </trkpt>
      <trkpt lat="46.15644" lon="-1.15514">
        <ele>9.2</ele>
        <time>2019-09-02T10:09:06Z</time>
      </trkpt>
      <trkpt lat="46.15646" lon="-1.1551">
        <ele>9.2</ele>
        <time>2019-09-02T10:09:08Z</time>
      </trkpt>
      <trkpt lat="46.15648" lon="-1.15507">
        <ele>9.2</ele>
        <time>2019-09-02T10:09:11Z</time>
      </trkpt>
      <trkpt lat="46.1565" lon="-1.15503">
        <ele>9.2</ele>
        <time>2019-09-02T10:09:13Z</time>
      </trkpt>
      <trkpt lat="46.15652" lon="-1.15499">
        <ele>9.2</ele>
        <time>2019-09-02T10:09:15Z</time>
      </trkpt>
      <trkpt lat="46.15653" lon="-1.15494">
        <ele>9.3</ele>
        <time>2019-09-02T10:09:18Z</time>
      </trkpt>
      <trkpt lat="46.15654" lon="-1.15489">
        <ele>9.3</ele>
        <time>2019-09-02T10:09:21Z</time>
      </trkpt>
      <trkpt lat="46.15656" lon="-1.15487">
        <ele>9.3</ele>
        <time>2019-09-02T10:09:24Z</time>
      </trkpt>
      <trkpt lat="46.15659" lon="-1.15484">
        <ele>9.3</ele>
        <time>2019-09-02T10:09:31Z</time>
      </trkpt>
      <trkpt lat="46.1566" lon="-1.1548">
        <ele>9.3</ele>
        <time>2019-09-02T10:09:34Z</time>
      </trkpt>
      <trkpt lat="46.15662" lon="-1.15476">
        <ele>9.3</ele>
        <time>2019-09-02T10:09:36Z</time>
      </trkpt>
      <trkpt lat="46.15664" lon="-1.15472">
        <ele>9.3</ele>
        <time>2019-09-02T10:09:39Z</time>
      </trkpt>
      <trkpt lat="46.15665" lon="-1.15468">
        <ele>9.3</ele>
        <time>2019-09-02T10:09:42Z</time>
      </trkpt>
      <trkpt lat="46.15665" lon="-1.15463">
        <ele>9.3</ele>
        <time>2019-09-02T10:09:45Z</time>
      </trkpt>
      <trkpt lat="46.15666" lon="-1.1546">
        <ele>9.4</ele>
        <time>2019-09-02T10:09:47Z</time>
      </trkpt>
      <trkpt lat="46.15667" lon="-1.15456">
        <ele>9.5</ele>
        <time>2019-09-02T10:09:50Z</time>
      </trkpt>
      <trkpt lat="46.15669" lon="-1.15453">
        <ele>9.5</ele>
        <time>2019-09-02T10:09:53Z</time>
      </trkpt>
      <trkpt lat="46.15671" lon="-1.1545">
        <ele>9.6</ele>
        <time>2019-09-02T10:09:56Z</time>
      </trkpt>
      <trkpt lat="46.15675" lon="-1.15451">
        <ele>9.7</ele>
        <time>2019-09-02T10:10:02Z</time>
      </trkpt>
      <trkpt lat="46.15676" lon="-1.15455">
        <ele>9.7</ele>
        <time>2019-09-02T10:10:04Z</time>
      </trkpt>
      <trkpt lat="46.15676" lon="-1.15459">
        <ele>9.8</ele>
        <time>2019-09-02T10:10:06Z</time>
      </trkpt>
      <trkpt lat="46.15678" lon="-1.15464">
        <ele>9.9</ele>
        <time>2019-09-02T10:10:09Z</time>
      </trkpt>
      <trkpt lat="46.1568" lon="-1.15468">
        <ele>10</ele>
        <time>2019-09-02T10:10:12Z</time>
      </trkpt>
      <trkpt lat="46.15683" lon="-1.15469">
        <ele>10</ele>
        <time>2019-09-02T10:10:15Z</time>
      </trkpt>
      <trkpt lat="46.15687" lon="-1.15471">
        <ele>10.1</ele>
        <time>2019-09-02T10:10:18Z</time>
      </trkpt>
      <trkpt lat="46.15689" lon="-1.15475">
        <ele>10.2</ele>
        <time>2019-09-02T10:10:21Z</time>
      </trkpt>
      <trkpt lat="46.15692" lon="-1.15476">
        <ele>10.2</ele>
        <time>2019-09-02T10:10:23Z</time>
      </trkpt>
      <trkpt lat="46.15695" lon="-1.15479">
        <ele>10.3</ele>
        <time>2019-09-02T10:10:26Z</time>
      </trkpt>
      <trkpt lat="46.15698" lon="-1.15483">
        <ele>10.3</ele>
        <time>2019-09-02T10:10:29Z</time>
      </trkpt>
      <trkpt lat="46.15699" lon="-1.15487">
        <ele>10.4</ele>
        <time>2019-09-02T10:10:32Z</time>
      </trkpt>
      <trkpt lat="46.15699" lon="-1.15492">
        <ele>10.4</ele>
        <time>2019-09-02T10:10:35Z</time>
      </trkpt>
      <trkpt lat="46.15701" lon="-1.15497">
        <ele>10.5</ele>
        <time>2019-09-02T10:10:38Z</time>
      </trkpt>
      <trkpt lat="46.15701" lon="-1.15501">
        <ele>10.5</ele>
        <time>2019-09-02T10:10:40Z</time>
      </trkpt>
      <trkpt lat="46.15704" lon="-1.15504">
        <ele>10.5</ele>
        <time>2019-09-02T10:10:43Z</time>
      </trkpt>
      <trkpt lat="46.15705" lon="-1.15508">
        <ele>10.5</ele>
        <time>2019-09-02T10:10:45Z</time>
      </trkpt>
      <trkpt lat="46.15707" lon="-1.15511">
        <ele>10.5</ele>
        <time>2019-09-02T10:10:48Z</time>
      </trkpt>
      <trkpt lat="46.15709" lon="-1.15513">
        <ele>10.5</ele>
        <time>2019-09-02T10:10:50Z</time>
      </trkpt>
      <trkpt lat="46.15713" lon="-1.15515">
        <ele>10.6</ele>
        <time>2019-09-02T10:10:53Z</time>
      </trkpt>
      <trkpt lat="46.15716" lon="-1.15515">
        <ele>10.6</ele>
        <time>2019-09-02T10:10:55Z</time>
      </trkpt>
      <trkpt lat="46.15719" lon="-1.15516">
        <ele>10.6</ele>
        <time>2019-09-02T10:10:57Z</time>
      </trkpt>
      <trkpt lat="46.15722" lon="-1.15518">
        <ele>10.6</ele>
        <time>2019-09-02T10:11:00Z</time>
      </trkpt>
      <trkpt lat="46.15725" lon="-1.15521">
        <ele>10.6</ele>
        <time>2019-09-02T10:11:03Z</time>
      </trkpt>
      <trkpt lat="46.15726" lon="-1.15525">
        <ele>10.5</ele>
        <time>2019-09-02T10:11:05Z</time>
      </trkpt>
      <trkpt lat="46.15729" lon="-1.15524">
        <ele>10.5</ele>
        <time>2019-09-02T10:11:08Z</time>
      </trkpt>
      <trkpt lat="46.15732" lon="-1.15522">
        <ele>10.5</ele>
        <time>2019-09-02T10:11:10Z</time>
      </trkpt>
      <trkpt lat="46.15735" lon="-1.15519">
        <ele>10.6</ele>
        <time>2019-09-02T10:11:13Z</time>
      </trkpt>
      <trkpt lat="46.15738" lon="-1.15517">
        <ele>10.6</ele>
        <time>2019-09-02T10:11:15Z</time>
      </trkpt>
      <trkpt lat="46.15741" lon="-1.15518">
        <ele>10.6</ele>
        <time>2019-09-02T10:11:19Z</time>
      </trkpt>
      <trkpt lat="46.15743" lon="-1.15515">
        <ele>10.6</ele>
        <time>2019-09-02T10:11:22Z</time>
      </trkpt>
      <trkpt lat="46.15746" lon="-1.15512">
        <ele>10.7</ele>
        <time>2019-09-02T10:11:26Z</time>
      </trkpt>
      <trkpt lat="46.15749" lon="-1.15509">
        <ele>10.6</ele>
        <time>2019-09-02T10:11:31Z</time>
      </trkpt>
      <trkpt lat="46.15751" lon="-1.15506">
        <ele>10.6</ele>
        <time>2019-09-02T10:11:34Z</time>
      </trkpt>
      <trkpt lat="46.15752" lon="-1.15502">
        <ele>10.6</ele>
        <time>2019-09-02T10:11:36Z</time>
      </trkpt>
      <trkpt lat="46.15755" lon="-1.155">
        <ele>10.6</ele>
        <time>2019-09-02T10:11:38Z</time>
      </trkpt>
      <trkpt lat="46.15758" lon="-1.15499">
        <ele>10.6</ele>
        <time>2019-09-02T10:11:41Z</time>
      </trkpt>
      <trkpt lat="46.1576" lon="-1.15496">
        <ele>10.5</ele>
        <time>2019-09-02T10:11:45Z</time>
      </trkpt>
      <trkpt lat="46.15763" lon="-1.15495">
        <ele>10.5</ele>
        <time>2019-09-02T10:11:48Z</time>
      </trkpt>
      <trkpt lat="46.15765" lon="-1.15498">
        <ele>10.5</ele>
        <time>2019-09-02T10:11:51Z</time>
      </trkpt>
      <trkpt lat="46.15772" lon="-1.15498">
        <ele>10.5</ele>
        <time>2019-09-02T10:11:54Z</time>
      </trkpt>
      <trkpt lat="46.15774" lon="-1.15495">
        <ele>10.4</ele>
        <time>2019-09-02T10:11:57Z</time>
      </trkpt>
      <trkpt lat="46.15776" lon="-1.1549">
        <ele>10.4</ele>
        <time>2019-09-02T10:12:00Z</time>
      </trkpt>
      <trkpt lat="46.1578" lon="-1.15488">
        <ele>10.3</ele>
        <time>2019-09-02T10:12:03Z</time>
      </trkpt>
      <trkpt lat="46.15782" lon="-1.15484">
        <ele>10.3</ele>
        <time>2019-09-02T10:12:05Z</time>
      </trkpt>
      <trkpt lat="46.15783" lon="-1.15479">
        <ele>10.2</ele>
        <time>2019-09-02T10:12:08Z</time>
      </trkpt>
      <trkpt lat="46.15783" lon="-1.15474">
        <ele>10.1</ele>
        <time>2019-09-02T10:12:11Z</time>
      </trkpt>
      <trkpt lat="46.15782" lon="-1.15467">
        <ele>10.1</ele>
        <time>2019-09-02T10:12:16Z</time>
      </trkpt>
      <trkpt lat="46.15784" lon="-1.15463">
        <ele>10</ele>
        <time>2019-09-02T10:12:18Z</time>
      </trkpt>
      <trkpt lat="46.15786" lon="-1.15459">
        <ele>10</ele>
        <time>2019-09-02T10:12:21Z</time>
      </trkpt>
      <trkpt lat="46.15784" lon="-1.15454">
        <ele>9.9</ele>
        <time>2019-09-02T10:12:27Z</time>
      </trkpt>
      <trkpt lat="46.15785" lon="-1.1545">
        <ele>9.9</ele>
        <time>2019-09-02T10:12:30Z</time>
      </trkpt>
      <trkpt lat="46.15787" lon="-1.15446">
        <ele>9.8</ele>
        <time>2019-09-02T10:12:32Z</time>
      </trkpt>
      <trkpt lat="46.15787" lon="-1.15441">
        <ele>9.8</ele>
        <time>2019-09-02T10:12:35Z</time>
      </trkpt>
      <trkpt lat="46.15787" lon="-1.15435">
        <ele>9.8</ele>
        <time>2019-09-02T10:12:38Z</time>
      </trkpt>
      <trkpt lat="46.15788" lon="-1.1543">
        <ele>9.7</ele>
        <time>2019-09-02T10:12:41Z</time>
      </trkpt>
      <trkpt lat="46.15789" lon="-1.15426">
        <ele>9.7</ele>
        <time>2019-09-02T10:12:44Z</time>
      </trkpt>
      <trkpt lat="46.15789" lon="-1.15422">
        <ele>9.7</ele>
        <time>2019-09-02T10:12:46Z</time>
      </trkpt>
      <trkpt lat="46.15789" lon="-1.15418">
        <ele>9.6</ele>
        <time>2019-09-02T10:12:48Z</time>
      </trkpt>
      <trkpt lat="46.15791" lon="-1.15413">
        <ele>9.6</ele>
        <time>2019-09-02T10:12:51Z</time>
      </trkpt>
      <trkpt lat="46.15794" lon="-1.15411">
        <ele>9.5</ele>
        <time>2019-09-02T10:12:54Z</time>
      </trkpt>
      <trkpt lat="46.15795" lon="-1.15406">
        <ele>9.5</ele>
        <time>2019-09-02T10:12:57Z</time>
      </trkpt>
      <trkpt lat="46.15796" lon="-1.15401">
        <ele>9.5</ele>
        <time>2019-09-02T10:13:00Z</time>
      </trkpt>
      <trkpt lat="46.15797" lon="-1.15397">
        <ele>9.4</ele>
        <time>2019-09-02T10:13:03Z</time>
      </trkpt>
      <trkpt lat="46.15798" lon="-1.15393">
        <ele>9.4</ele>
        <time>2019-09-02T10:13:06Z</time>
      </trkpt>
      <trkpt lat="46.158" lon="-1.1539">
        <ele>9.3</ele>
        <time>2019-09-02T10:13:27Z</time>
      </trkpt>
      <trkpt lat="46.15802" lon="-1.15385">
        <ele>9.3</ele>
        <time>2019-09-02T10:13:32Z</time>
      </trkpt>
      <trkpt lat="46.15801" lon="-1.1538">
        <ele>9.2</ele>
        <time>2019-09-02T10:13:35Z</time>
      </trkpt>
      <trkpt lat="46.15802" lon="-1.15376">
        <ele>9.1</ele>
        <time>2019-09-02T10:13:39Z</time>
      </trkpt>
      <trkpt lat="46.15803" lon="-1.15372">
        <ele>9</ele>
        <time>2019-09-02T10:13:42Z</time>
      </trkpt>
      <trkpt lat="46.15802" lon="-1.15368">
        <ele>9</ele>
        <time>2019-09-02T10:13:46Z</time>
      </trkpt>
      <trkpt lat="46.15802" lon="-1.15364">
        <ele>8.9</ele>
        <time>2019-09-02T10:13:55Z</time>
      </trkpt>
      <trkpt lat="46.158" lon="-1.15361">
        <ele>8.8</ele>
        <time>2019-09-02T10:14:00Z</time>
      </trkpt>
      <trkpt lat="46.15803" lon="-1.15361">
        <ele>8.7</ele>
        <time>2019-09-02T10:14:21Z</time>
      </trkpt>
      <trkpt lat="46.15806" lon="-1.15361">
        <ele>8.6</ele>
        <time>2019-09-02T10:14:28Z</time>
      </trkpt>
      <trkpt lat="46.15808" lon="-1.15363">
        <ele>9.4</ele>
        <time>2019-09-02T10:14:32Z</time>
      </trkpt>
      <trkpt lat="46.15811" lon="-1.15365">
        <ele>9.5</ele>
        <time>2019-09-02T10:14:36Z</time>
      </trkpt>
      <trkpt lat="46.15813" lon="-1.15367">
        <ele>9.5</ele>
        <time>2019-09-02T10:14:39Z</time>
      </trkpt>
      <trkpt lat="46.15815" lon="-1.15371">
        <ele>9.6</ele>
        <time>2019-09-02T10:14:43Z</time>
      </trkpt>
      <trkpt lat="46.15818" lon="-1.15372">
        <ele>9.8</ele>
        <time>2019-09-02T10:14:47Z</time>
      </trkpt>
      <trkpt lat="46.15822" lon="-1.15373">
        <ele>10</ele>
        <time>2019-09-02T10:14:50Z</time>
      </trkpt>
      <trkpt lat="46.15825" lon="-1.15374">
        <ele>10.1</ele>
        <time>2019-09-02T10:14:53Z</time>
      </trkpt>
      <trkpt lat="46.15827" lon="-1.15377">
        <ele>10.3</ele>
        <time>2019-09-02T10:14:56Z</time>
      </trkpt>
      <trkpt lat="46.1583" lon="-1.15376">
        <ele>10.4</ele>
        <time>2019-09-02T10:14:58Z</time>
      </trkpt>
      <trkpt lat="46.15834" lon="-1.15377">
        <ele>10.6</ele>
        <time>2019-09-02T10:15:00Z</time>
      </trkpt>
      <trkpt lat="46.15837" lon="-1.15377">
        <ele>10.8</ele>
        <time>2019-09-02T10:15:02Z</time>
      </trkpt>
      <trkpt lat="46.15841" lon="-1.15375">
        <ele>10.9</ele>
        <time>2019-09-02T10:15:04Z</time>
      </trkpt>
      <trkpt lat="46.15844" lon="-1.15372">
        <ele>11.1</ele>
        <time>2019-09-02T10:15:07Z</time>
      </trkpt>
      <trkpt lat="46.15846" lon="-1.15369">
        <ele>11.3</ele>
        <time>2019-09-02T10:15:14Z</time>
      </trkpt>
      <trkpt lat="46.15846" lon="-1.15374">
        <ele>11.4</ele>
        <time>2019-09-02T10:15:26Z</time>
      </trkpt>
      <trkpt lat="46.1585" lon="-1.15374">
        <ele>11.5</ele>
        <time>2019-09-02T10:15:43Z</time>
      </trkpt>
      <trkpt lat="46.15852" lon="-1.15377">
        <ele>11.5</ele>
        <time>2019-09-02T10:16:07Z</time>
      </trkpt>
      <trkpt lat="46.15855" lon="-1.15378">
        <ele>11.6</ele>
        <time>2019-09-02T10:16:17Z</time>
      </trkpt>
      <trkpt lat="46.15859" lon="-1.15379">
        <ele>11.7</ele>
        <time>2019-09-02T10:16:20Z</time>
      </trkpt>
      <trkpt lat="46.15862" lon="-1.15381">
        <ele>11.7</ele>
        <time>2019-09-02T10:16:22Z</time>
      </trkpt>
      <trkpt lat="46.15867" lon="-1.15383">
        <ele>12.1</ele>
        <time>2019-09-02T10:16:27Z</time>
      </trkpt>
      <trkpt lat="46.15869" lon="-1.15386">
        <ele>12.2</ele>
        <time>2019-09-02T10:16:32Z</time>
      </trkpt>
      <trkpt lat="46.15873" lon="-1.15385">
        <ele>12.3</ele>
        <time>2019-09-02T10:16:37Z</time>
      </trkpt>
      <trkpt lat="46.15877" lon="-1.15385">
        <ele>12.4</ele>
        <time>2019-09-02T10:16:40Z</time>
      </trkpt>
      <trkpt lat="46.1588" lon="-1.15387">
        <ele>12.4</ele>
        <time>2019-09-02T10:16:45Z</time>
      </trkpt>
      <trkpt lat="46.15883" lon="-1.15385">
        <ele>12.4</ele>
        <time>2019-09-02T10:16:47Z</time>
      </trkpt>
      <trkpt lat="46.15886" lon="-1.15383">
        <ele>12.5</ele>
        <time>2019-09-02T10:16:49Z</time>
      </trkpt>
      <trkpt lat="46.15889" lon="-1.15382">
        <ele>12.5</ele>
        <time>2019-09-02T10:16:52Z</time>
      </trkpt>
      <trkpt lat="46.15892" lon="-1.15383">
        <ele>12.6</ele>
        <time>2019-09-02T10:16:56Z</time>
      </trkpt>
      <trkpt lat="46.15895" lon="-1.1538">
        <ele>12.6</ele>
        <time>2019-09-02T10:17:00Z</time>
      </trkpt>
      <trkpt lat="46.15898" lon="-1.15382">
        <ele>12.6</ele>
        <time>2019-09-02T10:17:06Z</time>
      </trkpt>
      <trkpt lat="46.15902" lon="-1.1538">
        <ele>12.7</ele>
        <time>2019-09-02T10:17:12Z</time>
      </trkpt>
      <trkpt lat="46.15906" lon="-1.1538">
        <ele>12.7</ele>
        <time>2019-09-02T10:17:16Z</time>
      </trkpt>
      <trkpt lat="46.15909" lon="-1.15377">
        <ele>12.7</ele>
        <time>2019-09-02T10:17:19Z</time>
      </trkpt>
      <trkpt lat="46.15912" lon="-1.15378">
        <ele>12.7</ele>
        <time>2019-09-02T10:17:23Z</time>
      </trkpt>
      <trkpt lat="46.15915" lon="-1.1538">
        <ele>12.8</ele>
        <time>2019-09-02T10:17:25Z</time>
      </trkpt>
      <trkpt lat="46.15919" lon="-1.15384">
        <ele>12.8</ele>
        <time>2019-09-02T10:17:30Z</time>
      </trkpt>
      <trkpt lat="46.1592" lon="-1.1538">
        <ele>12.8</ele>
        <time>2019-09-02T10:17:35Z</time>
      </trkpt>
      <trkpt lat="46.15922" lon="-1.15374">
        <ele>12.8</ele>
        <time>2019-09-02T10:17:41Z</time>
      </trkpt>
      <trkpt lat="46.15925" lon="-1.15373">
        <ele>12.9</ele>
        <time>2019-09-02T10:17:45Z</time>
      </trkpt>
      <trkpt lat="46.1593" lon="-1.1537">
        <ele>12.9</ele>
        <time>2019-09-02T10:17:49Z</time>
      </trkpt>
      <trkpt lat="46.15934" lon="-1.1537">
        <ele>13</ele>
        <time>2019-09-02T10:17:55Z</time>
      </trkpt>
      <trkpt lat="46.15936" lon="-1.15373">
        <ele>13.1</ele>
        <time>2019-09-02T10:17:58Z</time>
      </trkpt>
      <trkpt lat="46.15938" lon="-1.15369">
        <ele>13.1</ele>
        <time>2019-09-02T10:18:01Z</time>
      </trkpt>
      <trkpt lat="46.15942" lon="-1.1537">
        <ele>13.2</ele>
        <time>2019-09-02T10:18:09Z</time>
      </trkpt>
      <trkpt lat="46.15945" lon="-1.15367">
        <ele>13.2</ele>
        <time>2019-09-02T10:18:11Z</time>
      </trkpt>
      <trkpt lat="46.15947" lon="-1.1537">
        <ele>13.3</ele>
        <time>2019-09-02T10:18:17Z</time>
      </trkpt>
      <trkpt lat="46.1595" lon="-1.15371">
        <ele>13.3</ele>
        <time>2019-09-02T10:18:20Z</time>
      </trkpt>
      <trkpt lat="46.15954" lon="-1.15367">
        <ele>13.4</ele>
        <time>2019-09-02T10:18:24Z</time>
      </trkpt>
      <trkpt lat="46.15958" lon="-1.15368">
        <ele>13.5</ele>
        <time>2019-09-02T10:18:30Z</time>
      </trkpt>
      <trkpt lat="46.15962" lon="-1.15365">
        <ele>13.5</ele>
        <time>2019-09-02T10:18:37Z</time>
      </trkpt>
      <trkpt lat="46.15965" lon="-1.15367">
        <ele>13.6</ele>
        <time>2019-09-02T10:18:38Z</time>
      </trkpt>
      <trkpt lat="46.15969" lon="-1.15365">
        <ele>13.7</ele>
        <time>2019-09-02T10:18:40Z</time>
      </trkpt>
      <trkpt lat="46.15972" lon="-1.15365">
        <ele>13.7</ele>
        <time>2019-09-02T10:18:42Z</time>
      </trkpt>
      <trkpt lat="46.15975" lon="-1.15366">
        <ele>13.7</ele>
        <time>2019-09-02T10:18:49Z</time>
      </trkpt>
      <trkpt lat="46.15977" lon="-1.15364">
        <ele>13.8</ele>
        <time>2019-09-02T10:18:50Z</time>
      </trkpt>
      <trkpt lat="46.15983" lon="-1.15356">
        <ele>13.9</ele>
        <time>2019-09-02T10:18:51Z</time>
      </trkpt>
      <trkpt lat="46.15988" lon="-1.15351">
        <ele>14</ele>
        <time>2019-09-02T10:18:52Z</time>
      </trkpt>
      <trkpt lat="46.15993" lon="-1.15348">
        <ele>14</ele>
        <time>2019-09-02T10:18:53Z</time>
      </trkpt>
      <trkpt lat="46.15996" lon="-1.15347">
        <ele>14.1</ele>
        <time>2019-09-02T10:18:54Z</time>
      </trkpt>
      <trkpt lat="46.16" lon="-1.15344">
        <ele>14.1</ele>
        <time>2019-09-02T10:18:56Z</time>
      </trkpt>
      <trkpt lat="46.16002" lon="-1.15342">
        <ele>14.1</ele>
        <time>2019-09-02T10:18:58Z</time>
      </trkpt>
      <trkpt lat="46.16006" lon="-1.1534">
        <ele>14.2</ele>
        <time>2019-09-02T10:19:01Z</time>
      </trkpt>
      <trkpt lat="46.16009" lon="-1.15339">
        <ele>14.2</ele>
        <time>2019-09-02T10:19:03Z</time>
      </trkpt>
      <trkpt lat="46.16011" lon="-1.15336">
        <ele>14.2</ele>
        <time>2019-09-02T10:19:09Z</time>
      </trkpt>
      <trkpt lat="46.16015" lon="-1.15337">
        <ele>14.3</ele>
        <time>2019-09-02T10:19:17Z</time>
      </trkpt>
      <trkpt lat="46.16018" lon="-1.15336">
        <ele>14.3</ele>
        <time>2019-09-02T10:19:23Z</time>
      </trkpt>
      <trkpt lat="46.16018" lon="-1.15332">
        <ele>14.1</ele>
        <time>2019-09-02T10:19:34Z</time>
      </trkpt>
      <trkpt lat="46.16018" lon="-1.15327">
        <ele>14.1</ele>
        <time>2019-09-02T10:19:38Z</time>
      </trkpt>
      <trkpt lat="46.16019" lon="-1.15322">
        <ele>13.9</ele>
        <time>2019-09-02T10:19:43Z</time>
      </trkpt>
      <trkpt lat="46.16018" lon="-1.15318">
        <ele>13.8</ele>
        <time>2019-09-02T10:19:46Z</time>
      </trkpt>
      <trkpt lat="46.16017" lon="-1.15314">
        <ele>13.8</ele>
        <time>2019-09-02T10:19:49Z</time>
      </trkpt>
      <trkpt lat="46.16016" lon="-1.15309">
        <ele>13.7</ele>
        <time>2019-09-02T10:19:53Z</time>
      </trkpt>
      <trkpt lat="46.16016" lon="-1.15304">
        <ele>13.6</ele>
        <time>2019-09-02T10:19:57Z</time>
      </trkpt>
      <trkpt lat="46.16015" lon="-1.15299">
        <ele>13.5</ele>
        <time>2019-09-02T10:20:00Z</time>
      </trkpt>
      <trkpt lat="46.16015" lon="-1.15295">
        <ele>13.4</ele>
        <time>2019-09-02T10:20:03Z</time>
      </trkpt>
      <trkpt lat="46.16013" lon="-1.1529">
        <ele>13.3</ele>
        <time>2019-09-02T10:20:06Z</time>
      </trkpt>
      <trkpt lat="46.16013" lon="-1.15284">
        <ele>13.3</ele>
        <time>2019-09-02T10:20:10Z</time>
      </trkpt>
      <trkpt lat="46.16012" lon="-1.15278">
        <ele>13.2</ele>
        <time>2019-09-02T10:20:13Z</time>
      </trkpt>
      <trkpt lat="46.16012" lon="-1.15274">
        <ele>13.2</ele>
        <time>2019-09-02T10:20:15Z</time>
      </trkpt>
      <trkpt lat="46.16012" lon="-1.15269">
        <ele>13.2</ele>
        <time>2019-09-02T10:20:18Z</time>
      </trkpt>
      <trkpt lat="46.16011" lon="-1.15266">
        <ele>13.1</ele>
        <time>2019-09-02T10:20:20Z</time>
      </trkpt>
      <trkpt lat="46.16011" lon="-1.15262">
        <ele>13.1</ele>
        <time>2019-09-02T10:20:22Z</time>
      </trkpt>
      <trkpt lat="46.1601" lon="-1.15258">
        <ele>13.1</ele>
        <time>2019-09-02T10:20:25Z</time>
      </trkpt>
      <trkpt lat="46.16008" lon="-1.15255">
        <ele>13.1</ele>
        <time>2019-09-02T10:20:27Z</time>
      </trkpt>
      <trkpt lat="46.16007" lon="-1.1525">
        <ele>13.1</ele>
        <time>2019-09-02T10:20:30Z</time>
      </trkpt>
      <trkpt lat="46.16006" lon="-1.15244">
        <ele>13.1</ele>
        <time>2019-09-02T10:20:33Z</time>
      </trkpt>
      <trkpt lat="46.16006" lon="-1.15239">
        <ele>13</ele>
        <time>2019-09-02T10:20:37Z</time>
      </trkpt>
      <trkpt lat="46.16004" lon="-1.15234">
        <ele>13</ele>
        <time>2019-09-02T10:20:45Z</time>
      </trkpt>
      <trkpt lat="46.16003" lon="-1.1523">
        <ele>13</ele>
        <time>2019-09-02T10:20:48Z</time>
      </trkpt>
      <trkpt lat="46.16004" lon="-1.15227">
        <ele>12.9</ele>
        <time>2019-09-02T10:20:53Z</time>
      </trkpt>
      <trkpt lat="46.16005" lon="-1.15221">
        <ele>12.9</ele>
        <time>2019-09-02T10:20:55Z</time>
      </trkpt>
      <trkpt lat="46.16004" lon="-1.15216">
        <ele>12.9</ele>
        <time>2019-09-02T10:20:58Z</time>
      </trkpt>
      <trkpt lat="46.16004" lon="-1.1521">
        <ele>12.9</ele>
        <time>2019-09-02T10:21:00Z</time>
      </trkpt>
      <trkpt lat="46.16003" lon="-1.15204">
        <ele>12.9</ele>
        <time>2019-09-02T10:21:02Z</time>
      </trkpt>
      <trkpt lat="46.16003" lon="-1.152">
        <ele>12.9</ele>
        <time>2019-09-02T10:21:03Z</time>
      </trkpt>
      <trkpt lat="46.16002" lon="-1.15195">
        <ele>12.9</ele>
        <time>2019-09-02T10:21:05Z</time>
      </trkpt>
      <trkpt lat="46.16001" lon="-1.15191">
        <ele>12.9</ele>
        <time>2019-09-02T10:21:08Z</time>
      </trkpt>
      <trkpt lat="46.16002" lon="-1.15185">
        <ele>12.9</ele>
        <time>2019-09-02T10:21:12Z</time>
      </trkpt>
      <trkpt lat="46.15999" lon="-1.15181">
        <ele>12.9</ele>
        <time>2019-09-02T10:21:21Z</time>
      </trkpt>
      <trkpt lat="46.16" lon="-1.15177">
        <ele>12.9</ele>
        <time>2019-09-02T10:21:30Z</time>
      </trkpt>
      <trkpt lat="46.15996" lon="-1.15177">
        <ele>12.9</ele>
        <time>2019-09-02T10:21:35Z</time>
      </trkpt>
      <trkpt lat="46.15994" lon="-1.15173">
        <ele>12.9</ele>
        <time>2019-09-02T10:21:38Z</time>
      </trkpt>
      <trkpt lat="46.15993" lon="-1.1517">
        <ele>12.9</ele>
        <time>2019-09-02T10:21:52Z</time>
      </trkpt>
      <trkpt lat="46.15993" lon="-1.15174">
        <ele>12.9</ele>
        <time>2019-09-02T10:22:17Z</time>
      </trkpt>
      <trkpt lat="46.1599" lon="-1.15173">
        <ele>12.9</ele>
        <time>2019-09-02T10:22:21Z</time>
      </trkpt>
      <trkpt lat="46.15986" lon="-1.15173">
        <ele>12.9</ele>
        <time>2019-09-02T10:22:25Z</time>
      </trkpt>
      <trkpt lat="46.15984" lon="-1.15173">
        <ele>12.9</ele>
        <time>2019-09-02T10:22:28Z</time>
      </trkpt>
      <trkpt lat="46.15981" lon="-1.15173">
        <ele>12.9</ele>
        <time>2019-09-02T10:22:36Z</time>
      </trkpt>
      <trkpt lat="46.15978" lon="-1.15175">
        <ele>12.9</ele>
        <time>2019-09-02T10:22:41Z</time>
      </trkpt>
      <trkpt lat="46.15975" lon="-1.15173">
        <ele>12.9</ele>
        <time>2019-09-02T10:22:49Z</time>
      </trkpt>
      <trkpt lat="46.15977" lon="-1.1517">
        <ele>12.9</ele>
        <time>2019-09-02T10:22:59Z</time>
      </trkpt>
      <trkpt lat="46.1598" lon="-1.15169">
        <ele>12.9</ele>
        <time>2019-09-02T10:23:02Z</time>
      </trkpt>
      <trkpt lat="46.15984" lon="-1.15171">
        <ele>12.9</ele>
        <time>2019-09-02T10:23:23Z</time>
      </trkpt>
      <trkpt lat="46.15986" lon="-1.15174">
        <ele>12.9</ele>
        <time>2019-09-02T10:23:30Z</time>
      </trkpt>
      <trkpt lat="46.15989" lon="-1.15174">
        <ele>12.9</ele>
        <time>2019-09-02T10:23:33Z</time>
      </trkpt>
      <trkpt lat="46.15986" lon="-1.15174">
        <ele>12.9</ele>
        <time>2019-09-02T10:23:37Z</time>
      </trkpt>
      <trkpt lat="46.15984" lon="-1.1517">
        <ele>12.9</ele>
        <time>2019-09-02T10:23:43Z</time>
      </trkpt>
      <trkpt lat="46.15987" lon="-1.15168">
        <ele>12.9</ele>
        <time>2019-09-02T10:23:47Z</time>
      </trkpt>
      <trkpt lat="46.1599" lon="-1.15166">
        <ele>12.9</ele>
        <time>2019-09-02T10:23:53Z</time>
      </trkpt>
      <trkpt lat="46.15987" lon="-1.15162">
        <ele>12.9</ele>
        <time>2019-09-02T10:23:58Z</time>
      </trkpt>
      <trkpt lat="46.15985" lon="-1.15159">
        <ele>13</ele>
        <time>2019-09-02T10:24:04Z</time>
      </trkpt>
      <trkpt lat="46.15984" lon="-1.15152">
        <ele>13</ele>
        <time>2019-09-02T10:24:10Z</time>
      </trkpt>
      <trkpt lat="46.15985" lon="-1.15148">
        <ele>13</ele>
        <time>2019-09-02T10:24:14Z</time>
      </trkpt>
      <trkpt lat="46.15985" lon="-1.15144">
        <ele>13</ele>
        <time>2019-09-02T10:24:16Z</time>
      </trkpt>
      <trkpt lat="46.15985" lon="-1.15138">
        <ele>13</ele>
        <time>2019-09-02T10:24:19Z</time>
      </trkpt>
      <trkpt lat="46.15986" lon="-1.15133">
        <ele>13</ele>
        <time>2019-09-02T10:24:23Z</time>
      </trkpt>
      <trkpt lat="46.15985" lon="-1.15128">
        <ele>13</ele>
        <time>2019-09-02T10:24:26Z</time>
      </trkpt>
      <trkpt lat="46.15985" lon="-1.15123">
        <ele>13</ele>
        <time>2019-09-02T10:24:29Z</time>
      </trkpt>
      <trkpt lat="46.15983" lon="-1.15118">
        <ele>13</ele>
        <time>2019-09-02T10:24:32Z</time>
      </trkpt>
      <trkpt lat="46.15982" lon="-1.15115">
        <ele>13.1</ele>
        <time>2019-09-02T10:24:35Z</time>
      </trkpt>
      <trkpt lat="46.15981" lon="-1.15109">
        <ele>13.1</ele>
        <time>2019-09-02T10:24:38Z</time>
      </trkpt>
      <trkpt lat="46.15981" lon="-1.15105">
        <ele>13.1</ele>
        <time>2019-09-02T10:24:57Z</time>
      </trkpt>
      <trkpt lat="46.1598" lon="-1.15101">
        <ele>13.1</ele>
        <time>2019-09-02T10:25:00Z</time>
      </trkpt>
      <trkpt lat="46.15979" lon="-1.15096">
        <ele>13</ele>
        <time>2019-09-02T10:25:02Z</time>
      </trkpt>
      <trkpt lat="46.15978" lon="-1.15091">
        <ele>13</ele>
        <time>2019-09-02T10:25:05Z</time>
      </trkpt>
      <trkpt lat="46.15978" lon="-1.15086">
        <ele>13</ele>
        <time>2019-09-02T10:25:08Z</time>
      </trkpt>
      <trkpt lat="46.15977" lon="-1.15082">
        <ele>13</ele>
        <time>2019-09-02T10:25:11Z</time>
      </trkpt>
      <trkpt lat="46.15975" lon="-1.15077">
        <ele>13</ele>
        <time>2019-09-02T10:25:14Z</time>
      </trkpt>
      <trkpt lat="46.15973" lon="-1.15072">
        <ele>13</ele>
        <time>2019-09-02T10:25:17Z</time>
      </trkpt>
      <trkpt lat="46.15971" lon="-1.1507">
        <ele>12.9</ele>
        <time>2019-09-02T10:25:22Z</time>
      </trkpt>
      <trkpt lat="46.15968" lon="-1.15071">
        <ele>12.8</ele>
        <time>2019-09-02T10:25:25Z</time>
      </trkpt>
      <trkpt lat="46.15966" lon="-1.15068">
        <ele>12.8</ele>
        <time>2019-09-02T10:25:37Z</time>
      </trkpt>
      <trkpt lat="46.15965" lon="-1.15063">
        <ele>12.7</ele>
        <time>2019-09-02T10:25:41Z</time>
      </trkpt>
      <trkpt lat="46.15963" lon="-1.1506">
        <ele>12.6</ele>
        <time>2019-09-02T10:25:45Z</time>
      </trkpt>
      <trkpt lat="46.15962" lon="-1.15056">
        <ele>12.6</ele>
        <time>2019-09-02T10:25:48Z</time>
      </trkpt>
      <trkpt lat="46.15961" lon="-1.15053">
        <ele>12.5</ele>
        <time>2019-09-02T10:25:51Z</time>
      </trkpt>
      <trkpt lat="46.1596" lon="-1.15048">
        <ele>12.5</ele>
        <time>2019-09-02T10:25:54Z</time>
      </trkpt>
      <trkpt lat="46.15958" lon="-1.15045">
        <ele>12.4</ele>
        <time>2019-09-02T10:25:56Z</time>
      </trkpt>
      <trkpt lat="46.15956" lon="-1.15044">
        <ele>12.4</ele>
        <time>2019-09-02T10:25:58Z</time>
      </trkpt>
      <trkpt lat="46.15954" lon="-1.1504">
        <ele>12.3</ele>
        <time>2019-09-02T10:26:02Z</time>
      </trkpt>
      <trkpt lat="46.15953" lon="-1.15035">
        <ele>12.2</ele>
        <time>2019-09-02T10:26:10Z</time>
      </trkpt>
      <trkpt lat="46.15951" lon="-1.15033">
        <ele>12.1</ele>
        <time>2019-09-02T10:26:12Z</time>
      </trkpt>
      <trkpt lat="46.15949" lon="-1.15029">
        <ele>12.1</ele>
        <time>2019-09-02T10:26:15Z</time>
      </trkpt>
      <trkpt lat="46.15948" lon="-1.15026">
        <ele>12.1</ele>
        <time>2019-09-02T10:26:18Z</time>
      </trkpt>
      <trkpt lat="46.15946" lon="-1.15022">
        <ele>12</ele>
        <time>2019-09-02T10:26:21Z</time>
      </trkpt>
      <trkpt lat="46.15943" lon="-1.15019">
        <ele>12</ele>
        <time>2019-09-02T10:26:24Z</time>
      </trkpt>
      <trkpt lat="46.15946" lon="-1.1502">
        <ele>12</ele>
        <time>2019-09-02T10:26:32Z</time>
      </trkpt>
      <trkpt lat="46.15949" lon="-1.15025">
        <ele>11.9</ele>
        <time>2019-09-02T10:26:35Z</time>
      </trkpt>
      <trkpt lat="46.15951" lon="-1.15027">
        <ele>12</ele>
        <time>2019-09-02T10:26:38Z</time>
      </trkpt>
      <trkpt lat="46.15953" lon="-1.15032">
        <ele>12.1</ele>
        <time>2019-09-02T10:26:41Z</time>
      </trkpt>
      <trkpt lat="46.15952" lon="-1.15036">
        <ele>12.2</ele>
        <time>2019-09-02T10:27:11Z</time>
      </trkpt>
      <trkpt lat="46.15952" lon="-1.15041">
        <ele>12.3</ele>
        <time>2019-09-02T10:27:15Z</time>
      </trkpt>
      <trkpt lat="46.15949" lon="-1.15045">
        <ele>12.3</ele>
        <time>2019-09-02T10:27:20Z</time>
      </trkpt>
      <trkpt lat="46.15946" lon="-1.15046">
        <ele>12.3</ele>
        <time>2019-09-02T10:27:23Z</time>
      </trkpt>
      <trkpt lat="46.15943" lon="-1.1505">
        <ele>12.3</ele>
        <time>2019-09-02T10:27:26Z</time>
      </trkpt>
      <trkpt lat="46.1594" lon="-1.15053">
        <ele>12.3</ele>
        <time>2019-09-02T10:27:30Z</time>
      </trkpt>
      <trkpt lat="46.15937" lon="-1.15053">
        <ele>12.2</ele>
        <time>2019-09-02T10:27:33Z</time>
      </trkpt>
      <trkpt lat="46.15933" lon="-1.15055">
        <ele>12.2</ele>
        <time>2019-09-02T10:27:37Z</time>
      </trkpt>
      <trkpt lat="46.15931" lon="-1.15057">
        <ele>12.2</ele>
        <time>2019-09-02T10:27:41Z</time>
      </trkpt>
      <trkpt lat="46.15929" lon="-1.1506">
        <ele>12.2</ele>
        <time>2019-09-02T10:27:43Z</time>
      </trkpt>
      <trkpt lat="46.15927" lon="-1.15063">
        <ele>12.1</ele>
        <time>2019-09-02T10:27:45Z</time>
      </trkpt>
      <trkpt lat="46.15926" lon="-1.15068">
        <ele>12.2</ele>
        <time>2019-09-02T10:27:48Z</time>
      </trkpt>
      <trkpt lat="46.15923" lon="-1.15072">
        <ele>12.2</ele>
        <time>2019-09-02T10:27:51Z</time>
      </trkpt>
      <trkpt lat="46.15922" lon="-1.15076">
        <ele>12.2</ele>
        <time>2019-09-02T10:27:55Z</time>
      </trkpt>
      <trkpt lat="46.15919" lon="-1.15079">
        <ele>12.2</ele>
        <time>2019-09-02T10:27:58Z</time>
      </trkpt>
      <trkpt lat="46.15917" lon="-1.15078">
        <ele>12.2</ele>
        <time>2019-09-02T10:28:08Z</time>
      </trkpt>
      <trkpt lat="46.15913" lon="-1.15075">
        <ele>12.1</ele>
        <time>2019-09-02T10:28:11Z</time>
      </trkpt>
      <trkpt lat="46.15911" lon="-1.15072">
        <ele>12.1</ele>
        <time>2019-09-02T10:28:13Z</time>
      </trkpt>
      <trkpt lat="46.1591" lon="-1.15066">
        <ele>12</ele>
        <time>2019-09-02T10:28:17Z</time>
      </trkpt>
      <trkpt lat="46.1591" lon="-1.15062">
        <ele>11.9</ele>
        <time>2019-09-02T10:28:20Z</time>
      </trkpt>
      <trkpt lat="46.15906" lon="-1.15062">
        <ele>11.8</ele>
        <time>2019-09-02T10:28:22Z</time>
      </trkpt>
      <trkpt lat="46.15902" lon="-1.15063">
        <ele>11.7</ele>
        <time>2019-09-02T10:28:24Z</time>
      </trkpt>
      <trkpt lat="46.159" lon="-1.1506">
        <ele>11.7</ele>
        <time>2019-09-02T10:28:27Z</time>
      </trkpt>
      <trkpt lat="46.15896" lon="-1.15059">
        <ele>11.6</ele>
        <time>2019-09-02T10:28:30Z</time>
      </trkpt>
      <trkpt lat="46.15894" lon="-1.15062">
        <ele>11.4</ele>
        <time>2019-09-02T10:28:34Z</time>
      </trkpt>
      <trkpt lat="46.15891" lon="-1.15067">
        <ele>11.3</ele>
        <time>2019-09-02T10:28:37Z</time>
      </trkpt>
      <trkpt lat="46.15889" lon="-1.1507">
        <ele>11.3</ele>
        <time>2019-09-02T10:28:39Z</time>
      </trkpt>
      <trkpt lat="46.15885" lon="-1.1507">
        <ele>11.2</ele>
        <time>2019-09-02T10:28:42Z</time>
      </trkpt>
      <trkpt lat="46.15882" lon="-1.15069">
        <ele>11.2</ele>
        <time>2019-09-02T10:28:44Z</time>
      </trkpt>
      <trkpt lat="46.15878" lon="-1.15067">
        <ele>11.1</ele>
        <time>2019-09-02T10:28:46Z</time>
      </trkpt>
      <trkpt lat="46.15876" lon="-1.15063">
        <ele>11.1</ele>
        <time>2019-09-02T10:28:48Z</time>
      </trkpt>
      <trkpt lat="46.15869" lon="-1.1506">
        <ele>10.5</ele>
        <time>2019-09-02T10:28:59Z</time>
      </trkpt>
      <trkpt lat="46.15865" lon="-1.15058">
        <ele>10.4</ele>
        <time>2019-09-02T10:29:03Z</time>
      </trkpt>
      <trkpt lat="46.1586" lon="-1.15056">
        <ele>10.2</ele>
        <time>2019-09-02T10:29:10Z</time>
      </trkpt>
      <trkpt lat="46.15856" lon="-1.15054">
        <ele>10.1</ele>
        <time>2019-09-02T10:29:14Z</time>
      </trkpt>
      <trkpt lat="46.15852" lon="-1.15052">
        <ele>9.9</ele>
        <time>2019-09-02T10:30:26Z</time>
      </trkpt>
      <trkpt lat="46.15848" lon="-1.1505">
        <ele>9.6</ele>
        <time>2019-09-02T10:30:28Z</time>
      </trkpt>
      <trkpt lat="46.15844" lon="-1.15048">
        <ele>9.4</ele>
        <time>2019-09-02T10:30:31Z</time>
      </trkpt>
      <trkpt lat="46.1584" lon="-1.15046">
        <ele>9.3</ele>
        <time>2019-09-02T10:30:32Z</time>
      </trkpt>
      <trkpt lat="46.15838" lon="-1.15039">
        <ele>9</ele>
        <time>2019-09-02T10:30:34Z</time>
      </trkpt>
      <trkpt lat="46.15837" lon="-1.15034">
        <ele>9</ele>
        <time>2019-09-02T10:30:35Z</time>
      </trkpt>
      <trkpt lat="46.15838" lon="-1.1503">
        <ele>9</ele>
        <time>2019-09-02T10:30:37Z</time>
      </trkpt>
      <trkpt lat="46.15841" lon="-1.15029">
        <ele>9</ele>
        <time>2019-09-02T10:30:39Z</time>
      </trkpt>
      <trkpt lat="46.15842" lon="-1.15032">
        <ele>8.9</ele>
        <time>2019-09-02T10:30:40Z</time>
      </trkpt>
      <trkpt lat="46.15843" lon="-1.15037">
        <ele>8.9</ele>
        <time>2019-09-02T10:30:43Z</time>
      </trkpt>
      <trkpt lat="46.15845" lon="-1.15035">
        <ele>8.9</ele>
        <time>2019-09-02T10:30:44Z</time>
      </trkpt>
      <trkpt lat="46.15845" lon="-1.1503">
        <ele>8.9</ele>
        <time>2019-09-02T10:30:54Z</time>
      </trkpt>
      <trkpt lat="46.15843" lon="-1.15026">
        <ele>8.8</ele>
        <time>2019-09-02T10:30:56Z</time>
      </trkpt>
      <trkpt lat="46.15841" lon="-1.15015">
        <ele>8.8</ele>
        <time>2019-09-02T10:30:58Z</time>
      </trkpt>
      <trkpt lat="46.15836" lon="-1.15008">
        <ele>8.4</ele>
        <time>2019-09-02T10:31:01Z</time>
      </trkpt>
      <trkpt lat="46.15832" lon="-1.15">
        <ele>8.3</ele>
        <time>2019-09-02T10:32:20Z</time>
      </trkpt>
      <trkpt lat="46.15827" lon="-1.14993">
        <ele>8.3</ele>
        <time>2019-09-02T10:32:21Z</time>
      </trkpt>
      <trkpt lat="46.15827" lon="-1.14999">
        <ele>8.3</ele>
        <time>2019-09-02T10:32:22Z</time>
      </trkpt>
      <trkpt lat="46.15824" lon="-1.15004">
        <ele>8.2</ele>
        <time>2019-09-02T10:32:23Z</time>
      </trkpt>
      <trkpt lat="46.15822" lon="-1.15009">
        <ele>8.1</ele>
        <time>2019-09-02T10:32:24Z</time>
      </trkpt>
      <trkpt lat="46.1582" lon="-1.15012">
        <ele>8.1</ele>
        <time>2019-09-02T10:32:30Z</time>
      </trkpt>
      <trkpt lat="46.15824" lon="-1.15013">
        <ele>8.1</ele>
        <time>2019-09-02T10:32:32Z</time>
      </trkpt>
      <trkpt lat="46.15831" lon="-1.15014">
        <ele>8.2</ele>
        <time>2019-09-02T10:32:34Z</time>
      </trkpt>
      <trkpt lat="46.15839" lon="-1.15017">
        <ele>8.8</ele>
        <time>2019-09-02T10:32:35Z</time>
      </trkpt>
      <trkpt lat="46.15849" lon="-1.1502">
        <ele>9.2</ele>
        <time>2019-09-02T10:32:36Z</time>
      </trkpt>
      <trkpt lat="46.15856" lon="-1.15022">
        <ele>9.6</ele>
        <time>2019-09-02T10:32:37Z</time>
      </trkpt>
      <trkpt lat="46.15864" lon="-1.15023">
        <ele>9.6</ele>
        <time>2019-09-02T10:32:38Z</time>
      </trkpt>
      <trkpt lat="46.15867" lon="-1.15025">
        <ele>9.6</ele>
        <time>2019-09-02T10:32:40Z</time>
      </trkpt>
      <trkpt lat="46.1587" lon="-1.15027">
        <ele>9.6</ele>
        <time>2019-09-02T10:32:44Z</time>
      </trkpt>
      <trkpt lat="46.15871" lon="-1.15023">
        <ele>9.6</ele>
        <time>2019-09-02T10:32:48Z</time>
      </trkpt>
      <trkpt lat="46.15871" lon="-1.15018">
        <ele>9.6</ele>
        <time>2019-09-02T10:32:53Z</time>
      </trkpt>
      <trkpt lat="46.15873" lon="-1.15021">
        <ele>9.6</ele>
        <time>2019-09-02T10:32:59Z</time>
      </trkpt>
      <trkpt lat="46.15877" lon="-1.15015">
        <ele>9.6</ele>
        <time>2019-09-02T10:33:05Z</time>
      </trkpt>
      <trkpt lat="46.15898" lon="-1.15018">
        <ele>9.6</ele>
        <time>2019-09-02T10:34:23Z</time>
      </trkpt>
      <trkpt lat="46.15897" lon="-1.15022">
        <ele>9.6</ele>
        <time>2019-09-02T10:34:26Z</time>
      </trkpt>
      <trkpt lat="46.15896" lon="-1.15027">
        <ele>9.6</ele>
        <time>2019-09-02T10:34:28Z</time>
      </trkpt>
      <trkpt lat="46.15894" lon="-1.1503">
        <ele>9.6</ele>
        <time>2019-09-02T10:34:31Z</time>
      </trkpt>
      <trkpt lat="46.15894" lon="-1.15034">
        <ele>9.6</ele>
        <time>2019-09-02T10:34:40Z</time>
      </trkpt>
      <trkpt lat="46.15892" lon="-1.15037">
        <ele>9.6</ele>
        <time>2019-09-02T10:34:44Z</time>
      </trkpt>
      <trkpt lat="46.15889" lon="-1.15041">
        <ele>9.6</ele>
        <time>2019-09-02T10:34:46Z</time>
      </trkpt>
      <trkpt lat="46.15893" lon="-1.15037">
        <ele>9.6</ele>
        <time>2019-09-02T10:34:49Z</time>
      </trkpt>
      <trkpt lat="46.15893" lon="-1.15041">
        <ele>9.6</ele>
        <time>2019-09-02T10:34:50Z</time>
      </trkpt>
      <trkpt lat="46.15895" lon="-1.15046">
        <ele>9.6</ele>
        <time>2019-09-02T10:34:51Z</time>
      </trkpt>
      <trkpt lat="46.15893" lon="-1.1505">
        <ele>9.6</ele>
        <time>2019-09-02T10:34:54Z</time>
      </trkpt>
      <trkpt lat="46.1581" lon="-1.15041">
        <ele>7.1</ele>
        <time>2019-09-02T10:36:58Z</time>
      </trkpt>
      <trkpt lat="46.15827" lon="-1.1501">
        <ele>8.2</ele>
        <time>2019-09-02T10:37:00Z</time>
      </trkpt>
      <trkpt lat="46.15847" lon="-1.15046">
        <ele>9.1</ele>
        <time>2019-09-02T10:37:02Z</time>
      </trkpt>
      <trkpt lat="46.15847" lon="-1.15062">
        <ele>9.2</ele>
        <time>2019-09-02T10:37:03Z</time>
      </trkpt>
      <trkpt lat="46.15851" lon="-1.15052">
        <ele>9.3</ele>
        <time>2019-09-02T10:37:04Z</time>
      </trkpt>
      <trkpt lat="46.15853" lon="-1.15049">
        <ele>9.3</ele>
        <time>2019-09-02T10:37:05Z</time>
      </trkpt>
      <trkpt lat="46.15855" lon="-1.15047">
        <ele>9.4</ele>
        <time>2019-09-02T10:37:06Z</time>
      </trkpt>
      <trkpt lat="46.1586" lon="-1.15046">
        <ele>9.4</ele>
        <time>2019-09-02T10:37:07Z</time>
      </trkpt>
      <trkpt lat="46.15862" lon="-1.15042">
        <ele>9.5</ele>
        <time>2019-09-02T10:37:10Z</time>
      </trkpt>
      <trkpt lat="46.15862" lon="-1.15038">
        <ele>9.5</ele>
        <time>2019-09-02T10:37:17Z</time>
      </trkpt>
      <trkpt lat="46.15859" lon="-1.15034">
        <ele>9.5</ele>
        <time>2019-09-02T10:37:22Z</time>
      </trkpt>
      <trkpt lat="46.15856" lon="-1.15031">
        <ele>9.2</ele>
        <time>2019-09-02T10:37:24Z</time>
      </trkpt>
      <trkpt lat="46.15854" lon="-1.15028">
        <ele>9.1</ele>
        <time>2019-09-02T10:37:29Z</time>
      </trkpt>
      <trkpt lat="46.15851" lon="-1.15025">
        <ele>9</ele>
        <time>2019-09-02T10:37:32Z</time>
      </trkpt>
      <trkpt lat="46.15848" lon="-1.15024">
        <ele>9</ele>
        <time>2019-09-02T10:37:36Z</time>
      </trkpt>
      <trkpt lat="46.15846" lon="-1.15021">
        <ele>8.9</ele>
        <time>2019-09-02T10:37:40Z</time>
      </trkpt>
      <trkpt lat="46.15844" lon="-1.15017">
        <ele>8.8</ele>
        <time>2019-09-02T10:37:45Z</time>
      </trkpt>
      <trkpt lat="46.15843" lon="-1.15013">
        <ele>8.8</ele>
        <time>2019-09-02T10:37:53Z</time>
      </trkpt>
      <trkpt lat="46.15841" lon="-1.15011">
        <ele>8.7</ele>
        <time>2019-09-02T10:38:07Z</time>
      </trkpt>
      <trkpt lat="46.15839" lon="-1.15007">
        <ele>8.5</ele>
        <time>2019-09-02T10:38:12Z</time>
      </trkpt>
      <trkpt lat="46.15837" lon="-1.15003">
        <ele>8.5</ele>
        <time>2019-09-02T10:38:24Z</time>
      </trkpt>
      <trkpt lat="46.15836" lon="-1.14999">
        <ele>8.5</ele>
        <time>2019-09-02T10:38:29Z</time>
      </trkpt>
      <trkpt lat="46.15836" lon="-1.15003">
        <ele>8.5</ele>
        <time>2019-09-02T10:38:33Z</time>
      </trkpt>
      <trkpt lat="46.15835" lon="-1.15007">
        <ele>8.5</ele>
        <time>2019-09-02T10:38:36Z</time>
      </trkpt>
      <trkpt lat="46.15834" lon="-1.15011">
        <ele>8.5</ele>
        <time>2019-09-02T10:38:39Z</time>
      </trkpt>
      <trkpt lat="46.15833" lon="-1.15016">
        <ele>8.2</ele>
        <time>2019-09-02T10:38:42Z</time>
      </trkpt>
      <trkpt lat="46.15835" lon="-1.1502">
        <ele>8.1</ele>
        <time>2019-09-02T10:38:49Z</time>
      </trkpt>
      <trkpt lat="46.15832" lon="-1.15022">
        <ele>8</ele>
        <time>2019-09-02T10:38:55Z</time>
      </trkpt>
      <trkpt lat="46.1583" lon="-1.15025">
        <ele>7.9</ele>
        <time>2019-09-02T10:38:58Z</time>
      </trkpt>
      <trkpt lat="46.15828" lon="-1.15029">
        <ele>7.8</ele>
        <time>2019-09-02T10:39:01Z</time>
      </trkpt>
      <trkpt lat="46.15826" lon="-1.15033">
        <ele>7.7</ele>
        <time>2019-09-02T10:39:04Z</time>
      </trkpt>
      <trkpt lat="46.15824" lon="-1.15037">
        <ele>7.5</ele>
        <time>2019-09-02T10:39:07Z</time>
      </trkpt>
      <trkpt lat="46.15822" lon="-1.1504">
        <ele>7.4</ele>
        <time>2019-09-02T10:39:10Z</time>
      </trkpt>
      <trkpt lat="46.1582" lon="-1.15044">
        <ele>7.3</ele>
        <time>2019-09-02T10:39:13Z</time>
      </trkpt>
      <trkpt lat="46.15818" lon="-1.15048">
        <ele>7.2</ele>
        <time>2019-09-02T10:39:16Z</time>
      </trkpt>
      <trkpt lat="46.15816" lon="-1.15051">
        <ele>7.1</ele>
        <time>2019-09-02T10:39:19Z</time>
      </trkpt>
      <trkpt lat="46.15813" lon="-1.15054">
        <ele>7</ele>
        <time>2019-09-02T10:39:22Z</time>
      </trkpt>
      <trkpt lat="46.15811" lon="-1.15057">
        <ele>6.8</ele>
        <time>2019-09-02T10:39:25Z</time>
      </trkpt>
      <trkpt lat="46.1581" lon="-1.15062">
        <ele>6.8</ele>
        <time>2019-09-02T10:39:28Z</time>
      </trkpt>
      <trkpt lat="46.15807" lon="-1.15065">
        <ele>6.2</ele>
        <time>2019-09-02T10:39:31Z</time>
      </trkpt>
      <trkpt lat="46.15804" lon="-1.15068">
        <ele>6.2</ele>
        <time>2019-09-02T10:39:34Z</time>
      </trkpt>
      <trkpt lat="46.15801" lon="-1.15071">
        <ele>6.2</ele>
        <time>2019-09-02T10:39:37Z</time>
      </trkpt>
      <trkpt lat="46.15798" lon="-1.15074">
        <ele>5.6</ele>
        <time>2019-09-02T10:39:40Z</time>
      </trkpt>
      <trkpt lat="46.15795" lon="-1.15076">
        <ele>5.6</ele>
        <time>2019-09-02T10:39:43Z</time>
      </trkpt>
      <trkpt lat="46.15793" lon="-1.15078">
        <ele>5.5</ele>
        <time>2019-09-02T10:39:46Z</time>
      </trkpt>
      <trkpt lat="46.1579" lon="-1.1508">
        <ele>5.4</ele>
        <time>2019-09-02T10:39:50Z</time>
      </trkpt>
      <trkpt lat="46.15787" lon="-1.15081">
        <ele>5.4</ele>
        <time>2019-09-02T10:39:53Z</time>
      </trkpt>
      <trkpt lat="46.15784" lon="-1.15079">
        <ele>5.1</ele>
        <time>2019-09-02T10:40:11Z</time>
      </trkpt>
      <trkpt lat="46.15781" lon="-1.1508">
        <ele>4.9</ele>
        <time>2019-09-02T10:40:16Z</time>
      </trkpt>
      <trkpt lat="46.15778" lon="-1.15081">
        <ele>4.6</ele>
        <time>2019-09-02T10:40:19Z</time>
      </trkpt>
      <trkpt lat="46.15775" lon="-1.15083">
        <ele>4.3</ele>
        <time>2019-09-02T10:40:23Z</time>
      </trkpt>
      <trkpt lat="46.15773" lon="-1.15082">
        <ele>4.1</ele>
        <time>2019-09-02T10:40:41Z</time>
      </trkpt>
      <trkpt lat="46.15772" lon="-1.15078">
        <ele>3.9</ele>
        <time>2019-09-02T10:44:59Z</time>
      </trkpt>
      <trkpt lat="46.15772" lon="-1.15083">
        <ele>3.6</ele>
        <time>2019-09-02T10:45:05Z</time>
      </trkpt>
      <trkpt lat="46.1577" lon="-1.15086">
        <ele>3.3</ele>
        <time>2019-09-02T10:45:09Z</time>
      </trkpt>
      <trkpt lat="46.15767" lon="-1.15088">
        <ele>3.1</ele>
        <time>2019-09-02T10:45:19Z</time>
      </trkpt>
      <trkpt lat="46.15764" lon="-1.15088">
        <ele>2.8</ele>
        <time>2019-09-02T10:45:24Z</time>
      </trkpt>
      <trkpt lat="46.15761" lon="-1.15091">
        <ele>2.6</ele>
        <time>2019-09-02T10:45:27Z</time>
      </trkpt>
      <trkpt lat="46.15758" lon="-1.15093">
        <ele>2.2</ele>
        <time>2019-09-02T10:45:30Z</time>
      </trkpt>
      <trkpt lat="46.15755" lon="-1.15096">
        <ele>2</ele>
        <time>2019-09-02T10:45:33Z</time>
      </trkpt>
      <trkpt lat="46.15753" lon="-1.15099">
        <ele>1.7</ele>
        <time>2019-09-02T10:45:36Z</time>
      </trkpt>
      <trkpt lat="46.15751" lon="-1.15102">
        <ele>1.6</ele>
        <time>2019-09-02T10:45:39Z</time>
      </trkpt>
      <trkpt lat="46.15748" lon="-1.15105">
        <ele>1.6</ele>
        <time>2019-09-02T10:45:43Z</time>
      </trkpt>
      <trkpt lat="46.15745" lon="-1.15108">
        <ele>1.5</ele>
        <time>2019-09-02T10:45:46Z</time>
      </trkpt>
      <trkpt lat="46.15741" lon="-1.15111">
        <ele>1.4</ele>
        <time>2019-09-02T10:45:49Z</time>
      </trkpt>
      <trkpt lat="46.15738" lon="-1.15112">
        <ele>1.4</ele>
        <time>2019-09-02T10:45:53Z</time>
      </trkpt>
      <trkpt lat="46.15735" lon="-1.15114">
        <ele>1.3</ele>
        <time>2019-09-02T10:45:56Z</time>
      </trkpt>
      <trkpt lat="46.15732" lon="-1.15117">
        <ele>1.2</ele>
        <time>2019-09-02T10:45:59Z</time>
      </trkpt>
      <trkpt lat="46.1573" lon="-1.15119">
        <ele>1.2</ele>
        <time>2019-09-02T10:46:01Z</time>
      </trkpt>
      <trkpt lat="46.15728" lon="-1.15121">
        <ele>1.2</ele>
        <time>2019-09-02T10:46:03Z</time>
      </trkpt>
      <trkpt lat="46.15725" lon="-1.15123">
        <ele>1.1</ele>
        <time>2019-09-02T10:46:06Z</time>
      </trkpt>
      <trkpt lat="46.15722" lon="-1.15125">
        <ele>1.1</ele>
        <time>2019-09-02T10:46:09Z</time>
      </trkpt>
      <trkpt lat="46.1572" lon="-1.15127">
        <ele>1.1</ele>
        <time>2019-09-02T10:46:12Z</time>
      </trkpt>
      <trkpt lat="46.15717" lon="-1.15128">
        <ele>1.1</ele>
        <time>2019-09-02T10:46:14Z</time>
      </trkpt>
      <trkpt lat="46.15713" lon="-1.15131">
        <ele>1</ele>
        <time>2019-09-02T10:46:17Z</time>
      </trkpt>
      <trkpt lat="46.1571" lon="-1.15132">
        <ele>1</ele>
        <time>2019-09-02T10:46:20Z</time>
      </trkpt>
      <trkpt lat="46.15707" lon="-1.15134">
        <ele>1</ele>
        <time>2019-09-02T10:46:23Z</time>
      </trkpt>
      <trkpt lat="46.15704" lon="-1.15137">
        <ele>1</ele>
        <time>2019-09-02T10:46:26Z</time>
      </trkpt>
      <trkpt lat="46.15702" lon="-1.15139">
        <ele>1</ele>
        <time>2019-09-02T10:46:29Z</time>
      </trkpt>
      <trkpt lat="46.15699" lon="-1.15142">
        <ele>1</ele>
        <time>2019-09-02T10:46:33Z</time>
      </trkpt>
      <trkpt lat="46.15696" lon="-1.15145">
        <ele>1</ele>
        <time>2019-09-02T10:46:37Z</time>
      </trkpt>
      <trkpt lat="46.15694" lon="-1.15147">
        <ele>1</ele>
        <time>2019-09-02T10:46:40Z</time>
      </trkpt>
      <trkpt lat="46.1569" lon="-1.15148">
        <ele>1</ele>
        <time>2019-09-02T10:46:43Z</time>
      </trkpt>
      <trkpt lat="46.15688" lon="-1.1515">
        <ele>1</ele>
        <time>2019-09-02T10:46:46Z</time>
      </trkpt>
      <trkpt lat="46.15686" lon="-1.15152">
        <ele>1</ele>
        <time>2019-09-02T10:46:49Z</time>
      </trkpt>
      <trkpt lat="46.15683" lon="-1.15155">
        <ele>1</ele>
        <time>2019-09-02T10:46:52Z</time>
      </trkpt>
      <trkpt lat="46.15681" lon="-1.15158">
        <ele>1</ele>
        <time>2019-09-02T10:46:55Z</time>
      </trkpt>
      <trkpt lat="46.15679" lon="-1.1516">
        <ele>1</ele>
        <time>2019-09-02T10:46:58Z</time>
      </trkpt>
      <trkpt lat="46.15676" lon="-1.15163">
        <ele>1</ele>
        <time>2019-09-02T10:47:01Z</time>
      </trkpt>
      <trkpt lat="46.15673" lon="-1.15165">
        <ele>1</ele>
        <time>2019-09-02T10:47:05Z</time>
      </trkpt>
      <trkpt lat="46.15671" lon="-1.15168">
        <ele>1</ele>
        <time>2019-09-02T10:47:08Z</time>
      </trkpt>
      <trkpt lat="46.15667" lon="-1.15168">
        <ele>1</ele>
        <time>2019-09-02T10:47:12Z</time>
      </trkpt>
      <trkpt lat="46.15665" lon="-1.15169">
        <ele>0.9</ele>
        <time>2019-09-02T10:47:15Z</time>
      </trkpt>
      <trkpt lat="46.15662" lon="-1.15169">
        <ele>0.9</ele>
        <time>2019-09-02T10:47:19Z</time>
      </trkpt>
      <trkpt lat="46.15659" lon="-1.15172">
        <ele>0.9</ele>
        <time>2019-09-02T10:47:23Z</time>
      </trkpt>
      <trkpt lat="46.15656" lon="-1.15174">
        <ele>0.9</ele>
        <time>2019-09-02T10:47:26Z</time>
      </trkpt>
      <trkpt lat="46.15653" lon="-1.15174">
        <ele>0.9</ele>
        <time>2019-09-02T10:47:30Z</time>
      </trkpt>
      <trkpt lat="46.15651" lon="-1.15177">
        <ele>0.9</ele>
        <time>2019-09-02T10:47:33Z</time>
      </trkpt>
      <trkpt lat="46.15649" lon="-1.1518">
        <ele>0.9</ele>
        <time>2019-09-02T10:47:38Z</time>
      </trkpt>
      <trkpt lat="46.15646" lon="-1.1518">
        <ele>0.8</ele>
        <time>2019-09-02T10:47:44Z</time>
      </trkpt>
      <trkpt lat="46.15642" lon="-1.15181">
        <ele>0.8</ele>
        <time>2019-09-02T10:47:48Z</time>
      </trkpt>
      <trkpt lat="46.15639" lon="-1.15182">
        <ele>0.8</ele>
        <time>2019-09-02T10:47:51Z</time>
      </trkpt>
      <trkpt lat="46.15637" lon="-1.15179">
        <ele>0.8</ele>
        <time>2019-09-02T10:47:57Z</time>
      </trkpt>
      <trkpt lat="46.15634" lon="-1.15181">
        <ele>0.8</ele>
        <time>2019-09-02T10:48:01Z</time>
      </trkpt>
      <trkpt lat="46.1563" lon="-1.15181">
        <ele>0.8</ele>
        <time>2019-09-02T10:48:06Z</time>
      </trkpt>
      <trkpt lat="46.15627" lon="-1.15179">
        <ele>0.8</ele>
        <time>2019-09-02T10:48:10Z</time>
      </trkpt>
      <trkpt lat="46.15625" lon="-1.15176">
        <ele>0.8</ele>
        <time>2019-09-02T10:48:13Z</time>
      </trkpt>
      <trkpt lat="46.15622" lon="-1.15173">
        <ele>0.7</ele>
        <time>2019-09-02T10:48:16Z</time>
      </trkpt>
      <trkpt lat="46.15619" lon="-1.15174">
        <ele>0.7</ele>
        <time>2019-09-02T10:48:19Z</time>
      </trkpt>
      <trkpt lat="46.15616" lon="-1.15174">
        <ele>0.7</ele>
        <time>2019-09-02T10:48:23Z</time>
      </trkpt>
      <trkpt lat="46.15612" lon="-1.15174">
        <ele>0.7</ele>
        <time>2019-09-02T10:48:27Z</time>
      </trkpt>
      <trkpt lat="46.1561" lon="-1.15175">
        <ele>0.7</ele>
        <time>2019-09-02T10:48:29Z</time>
      </trkpt>
      <trkpt lat="46.15607" lon="-1.15178">
        <ele>0.7</ele>
        <time>2019-09-02T10:48:32Z</time>
      </trkpt>
      <trkpt lat="46.15605" lon="-1.15181">
        <ele>0.7</ele>
        <time>2019-09-02T10:48:35Z</time>
      </trkpt>
      <trkpt lat="46.15602" lon="-1.15184">
        <ele>0.7</ele>
        <time>2019-09-02T10:48:39Z</time>
      </trkpt>
      <trkpt lat="46.15598" lon="-1.15183">
        <ele>0.7</ele>
        <time>2019-09-02T10:48:42Z</time>
      </trkpt>
      <trkpt lat="46.15595" lon="-1.15184">
        <ele>0.7</ele>
        <time>2019-09-02T10:48:45Z</time>
      </trkpt>
      <trkpt lat="46.15592" lon="-1.15184">
        <ele>0.7</ele>
        <time>2019-09-02T10:48:49Z</time>
      </trkpt>
      <trkpt lat="46.15589" lon="-1.15186">
        <ele>0.7</ele>
        <time>2019-09-02T10:48:54Z</time>
      </trkpt>
      <trkpt lat="46.15587" lon="-1.15189">
        <ele>0.7</ele>
        <time>2019-09-02T10:48:57Z</time>
      </trkpt>
      <trkpt lat="46.15584" lon="-1.15191">
        <ele>0.7</ele>
        <time>2019-09-02T10:49:00Z</time>
      </trkpt>
      <trkpt lat="46.15581" lon="-1.15195">
        <ele>0.7</ele>
        <time>2019-09-02T10:49:03Z</time>
      </trkpt>
      <trkpt lat="46.15579" lon="-1.15191">
        <ele>0.7</ele>
        <time>2019-09-02T10:49:46Z</time>
      </trkpt>
      <trkpt lat="46.15577" lon="-1.15187">
        <ele>0.7</ele>
        <time>2019-09-02T10:49:49Z</time>
      </trkpt>
      <trkpt lat="46.15574" lon="-1.15185">
        <ele>0.7</ele>
        <time>2019-09-02T10:49:52Z</time>
      </trkpt>
      <trkpt lat="46.15571" lon="-1.15183">
        <ele>0.8</ele>
        <time>2019-09-02T10:49:55Z</time>
      </trkpt>
      <trkpt lat="46.15568" lon="-1.15183">
        <ele>0.8</ele>
        <time>2019-09-02T10:49:58Z</time>
      </trkpt>
      <trkpt lat="46.15565" lon="-1.15182">
        <ele>0.8</ele>
        <time>2019-09-02T10:50:02Z</time>
      </trkpt>
      <trkpt lat="46.15561" lon="-1.15181">
        <ele>0.8</ele>
        <time>2019-09-02T10:50:05Z</time>
      </trkpt>
      <trkpt lat="46.15558" lon="-1.15181">
        <ele>0.9</ele>
        <time>2019-09-02T10:50:08Z</time>
      </trkpt>
      <trkpt lat="46.15555" lon="-1.15182">
        <ele>0.9</ele>
        <time>2019-09-02T10:50:12Z</time>
      </trkpt>
      <trkpt lat="46.15551" lon="-1.15183">
        <ele>1</ele>
        <time>2019-09-02T10:50:16Z</time>
      </trkpt>
      <trkpt lat="46.15548" lon="-1.15183">
        <ele>1</ele>
        <time>2019-09-02T10:50:20Z</time>
      </trkpt>
      <trkpt lat="46.15546" lon="-1.15187">
        <ele>1</ele>
        <time>2019-09-02T10:50:51Z</time>
      </trkpt>
      <trkpt lat="46.15543" lon="-1.15189">
        <ele>1</ele>
        <time>2019-09-02T10:50:57Z</time>
      </trkpt>
      <trkpt lat="46.15544" lon="-1.15193">
        <ele>1</ele>
        <time>2019-09-02T10:51:01Z</time>
      </trkpt>
      <trkpt lat="46.15547" lon="-1.15195">
        <ele>1</ele>
        <time>2019-09-02T10:51:20Z</time>
      </trkpt>
      <trkpt lat="46.15548" lon="-1.15199">
        <ele>1.1</ele>
        <time>2019-09-02T10:51:23Z</time>
      </trkpt>
      <trkpt lat="46.15549" lon="-1.15203">
        <ele>1.1</ele>
        <time>2019-09-02T10:51:26Z</time>
      </trkpt>
      <trkpt lat="46.15548" lon="-1.15207">
        <ele>1.1</ele>
        <time>2019-09-02T10:51:29Z</time>
      </trkpt>
      <trkpt lat="46.15547" lon="-1.15211">
        <ele>1.1</ele>
        <time>2019-09-02T10:51:32Z</time>
      </trkpt>
      <trkpt lat="46.15547" lon="-1.15215">
        <ele>1.1</ele>
        <time>2019-09-02T10:51:36Z</time>
      </trkpt>
      <trkpt lat="46.15547" lon="-1.15211">
        <ele>1.1</ele>
        <time>2019-09-02T10:52:10Z</time>
      </trkpt>
      <trkpt lat="46.15547" lon="-1.15206">
        <ele>1.1</ele>
        <time>2019-09-02T10:52:14Z</time>
      </trkpt>
      <trkpt lat="46.15547" lon="-1.15202">
        <ele>1.2</ele>
        <time>2019-09-02T10:52:17Z</time>
      </trkpt>
      <trkpt lat="46.15547" lon="-1.15198">
        <ele>1.2</ele>
        <time>2019-09-02T10:52:19Z</time>
      </trkpt>
      <trkpt lat="46.15546" lon="-1.15193">
        <ele>1.2</ele>
        <time>2019-09-02T10:52:23Z</time>
      </trkpt>
      <trkpt lat="46.15543" lon="-1.15191">
        <ele>1.2</ele>
        <time>2019-09-02T10:52:27Z</time>
      </trkpt>
      <trkpt lat="46.1554" lon="-1.15188">
        <ele>1.2</ele>
        <time>2019-09-02T10:52:31Z</time>
      </trkpt>
      <trkpt lat="46.15538" lon="-1.15186">
        <ele>1.2</ele>
        <time>2019-09-02T10:52:33Z</time>
      </trkpt>
      <trkpt lat="46.15536" lon="-1.15181">
        <ele>1.3</ele>
        <time>2019-09-02T10:52:36Z</time>
      </trkpt>
      <trkpt lat="46.15533" lon="-1.15181">
        <ele>1.4</ele>
        <time>2019-09-02T10:52:38Z</time>
      </trkpt>
      <trkpt lat="46.1553" lon="-1.15179">
        <ele>1.4</ele>
        <time>2019-09-02T10:52:41Z</time>
      </trkpt>
      <trkpt lat="46.15527" lon="-1.15179">
        <ele>1.5</ele>
        <time>2019-09-02T10:52:44Z</time>
      </trkpt>
      <trkpt lat="46.15524" lon="-1.15181">
        <ele>1.5</ele>
        <time>2019-09-02T10:52:47Z</time>
      </trkpt>
      <trkpt lat="46.15521" lon="-1.15183">
        <ele>1.6</ele>
        <time>2019-09-02T10:52:50Z</time>
      </trkpt>
      <trkpt lat="46.15518" lon="-1.15182">
        <ele>1.7</ele>
        <time>2019-09-02T10:52:54Z</time>
      </trkpt>
      <trkpt lat="46.15515" lon="-1.15182">
        <ele>1.7</ele>
        <time>2019-09-02T10:52:57Z</time>
      </trkpt>
      <trkpt lat="46.15511" lon="-1.15182">
        <ele>1.8</ele>
        <time>2019-09-02T10:53:00Z</time>
      </trkpt>
      <trkpt lat="46.15508" lon="-1.15183">
        <ele>1.8</ele>
        <time>2019-09-02T10:53:02Z</time>
      </trkpt>
      <trkpt lat="46.15506" lon="-1.15184">
        <ele>1.9</ele>
        <time>2019-09-02T10:53:05Z</time>
      </trkpt>
      <trkpt lat="46.15501" lon="-1.15182">
        <ele>2</ele>
        <time>2019-09-02T10:53:09Z</time>
      </trkpt>
      <trkpt lat="46.15498" lon="-1.1518">
        <ele>2</ele>
        <time>2019-09-02T10:53:12Z</time>
      </trkpt>
      <trkpt lat="46.15494" lon="-1.15179">
        <ele>2.1</ele>
        <time>2019-09-02T10:53:15Z</time>
      </trkpt>
      <trkpt lat="46.15492" lon="-1.15177">
        <ele>2.2</ele>
        <time>2019-09-02T10:53:17Z</time>
      </trkpt>
      <trkpt lat="46.1549" lon="-1.15173">
        <ele>2.2</ele>
        <time>2019-09-02T10:53:20Z</time>
      </trkpt>
      <trkpt lat="46.15488" lon="-1.15168">
        <ele>2.3</ele>
        <time>2019-09-02T10:53:23Z</time>
      </trkpt>
      <trkpt lat="46.15488" lon="-1.15164">
        <ele>2.3</ele>
        <time>2019-09-02T10:53:25Z</time>
      </trkpt>
      <trkpt lat="46.15488" lon="-1.15159">
        <ele>2.3</ele>
        <time>2019-09-02T10:53:27Z</time>
      </trkpt>
      <trkpt lat="46.15487" lon="-1.15155">
        <ele>2.3</ele>
        <time>2019-09-02T10:53:30Z</time>
      </trkpt>
      <trkpt lat="46.15487" lon="-1.1515">
        <ele>2.3</ele>
        <time>2019-09-02T10:53:33Z</time>
      </trkpt>
      <trkpt lat="46.15487" lon="-1.15147">
        <ele>2.2</ele>
        <time>2019-09-02T10:53:35Z</time>
      </trkpt>
      <trkpt lat="46.15488" lon="-1.15142">
        <ele>2.2</ele>
        <time>2019-09-02T10:53:37Z</time>
      </trkpt>
      <trkpt lat="46.1549" lon="-1.15138">
        <ele>2.2</ele>
        <time>2019-09-02T10:53:40Z</time>
      </trkpt>
      <trkpt lat="46.1549" lon="-1.15134">
        <ele>2.2</ele>
        <time>2019-09-02T10:53:44Z</time>
      </trkpt>
      <trkpt lat="46.15491" lon="-1.15129">
        <ele>2.2</ele>
        <time>2019-09-02T10:53:48Z</time>
      </trkpt>
      <trkpt lat="46.15489" lon="-1.15126">
        <ele>2.2</ele>
        <time>2019-09-02T10:53:51Z</time>
      </trkpt>
      <trkpt lat="46.15489" lon="-1.15121">
        <ele>2.2</ele>
        <time>2019-09-02T10:53:53Z</time>
      </trkpt>
      <trkpt lat="46.1549" lon="-1.15116">
        <ele>2.2</ele>
        <time>2019-09-02T10:53:55Z</time>
      </trkpt>
      <trkpt lat="46.1549" lon="-1.15111">
        <ele>2.2</ele>
        <time>2019-09-02T10:53:59Z</time>
      </trkpt>
      <trkpt lat="46.1549" lon="-1.15105">
        <ele>2.2</ele>
        <time>2019-09-02T10:54:04Z</time>
      </trkpt>
      <trkpt lat="46.15491" lon="-1.15101">
        <ele>2.3</ele>
        <time>2019-09-02T10:54:06Z</time>
      </trkpt>
      <trkpt lat="46.15492" lon="-1.15098">
        <ele>2.3</ele>
        <time>2019-09-02T10:54:08Z</time>
      </trkpt>
      <trkpt lat="46.15492" lon="-1.15093">
        <ele>2.3</ele>
        <time>2019-09-02T10:54:11Z</time>
      </trkpt>
      <trkpt lat="46.15492" lon="-1.15089">
        <ele>2.3</ele>
        <time>2019-09-02T10:54:29Z</time>
      </trkpt>
      <trkpt lat="46.15492" lon="-1.15084">
        <ele>2.3</ele>
        <time>2019-09-02T10:54:32Z</time>
      </trkpt>
      <trkpt lat="46.15491" lon="-1.1508">
        <ele>2.3</ele>
        <time>2019-09-02T10:54:35Z</time>
      </trkpt>
      <trkpt lat="46.15491" lon="-1.15075">
        <ele>2.4</ele>
        <time>2019-09-02T10:54:38Z</time>
      </trkpt>
      <trkpt lat="46.1549" lon="-1.15071">
        <ele>2.4</ele>
        <time>2019-09-02T10:54:41Z</time>
      </trkpt>
      <trkpt lat="46.15492" lon="-1.15065">
        <ele>2.6</ele>
        <time>2019-09-02T10:54:44Z</time>
      </trkpt>
      <trkpt lat="46.15492" lon="-1.15061">
        <ele>2.6</ele>
        <time>2019-09-02T10:54:46Z</time>
      </trkpt>
      <trkpt lat="46.15492" lon="-1.15056">
        <ele>2.8</ele>
        <time>2019-09-02T10:54:49Z</time>
      </trkpt>
      <trkpt lat="46.15492" lon="-1.15051">
        <ele>2.9</ele>
        <time>2019-09-02T10:54:52Z</time>
      </trkpt>
      <trkpt lat="46.15491" lon="-1.15046">
        <ele>3.1</ele>
        <time>2019-09-02T10:54:55Z</time>
      </trkpt>
      <trkpt lat="46.15493" lon="-1.15041">
        <ele>3.3</ele>
        <time>2019-09-02T10:54:58Z</time>
      </trkpt>
      <trkpt lat="46.15493" lon="-1.15036">
        <ele>3.3</ele>
        <time>2019-09-02T10:55:01Z</time>
      </trkpt>
      <trkpt lat="46.15493" lon="-1.15031">
        <ele>3.3</ele>
        <time>2019-09-02T10:55:04Z</time>
      </trkpt>
      <trkpt lat="46.15493" lon="-1.15027">
        <ele>3.3</ele>
        <time>2019-09-02T10:55:06Z</time>
      </trkpt>
      <trkpt lat="46.15494" lon="-1.15023">
        <ele>3.3</ele>
        <time>2019-09-02T10:55:08Z</time>
      </trkpt>
      <trkpt lat="46.15494" lon="-1.15019">
        <ele>3.3</ele>
        <time>2019-09-02T10:55:10Z</time>
      </trkpt>
      <trkpt lat="46.15494" lon="-1.15014">
        <ele>3.3</ele>
        <time>2019-09-02T10:55:14Z</time>
      </trkpt>
      <trkpt lat="46.15494" lon="-1.15009">
        <ele>3.3</ele>
        <time>2019-09-02T10:55:17Z</time>
      </trkpt>
      <trkpt lat="46.15495" lon="-1.15004">
        <ele>3.3</ele>
        <time>2019-09-02T10:55:20Z</time>
      </trkpt>
      <trkpt lat="46.15493" lon="-1.15001">
        <ele>3.3</ele>
        <time>2019-09-02T10:55:23Z</time>
      </trkpt>
      <trkpt lat="46.15493" lon="-1.14996">
        <ele>3.3</ele>
        <time>2019-09-02T10:55:26Z</time>
      </trkpt>
      <trkpt lat="46.15494" lon="-1.14991">
        <ele>3.2</ele>
        <time>2019-09-02T10:55:29Z</time>
      </trkpt>
      <trkpt lat="46.15495" lon="-1.14987">
        <ele>3.2</ele>
        <time>2019-09-02T10:55:32Z</time>
      </trkpt>
      <trkpt lat="46.15497" lon="-1.14983">
        <ele>3.2</ele>
        <time>2019-09-02T10:55:35Z</time>
      </trkpt>
      <trkpt lat="46.15499" lon="-1.14979">
        <ele>3.2</ele>
        <time>2019-09-02T10:55:38Z</time>
      </trkpt>
      <trkpt lat="46.155" lon="-1.14975">
        <ele>3.2</ele>
        <time>2019-09-02T10:55:40Z</time>
      </trkpt>
      <trkpt lat="46.15502" lon="-1.14971">
        <ele>3.2</ele>
        <time>2019-09-02T10:55:44Z</time>
      </trkpt>
      <trkpt lat="46.15504" lon="-1.14967">
        <ele>3.2</ele>
        <time>2019-09-02T10:55:50Z</time>
      </trkpt>
      <trkpt lat="46.15505" lon="-1.14962">
        <ele>3.3</ele>
        <time>2019-09-02T10:55:56Z</time>
      </trkpt>
      <trkpt lat="46.15506" lon="-1.14958">
        <ele>3.4</ele>
        <time>2019-09-02T10:55:58Z</time>
      </trkpt>
      <trkpt lat="46.15506" lon="-1.14953">
        <ele>3.4</ele>
        <time>2019-09-02T10:56:01Z</time>
      </trkpt>
      <trkpt lat="46.15507" lon="-1.1495">
        <ele>3.4</ele>
        <time>2019-09-02T10:56:04Z</time>
      </trkpt>
      <trkpt lat="46.1551" lon="-1.14949">
        <ele>3.5</ele>
        <time>2019-09-02T10:56:08Z</time>
      </trkpt>
      <trkpt lat="46.15512" lon="-1.14945">
        <ele>3.5</ele>
        <time>2019-09-02T10:56:11Z</time>
      </trkpt>
      <trkpt lat="46.15515" lon="-1.14945">
        <ele>3.5</ele>
        <time>2019-09-02T10:56:14Z</time>
      </trkpt>
      <trkpt lat="46.15518" lon="-1.14947">
        <ele>3.6</ele>
        <time>2019-09-02T10:56:17Z</time>
      </trkpt>
      <trkpt lat="46.15521" lon="-1.14946">
        <ele>3.6</ele>
        <time>2019-09-02T10:56:20Z</time>
      </trkpt>
      <trkpt lat="46.15525" lon="-1.14947">
        <ele>3.6</ele>
        <time>2019-09-02T10:56:24Z</time>
      </trkpt>
      <trkpt lat="46.15529" lon="-1.14947">
        <ele>3.7</ele>
        <time>2019-09-02T10:56:29Z</time>
      </trkpt>
      <trkpt lat="46.15532" lon="-1.14946">
        <ele>3.7</ele>
        <time>2019-09-02T10:56:31Z</time>
      </trkpt>
      <trkpt lat="46.15534" lon="-1.14943">
        <ele>3.8</ele>
        <time>2019-09-02T10:56:34Z</time>
      </trkpt>
      <trkpt lat="46.15535" lon="-1.14939">
        <ele>3.8</ele>
        <time>2019-09-02T10:56:39Z</time>
      </trkpt>
      <trkpt lat="46.15537" lon="-1.14934">
        <ele>3.8</ele>
        <time>2019-09-02T10:56:43Z</time>
      </trkpt>
      <trkpt lat="46.15539" lon="-1.14931">
        <ele>3.8</ele>
        <time>2019-09-02T10:56:46Z</time>
      </trkpt>
      <trkpt lat="46.1554" lon="-1.14926">
        <ele>3.9</ele>
        <time>2019-09-02T10:56:50Z</time>
      </trkpt>
      <trkpt lat="46.15543" lon="-1.14922">
        <ele>3.9</ele>
        <time>2019-09-02T10:56:55Z</time>
      </trkpt>
      <trkpt lat="46.15545" lon="-1.1492">
        <ele>3.9</ele>
        <time>2019-09-02T10:57:00Z</time>
      </trkpt>
      <trkpt lat="46.15547" lon="-1.14917">
        <ele>3.9</ele>
        <time>2019-09-02T10:57:05Z</time>
      </trkpt>
      <trkpt lat="46.15548" lon="-1.14922">
        <ele>3.9</ele>
        <time>2019-09-02T10:57:31Z</time>
      </trkpt>
      <trkpt lat="46.15547" lon="-1.14927">
        <ele>3.9</ele>
        <time>2019-09-02T10:57:34Z</time>
      </trkpt>
      <trkpt lat="46.15545" lon="-1.14929">
        <ele>3.9</ele>
        <time>2019-09-02T10:57:36Z</time>
      </trkpt>
      <trkpt lat="46.15541" lon="-1.14929">
        <ele>3.9</ele>
        <time>2019-09-02T10:57:39Z</time>
      </trkpt>
      <trkpt lat="46.1554" lon="-1.14937">
        <ele>3.8</ele>
        <time>2019-09-02T10:58:09Z</time>
      </trkpt>
      <trkpt lat="46.15537" lon="-1.14941">
        <ele>3.8</ele>
        <time>2019-09-02T10:58:12Z</time>
      </trkpt>
      <trkpt lat="46.15533" lon="-1.14942">
        <ele>3.7</ele>
        <time>2019-09-02T10:58:15Z</time>
      </trkpt>
      <trkpt lat="46.15531" lon="-1.14942">
        <ele>3.7</ele>
        <time>2019-09-02T10:58:18Z</time>
      </trkpt>
      <trkpt lat="46.15528" lon="-1.14942">
        <ele>3.6</ele>
        <time>2019-09-02T10:58:24Z</time>
      </trkpt>
      <trkpt lat="46.15524" lon="-1.14942">
        <ele>3.6</ele>
        <time>2019-09-02T10:58:30Z</time>
      </trkpt>
      <trkpt lat="46.15521" lon="-1.1494">
        <ele>3.5</ele>
        <time>2019-09-02T10:58:37Z</time>
      </trkpt>
      <trkpt lat="46.15518" lon="-1.14941">
        <ele>3.5</ele>
        <time>2019-09-02T10:58:40Z</time>
      </trkpt>
      <trkpt lat="46.15515" lon="-1.14942">
        <ele>3.4</ele>
        <time>2019-09-02T10:58:43Z</time>
      </trkpt>
      <trkpt lat="46.15512" lon="-1.14943">
        <ele>3.4</ele>
        <time>2019-09-02T10:58:46Z</time>
      </trkpt>
      <trkpt lat="46.15509" lon="-1.14942">
        <ele>3.3</ele>
        <time>2019-09-02T10:58:49Z</time>
      </trkpt>
      <trkpt lat="46.15506" lon="-1.14942">
        <ele>3.3</ele>
        <time>2019-09-02T10:58:52Z</time>
      </trkpt>
      <trkpt lat="46.15503" lon="-1.14942">
        <ele>3.3</ele>
        <time>2019-09-02T10:58:55Z</time>
      </trkpt>
      <trkpt lat="46.15499" lon="-1.14942">
        <ele>3.2</ele>
        <time>2019-09-02T10:58:58Z</time>
      </trkpt>
      <trkpt lat="46.15496" lon="-1.1494">
        <ele>3.2</ele>
        <time>2019-09-02T10:59:02Z</time>
      </trkpt>
      <trkpt lat="46.15493" lon="-1.1494">
        <ele>3.2</ele>
        <time>2019-09-02T10:59:06Z</time>
      </trkpt>
      <trkpt lat="46.1549" lon="-1.14941">
        <ele>3.2</ele>
        <time>2019-09-02T10:59:26Z</time>
      </trkpt>
      <trkpt lat="46.15487" lon="-1.14942">
        <ele>3.2</ele>
        <time>2019-09-02T10:59:41Z</time>
      </trkpt>
      <trkpt lat="46.15482" lon="-1.14942">
        <ele>3.2</ele>
        <time>2019-09-02T10:59:47Z</time>
      </trkpt>
      <trkpt lat="46.1548" lon="-1.14945">
        <ele>3.2</ele>
        <time>2019-09-02T10:59:51Z</time>
      </trkpt>
      <trkpt lat="46.15478" lon="-1.14951">
        <ele>3.3</ele>
        <time>2019-09-02T10:59:55Z</time>
      </trkpt>
      <trkpt lat="46.15477" lon="-1.14955">
        <ele>3.3</ele>
        <time>2019-09-02T10:59:58Z</time>
      </trkpt>
      <trkpt lat="46.15473" lon="-1.14957">
        <ele>3.3</ele>
        <time>2019-09-02T11:00:01Z</time>
      </trkpt>
      <trkpt lat="46.1547" lon="-1.14957">
        <ele>3.3</ele>
        <time>2019-09-02T11:00:04Z</time>
      </trkpt>
      <trkpt lat="46.15467" lon="-1.14954">
        <ele>3.4</ele>
        <time>2019-09-02T11:00:07Z</time>
      </trkpt>
      <trkpt lat="46.15464" lon="-1.14954">
        <ele>3.4</ele>
        <time>2019-09-02T11:00:10Z</time>
      </trkpt>
      <trkpt lat="46.15461" lon="-1.14955">
        <ele>3.4</ele>
        <time>2019-09-02T11:00:13Z</time>
      </trkpt>
      <trkpt lat="46.15457" lon="-1.14956">
        <ele>3.4</ele>
        <time>2019-09-02T11:00:16Z</time>
      </trkpt>
      <trkpt lat="46.15454" lon="-1.14956">
        <ele>3.4</ele>
        <time>2019-09-02T11:00:19Z</time>
      </trkpt>
      <trkpt lat="46.15451" lon="-1.14957">
        <ele>3.5</ele>
        <time>2019-09-02T11:00:22Z</time>
      </trkpt>
      <trkpt lat="46.15448" lon="-1.14957">
        <ele>3.5</ele>
        <time>2019-09-02T11:00:25Z</time>
      </trkpt>
      <trkpt lat="46.15444" lon="-1.14957">
        <ele>3.5</ele>
        <time>2019-09-02T11:00:28Z</time>
      </trkpt>
      <trkpt lat="46.15441" lon="-1.14956">
        <ele>3.5</ele>
        <time>2019-09-02T11:00:31Z</time>
      </trkpt>
      <trkpt lat="46.15437" lon="-1.14957">
        <ele>3.5</ele>
        <time>2019-09-02T11:00:34Z</time>
      </trkpt>
      <trkpt lat="46.15433" lon="-1.14956">
        <ele>3.5</ele>
        <time>2019-09-02T11:00:37Z</time>
      </trkpt>
      <trkpt lat="46.1543" lon="-1.14955">
        <ele>3.5</ele>
        <time>2019-09-02T11:00:40Z</time>
      </trkpt>
      <trkpt lat="46.15427" lon="-1.14956">
        <ele>3.5</ele>
        <time>2019-09-02T11:00:43Z</time>
      </trkpt>
      <trkpt lat="46.15424" lon="-1.14957">
        <ele>3.5</ele>
        <time>2019-09-02T11:00:46Z</time>
      </trkpt>
      <trkpt lat="46.15421" lon="-1.14958">
        <ele>3.5</ele>
        <time>2019-09-02T11:00:49Z</time>
      </trkpt>
      <trkpt lat="46.15421" lon="-1.14962">
        <ele>3.5</ele>
        <time>2019-09-02T11:00:53Z</time>
      </trkpt>
      <trkpt lat="46.15419" lon="-1.14966">
        <ele>3.6</ele>
        <time>2019-09-02T11:00:56Z</time>
      </trkpt>
      <trkpt lat="46.15416" lon="-1.14969">
        <ele>3.6</ele>
        <time>2019-09-02T11:00:59Z</time>
      </trkpt>
      <trkpt lat="46.15413" lon="-1.14971">
        <ele>3.6</ele>
        <time>2019-09-02T11:01:02Z</time>
      </trkpt>
      <trkpt lat="46.15411" lon="-1.14975">
        <ele>3.6</ele>
        <time>2019-09-02T11:01:05Z</time>
      </trkpt>
      <trkpt lat="46.15409" lon="-1.1498">
        <ele>3.6</ele>
        <time>2019-09-02T11:01:08Z</time>
      </trkpt>
      <trkpt lat="46.15408" lon="-1.14983">
        <ele>3.6</ele>
        <time>2019-09-02T11:01:11Z</time>
      </trkpt>
      <trkpt lat="46.15407" lon="-1.14988">
        <ele>3.6</ele>
        <time>2019-09-02T11:01:14Z</time>
      </trkpt>
      <trkpt lat="46.15404" lon="-1.14991">
        <ele>3.6</ele>
        <time>2019-09-02T11:01:17Z</time>
      </trkpt>
      <trkpt lat="46.15401" lon="-1.14994">
        <ele>3.7</ele>
        <time>2019-09-02T11:01:20Z</time>
      </trkpt>
      <trkpt lat="46.15399" lon="-1.14997">
        <ele>3.8</ele>
        <time>2019-09-02T11:01:23Z</time>
      </trkpt>
      <trkpt lat="46.15397" lon="-1.15001">
        <ele>3.8</ele>
        <time>2019-09-02T11:01:26Z</time>
      </trkpt>
      <trkpt lat="46.15395" lon="-1.15005">
        <ele>3.9</ele>
        <time>2019-09-02T11:01:29Z</time>
      </trkpt>
      <trkpt lat="46.15392" lon="-1.15009">
        <ele>4</ele>
        <time>2019-09-02T11:01:32Z</time>
      </trkpt>
      <trkpt lat="46.1539" lon="-1.15013">
        <ele>3.7</ele>
        <time>2019-09-02T11:01:36Z</time>
      </trkpt>
      <trkpt lat="46.15386" lon="-1.15015">
        <ele>3.7</ele>
        <time>2019-09-02T11:01:39Z</time>
      </trkpt>
      <trkpt lat="46.15383" lon="-1.15016">
        <ele>3.7</ele>
        <time>2019-09-02T11:01:42Z</time>
      </trkpt>
      <trkpt lat="46.1538" lon="-1.15017">
        <ele>3.7</ele>
        <time>2019-09-02T11:01:45Z</time>
      </trkpt>
      <trkpt lat="46.15377" lon="-1.15019">
        <ele>3.8</ele>
        <time>2019-09-02T11:01:48Z</time>
      </trkpt>
      <trkpt lat="46.15374" lon="-1.15021">
        <ele>3.8</ele>
        <time>2019-09-02T11:01:51Z</time>
      </trkpt>
      <trkpt lat="46.15371" lon="-1.15024">
        <ele>3.9</ele>
        <time>2019-09-02T11:01:54Z</time>
      </trkpt>
      <trkpt lat="46.15368" lon="-1.15026">
        <ele>3.9</ele>
        <time>2019-09-02T11:01:57Z</time>
      </trkpt>
      <trkpt lat="46.15365" lon="-1.15023">
        <ele>4</ele>
        <time>2019-09-02T11:02:01Z</time>
      </trkpt>
      <trkpt lat="46.15361" lon="-1.15025">
        <ele>4</ele>
        <time>2019-09-02T11:02:05Z</time>
      </trkpt>
      <trkpt lat="46.15359" lon="-1.15027">
        <ele>4</ele>
        <time>2019-09-02T11:02:09Z</time>
      </trkpt>
      <trkpt lat="46.15356" lon="-1.1503">
        <ele>4.1</ele>
        <time>2019-09-02T11:02:13Z</time>
      </trkpt>
      <trkpt lat="46.15351" lon="-1.15029">
        <ele>4.1</ele>
        <time>2019-09-02T11:02:17Z</time>
      </trkpt>
      <trkpt lat="46.15348" lon="-1.15029">
        <ele>4.2</ele>
        <time>2019-09-02T11:02:21Z</time>
      </trkpt>
      <trkpt lat="46.15345" lon="-1.1503">
        <ele>4.2</ele>
        <time>2019-09-02T11:02:24Z</time>
      </trkpt>
      <trkpt lat="46.15342" lon="-1.15029">
        <ele>4.2</ele>
        <time>2019-09-02T11:02:29Z</time>
      </trkpt>
      <trkpt lat="46.15339" lon="-1.15029">
        <ele>4.3</ele>
        <time>2019-09-02T11:02:32Z</time>
      </trkpt>
      <trkpt lat="46.15336" lon="-1.15028">
        <ele>4.3</ele>
        <time>2019-09-02T11:02:36Z</time>
      </trkpt>
      <trkpt lat="46.15332" lon="-1.15028">
        <ele>4.4</ele>
        <time>2019-09-02T11:02:40Z</time>
      </trkpt>
      <trkpt lat="46.15329" lon="-1.15026">
        <ele>4.4</ele>
        <time>2019-09-02T11:02:42Z</time>
      </trkpt>
      <trkpt lat="46.15325" lon="-1.15024">
        <ele>4.4</ele>
        <time>2019-09-02T11:02:45Z</time>
      </trkpt>
      <trkpt lat="46.15322" lon="-1.15026">
        <ele>4.5</ele>
        <time>2019-09-02T11:02:47Z</time>
      </trkpt>
      <trkpt lat="46.1532" lon="-1.15024">
        <ele>4.5</ele>
        <time>2019-09-02T11:02:50Z</time>
      </trkpt>
      <trkpt lat="46.15317" lon="-1.15025">
        <ele>4.6</ele>
        <time>2019-09-02T11:02:53Z</time>
      </trkpt>
      <trkpt lat="46.15314" lon="-1.15026">
        <ele>4.6</ele>
        <time>2019-09-02T11:02:57Z</time>
      </trkpt>
      <trkpt lat="46.15311" lon="-1.15027">
        <ele>4.7</ele>
        <time>2019-09-02T11:03:01Z</time>
      </trkpt>
      <trkpt lat="46.15307" lon="-1.15027">
        <ele>4.7</ele>
        <time>2019-09-02T11:03:17Z</time>
      </trkpt>
      <trkpt lat="46.15304" lon="-1.15026">
        <ele>4.8</ele>
        <time>2019-09-02T11:03:20Z</time>
      </trkpt>
      <trkpt lat="46.15301" lon="-1.15025">
        <ele>4.9</ele>
        <time>2019-09-02T11:03:26Z</time>
      </trkpt>
      <trkpt lat="46.15298" lon="-1.15022">
        <ele>5</ele>
        <time>2019-09-02T11:03:30Z</time>
      </trkpt>
      <trkpt lat="46.15295" lon="-1.15021">
        <ele>5.1</ele>
        <time>2019-09-02T11:03:32Z</time>
      </trkpt>
      <trkpt lat="46.15292" lon="-1.15019">
        <ele>5.3</ele>
        <time>2019-09-02T11:03:34Z</time>
      </trkpt>
      <trkpt lat="46.15289" lon="-1.15016">
        <ele>5.6</ele>
        <time>2019-09-02T11:03:37Z</time>
      </trkpt>
      <trkpt lat="46.15286" lon="-1.15015">
        <ele>6</ele>
        <time>2019-09-02T11:03:41Z</time>
      </trkpt>
      <trkpt lat="46.15283" lon="-1.15013">
        <ele>6.3</ele>
        <time>2019-09-02T11:03:44Z</time>
      </trkpt>
      <trkpt lat="46.15281" lon="-1.15015">
        <ele>6.9</ele>
        <time>2019-09-02T11:03:49Z</time>
      </trkpt>
      <trkpt lat="46.1528" lon="-1.15019">
        <ele>6.9</ele>
        <time>2019-09-02T11:03:52Z</time>
      </trkpt>
      <trkpt lat="46.15278" lon="-1.15024">
        <ele>6.9</ele>
        <time>2019-09-02T11:03:56Z</time>
      </trkpt>
      <trkpt lat="46.15275" lon="-1.15026">
        <ele>6.9</ele>
        <time>2019-09-02T11:04:00Z</time>
      </trkpt>
      <trkpt lat="46.15272" lon="-1.15026">
        <ele>6.9</ele>
        <time>2019-09-02T11:04:03Z</time>
      </trkpt>
      <trkpt lat="46.15269" lon="-1.15027">
        <ele>6.9</ele>
        <time>2019-09-02T11:04:06Z</time>
      </trkpt>
      <trkpt lat="46.15265" lon="-1.15027">
        <ele>6.9</ele>
        <time>2019-09-02T11:04:09Z</time>
      </trkpt>
      <trkpt lat="46.15261" lon="-1.15026">
        <ele>6.9</ele>
        <time>2019-09-02T11:04:12Z</time>
      </trkpt>
      <trkpt lat="46.15258" lon="-1.15026">
        <ele>6.9</ele>
        <time>2019-09-02T11:04:15Z</time>
      </trkpt>
      <trkpt lat="46.15255" lon="-1.15027">
        <ele>6.9</ele>
        <time>2019-09-02T11:04:18Z</time>
      </trkpt>
      <trkpt lat="46.15251" lon="-1.15028">
        <ele>6.9</ele>
        <time>2019-09-02T11:04:21Z</time>
      </trkpt>
      <trkpt lat="46.15247" lon="-1.15027">
        <ele>6.9</ele>
        <time>2019-09-02T11:04:24Z</time>
      </trkpt>
      <trkpt lat="46.15244" lon="-1.15028">
        <ele>6.9</ele>
        <time>2019-09-02T11:04:27Z</time>
      </trkpt>
      <trkpt lat="46.1524" lon="-1.15029">
        <ele>6.9</ele>
        <time>2019-09-02T11:04:30Z</time>
      </trkpt>
      <trkpt lat="46.15236" lon="-1.15029">
        <ele>6.9</ele>
        <time>2019-09-02T11:04:33Z</time>
      </trkpt>
      <trkpt lat="46.15233" lon="-1.15027">
        <ele>6.9</ele>
        <time>2019-09-02T11:04:36Z</time>
      </trkpt>
      <trkpt lat="46.1523" lon="-1.15026">
        <ele>6.9</ele>
        <time>2019-09-02T11:04:39Z</time>
      </trkpt>
      <trkpt lat="46.15226" lon="-1.15025">
        <ele>6.9</ele>
        <time>2019-09-02T11:04:42Z</time>
      </trkpt>
      <trkpt lat="46.15222" lon="-1.15026">
        <ele>6.9</ele>
        <time>2019-09-02T11:04:45Z</time>
      </trkpt>
      <trkpt lat="46.15219" lon="-1.15025">
        <ele>6.9</ele>
        <time>2019-09-02T11:04:48Z</time>
      </trkpt>
      <trkpt lat="46.15216" lon="-1.15025">
        <ele>6.9</ele>
        <time>2019-09-02T11:04:51Z</time>
      </trkpt>
      <trkpt lat="46.15213" lon="-1.15025">
        <ele>6.9</ele>
        <time>2019-09-02T11:04:54Z</time>
      </trkpt>
      <trkpt lat="46.15209" lon="-1.15026">
        <ele>6.9</ele>
        <time>2019-09-02T11:04:58Z</time>
      </trkpt>
      <trkpt lat="46.15205" lon="-1.15026">
        <ele>7</ele>
        <time>2019-09-02T11:05:01Z</time>
      </trkpt>
      <trkpt lat="46.15201" lon="-1.15025">
        <ele>7</ele>
        <time>2019-09-02T11:05:04Z</time>
      </trkpt>
      <trkpt lat="46.15198" lon="-1.15023">
        <ele>7</ele>
        <time>2019-09-02T11:05:07Z</time>
      </trkpt>
      <trkpt lat="46.15195" lon="-1.15023">
        <ele>6.9</ele>
        <time>2019-09-02T11:05:10Z</time>
      </trkpt>
      <trkpt lat="46.15192" lon="-1.15022">
        <ele>6.9</ele>
        <time>2019-09-02T11:05:13Z</time>
      </trkpt>
      <trkpt lat="46.15188" lon="-1.15022">
        <ele>6.8</ele>
        <time>2019-09-02T11:05:16Z</time>
      </trkpt>
      <trkpt lat="46.15184" lon="-1.15021">
        <ele>6.8</ele>
        <time>2019-09-02T11:05:19Z</time>
      </trkpt>
      <trkpt lat="46.15182" lon="-1.1502">
        <ele>6.7</ele>
        <time>2019-09-02T11:05:22Z</time>
      </trkpt>
      <trkpt lat="46.15178" lon="-1.15021">
        <ele>6.7</ele>
        <time>2019-09-02T11:05:25Z</time>
      </trkpt>
      <trkpt lat="46.15175" lon="-1.1502">
        <ele>6.7</ele>
        <time>2019-09-02T11:05:28Z</time>
      </trkpt>
      <trkpt lat="46.15172" lon="-1.1502">
        <ele>6.6</ele>
        <time>2019-09-02T11:05:31Z</time>
      </trkpt>
      <trkpt lat="46.15168" lon="-1.1502">
        <ele>6.6</ele>
        <time>2019-09-02T11:05:34Z</time>
      </trkpt>
      <trkpt lat="46.15164" lon="-1.1502">
        <ele>6.6</ele>
        <time>2019-09-02T11:05:37Z</time>
      </trkpt>
      <trkpt lat="46.15161" lon="-1.15019">
        <ele>6.5</ele>
        <time>2019-09-02T11:05:40Z</time>
      </trkpt>
      <trkpt lat="46.15157" lon="-1.15019">
        <ele>6.5</ele>
        <time>2019-09-02T11:05:43Z</time>
      </trkpt>
      <trkpt lat="46.15154" lon="-1.15019">
        <ele>6.5</ele>
        <time>2019-09-02T11:05:46Z</time>
      </trkpt>
      <trkpt lat="46.1515" lon="-1.15019">
        <ele>6.5</ele>
        <time>2019-09-02T11:05:49Z</time>
      </trkpt>
      <trkpt lat="46.15147" lon="-1.15019">
        <ele>6.5</ele>
        <time>2019-09-02T11:05:51Z</time>
      </trkpt>
      <trkpt lat="46.15144" lon="-1.15018">
        <ele>6.5</ele>
        <time>2019-09-02T11:05:54Z</time>
      </trkpt>
      <trkpt lat="46.15141" lon="-1.15019">
        <ele>6.5</ele>
        <time>2019-09-02T11:05:57Z</time>
      </trkpt>
      <trkpt lat="46.15137" lon="-1.15018">
        <ele>6.5</ele>
        <time>2019-09-02T11:06:00Z</time>
      </trkpt>
      <trkpt lat="46.15134" lon="-1.15019">
        <ele>6.5</ele>
        <time>2019-09-02T11:06:03Z</time>
      </trkpt>
      <trkpt lat="46.15131" lon="-1.15019">
        <ele>6.5</ele>
        <time>2019-09-02T11:06:05Z</time>
      </trkpt>
      <trkpt lat="46.15127" lon="-1.1502">
        <ele>6.5</ele>
        <time>2019-09-02T11:06:08Z</time>
      </trkpt>
      <trkpt lat="46.15124" lon="-1.1502">
        <ele>6.5</ele>
        <time>2019-09-02T11:06:11Z</time>
      </trkpt>
      <trkpt lat="46.15121" lon="-1.1502">
        <ele>6.5</ele>
        <time>2019-09-02T11:06:14Z</time>
      </trkpt>
      <trkpt lat="46.15117" lon="-1.1502">
        <ele>6.5</ele>
        <time>2019-09-02T11:06:17Z</time>
      </trkpt>
      <trkpt lat="46.15113" lon="-1.1502">
        <ele>6.5</ele>
        <time>2019-09-02T11:06:20Z</time>
      </trkpt>
      <trkpt lat="46.1511" lon="-1.15019">
        <ele>6.5</ele>
        <time>2019-09-02T11:06:23Z</time>
      </trkpt>
      <trkpt lat="46.15106" lon="-1.15019">
        <ele>6.6</ele>
        <time>2019-09-02T11:06:26Z</time>
      </trkpt>
      <trkpt lat="46.15104" lon="-1.15016">
        <ele>6.6</ele>
        <time>2019-09-02T11:06:30Z</time>
      </trkpt>
      <trkpt lat="46.15102" lon="-1.15012">
        <ele>6.7</ele>
        <time>2019-09-02T11:06:33Z</time>
      </trkpt>
      <trkpt lat="46.151" lon="-1.15009">
        <ele>6.8</ele>
        <time>2019-09-02T11:06:35Z</time>
      </trkpt>
      <trkpt lat="46.15097" lon="-1.15007">
        <ele>6.9</ele>
        <time>2019-09-02T11:06:38Z</time>
      </trkpt>
      <trkpt lat="46.15095" lon="-1.15005">
        <ele>7</ele>
        <time>2019-09-02T11:06:41Z</time>
      </trkpt>
      <trkpt lat="46.15092" lon="-1.15004">
        <ele>7</ele>
        <time>2019-09-02T11:06:45Z</time>
      </trkpt>
      <trkpt lat="46.15089" lon="-1.15003">
        <ele>7.1</ele>
        <time>2019-09-02T11:06:48Z</time>
      </trkpt>
      <trkpt lat="46.15086" lon="-1.15003">
        <ele>7.1</ele>
        <time>2019-09-02T11:06:51Z</time>
      </trkpt>
      <trkpt lat="46.15083" lon="-1.15003">
        <ele>7.2</ele>
        <time>2019-09-02T11:06:54Z</time>
      </trkpt>
      <trkpt lat="46.15079" lon="-1.15004">
        <ele>7.2</ele>
        <time>2019-09-02T11:06:57Z</time>
      </trkpt>
      <trkpt lat="46.15076" lon="-1.15004">
        <ele>7.3</ele>
        <time>2019-09-02T11:07:00Z</time>
      </trkpt>
      <trkpt lat="46.15072" lon="-1.15003">
        <ele>7.3</ele>
        <time>2019-09-02T11:07:04Z</time>
      </trkpt>
      <trkpt lat="46.15069" lon="-1.15003">
        <ele>7.4</ele>
        <time>2019-09-02T11:07:07Z</time>
      </trkpt>
      <trkpt lat="46.15066" lon="-1.15004">
        <ele>7.4</ele>
        <time>2019-09-02T11:07:10Z</time>
      </trkpt>
      <trkpt lat="46.15063" lon="-1.15003">
        <ele>7.5</ele>
        <time>2019-09-02T11:07:13Z</time>
      </trkpt>
      <trkpt lat="46.1506" lon="-1.15003">
        <ele>7.5</ele>
        <time>2019-09-02T11:07:16Z</time>
      </trkpt>
      <trkpt lat="46.15057" lon="-1.15003">
        <ele>7.5</ele>
        <time>2019-09-02T11:07:19Z</time>
      </trkpt>
      <trkpt lat="46.15054" lon="-1.15004">
        <ele>7.6</ele>
        <time>2019-09-02T11:07:22Z</time>
      </trkpt>
      <trkpt lat="46.15051" lon="-1.15003">
        <ele>7.6</ele>
        <time>2019-09-02T11:07:25Z</time>
      </trkpt>
      <trkpt lat="46.15048" lon="-1.15003">
        <ele>7.7</ele>
        <time>2019-09-02T11:07:28Z</time>
      </trkpt>
      <trkpt lat="46.15045" lon="-1.15003">
        <ele>7.7</ele>
        <time>2019-09-02T11:07:31Z</time>
      </trkpt>
      <trkpt lat="46.15042" lon="-1.15003">
        <ele>7.7</ele>
        <time>2019-09-02T11:07:34Z</time>
      </trkpt>
      <trkpt lat="46.15039" lon="-1.15003">
        <ele>7.8</ele>
        <time>2019-09-02T11:07:37Z</time>
      </trkpt>
      <trkpt lat="46.15035" lon="-1.15002">
        <ele>7.8</ele>
        <time>2019-09-02T11:07:41Z</time>
      </trkpt>
      <trkpt lat="46.15031" lon="-1.15003">
        <ele>7.8</ele>
        <time>2019-09-02T11:07:44Z</time>
      </trkpt>
      <trkpt lat="46.15028" lon="-1.15003">
        <ele>7.8</ele>
        <time>2019-09-02T11:07:47Z</time>
      </trkpt>
      <trkpt lat="46.15025" lon="-1.15003">
        <ele>7.7</ele>
        <time>2019-09-02T11:07:50Z</time>
      </trkpt>
      <trkpt lat="46.15021" lon="-1.15003">
        <ele>7.7</ele>
        <time>2019-09-02T11:07:53Z</time>
      </trkpt>
      <trkpt lat="46.15018" lon="-1.15003">
        <ele>7.6</ele>
        <time>2019-09-02T11:07:56Z</time>
      </trkpt>
      <trkpt lat="46.15015" lon="-1.15001">
        <ele>7.5</ele>
        <time>2019-09-02T11:07:59Z</time>
      </trkpt>
      <trkpt lat="46.15012" lon="-1.15">
        <ele>7.4</ele>
        <time>2019-09-02T11:08:02Z</time>
      </trkpt>
      <trkpt lat="46.15009" lon="-1.15001">
        <ele>7.3</ele>
        <time>2019-09-02T11:08:05Z</time>
      </trkpt>
      <trkpt lat="46.15006" lon="-1.15002">
        <ele>7.3</ele>
        <time>2019-09-02T11:08:08Z</time>
      </trkpt>
      <trkpt lat="46.15002" lon="-1.15004">
        <ele>7.2</ele>
        <time>2019-09-02T11:08:11Z</time>
      </trkpt>
      <trkpt lat="46.14999" lon="-1.15004">
        <ele>7.1</ele>
        <time>2019-09-02T11:08:14Z</time>
      </trkpt>
      <trkpt lat="46.14996" lon="-1.15004">
        <ele>7.1</ele>
        <time>2019-09-02T11:08:17Z</time>
      </trkpt>
      <trkpt lat="46.14992" lon="-1.15004">
        <ele>7</ele>
        <time>2019-09-02T11:08:20Z</time>
      </trkpt>
      <trkpt lat="46.14989" lon="-1.15003">
        <ele>7</ele>
        <time>2019-09-02T11:08:22Z</time>
      </trkpt>
      <trkpt lat="46.14986" lon="-1.15003">
        <ele>6.9</ele>
        <time>2019-09-02T11:08:25Z</time>
      </trkpt>
      <trkpt lat="46.14982" lon="-1.15003">
        <ele>6.9</ele>
        <time>2019-09-02T11:08:28Z</time>
      </trkpt>
      <trkpt lat="46.1498" lon="-1.15002">
        <ele>7</ele>
        <time>2019-09-02T11:08:30Z</time>
      </trkpt>
      <trkpt lat="46.14979" lon="-1.14997">
        <ele>7</ele>
        <time>2019-09-02T11:08:33Z</time>
      </trkpt>
      <trkpt lat="46.14979" lon="-1.14992">
        <ele>7.1</ele>
        <time>2019-09-02T11:08:36Z</time>
      </trkpt>
      <trkpt lat="46.14977" lon="-1.14988">
        <ele>7.1</ele>
        <time>2019-09-02T11:08:40Z</time>
      </trkpt>
      <trkpt lat="46.14974" lon="-1.14988">
        <ele>7.2</ele>
        <time>2019-09-02T11:08:43Z</time>
      </trkpt>
      <trkpt lat="46.14971" lon="-1.14987">
        <ele>7.1</ele>
        <time>2019-09-02T11:08:46Z</time>
      </trkpt>
      <trkpt lat="46.14967" lon="-1.14985">
        <ele>7</ele>
        <time>2019-09-02T11:08:49Z</time>
      </trkpt>
      <trkpt lat="46.14964" lon="-1.14983">
        <ele>6.5</ele>
        <time>2019-09-02T11:08:52Z</time>
      </trkpt>
      <trkpt lat="46.14961" lon="-1.14981">
        <ele>6.5</ele>
        <time>2019-09-02T11:08:56Z</time>
      </trkpt>
      <trkpt lat="46.14958" lon="-1.1498">
        <ele>6.5</ele>
        <time>2019-09-02T11:08:59Z</time>
      </trkpt>
      <trkpt lat="46.14955" lon="-1.14981">
        <ele>6.5</ele>
        <time>2019-09-02T11:09:03Z</time>
      </trkpt>
      <trkpt lat="46.14952" lon="-1.14982">
        <ele>6.5</ele>
        <time>2019-09-02T11:09:05Z</time>
      </trkpt>
      <trkpt lat="46.14949" lon="-1.14981">
        <ele>6.5</ele>
        <time>2019-09-02T11:09:08Z</time>
      </trkpt>
      <trkpt lat="46.14946" lon="-1.14978">
        <ele>6.5</ele>
        <time>2019-09-02T11:09:11Z</time>
      </trkpt>
      <trkpt lat="46.14942" lon="-1.14977">
        <ele>6.5</ele>
        <time>2019-09-02T11:09:14Z</time>
      </trkpt>
      <trkpt lat="46.14939" lon="-1.14977">
        <ele>6.5</ele>
        <time>2019-09-02T11:09:17Z</time>
      </trkpt>
      <trkpt lat="46.14936" lon="-1.14976">
        <ele>6.4</ele>
        <time>2019-09-02T11:09:20Z</time>
      </trkpt>
      <trkpt lat="46.14933" lon="-1.14977">
        <ele>6.4</ele>
        <time>2019-09-02T11:09:22Z</time>
      </trkpt>
      <trkpt lat="46.14932" lon="-1.14974">
        <ele>6.4</ele>
        <time>2019-09-02T11:09:26Z</time>
      </trkpt>
      <trkpt lat="46.14932" lon="-1.1497">
        <ele>6.4</ele>
        <time>2019-09-02T11:10:35Z</time>
      </trkpt>
    </trkseg>
  </trk>
</gpx>